[[{"header":{"parameterUnit":"m.s-1","parameterCategory":1,"la1":30.6,"la2":29.2853,"lo1":-89.7004,"lo2":-87.6739,"dy":0.0162,"dx":0.0183,"nx":112,"ny":82,"refTime":"2023-09-20T00:00:00:Z","depth":0,"parameterNumber":2,"parameterNumberName":"U-component_of_WINDS"},"data":[0.0,0.0,0.0,0.0,0.0,0.0,0.0,0.0,0.0,0.0,0.0,0.0,0.0,0.0,0.0,0.0,0.0,0.0,0.0,0.0,0.0,0.0,0.0,0.0,0.0,0.0,0.0,0.0,0.0,0.0,0.0,0.0,0.0,0.0,0.0,0.0,0.0,0.0,0.0,0.0,0.0,0.0,0.0,0.0,0.0,0.0,0.0,0.0,0.0,0.0,0.0,0.0,0.0,0.0,0.0,0.0,0.0,0.0,0.0,0.0,0.0,0.0,0.0,0.0,0.0,0.0,0.0,0.0,0.0,0.0,0.0,0.0,0.0,0.0,0.0,0.0,0.0,0.0,0.0,0.0,0.0,0.0,0.0,0.0,0.0,0.0,0.0,0.0,0.0,0.0,1.3456,1.4814,1.7801,1.9316,1.8301,1.8223,1.7252,1.5019,0.0,0.0,0.0,0.0,0.0,0.0,0.0,0.0,0.0,0.0,0.0,0.0,0.0,0.0,0.0,0.0,0.0,0.0,0.0,0.0,0.0,0.0,0.0,0.0,0.0,0.0,0.0,0.0,0.0,0.0,0.0,0.0,0.0,0.0,0.0,0.0,0.0,0.0,0.0,0.0,0.0,0.0,0.0,0.0,0.0,0.0,0.0,0.0,0.0,0.0,0.0,0.0,0.0,0.0,0.0,0.0,0.0,0.0,0.0,0.0,0.0,0.0,0.0,0.0,0.0,0.0,0.0,0.0,0.0,0.0,0.0,0.0,0.0,0.0,0.0,0.0,0.0,0.0,0.0,0.0,0.0,0.0,0.0,0.0,0.0,0.0,0.0,0.0,0.0,0.0,0.0,0.0,0.0,0.0,0.0,0.0,0.0,0.0,0.0,0.0,0.0,0.0,0.0,0.0,1.4184,1.7147,1.827,1.887,1.9082,1.7513,1.6133,1.5371,0.0,0.0,0.0,0.0,0.0,0.0,0.0,0.0,0.0,0.0,0.0,0.0,0.0,0.0,0.0,0.0,0.0,0.0,0.0,0.0,0.0,0.0,0.0,0.0,0.0,0.0,0.0,0.0,0.0,0.0,0.0,0.0,0.0,0.0,0.0,0.0,0.0,0.0,0.0,0.0,0.0,0.0,0.0,0.0,0.0,0.0,0.0,0.0,0.0,0.0,0.0,0.0,0.0,0.0,0.0,0.0,0.0,0.0,0.0,0.0,0.0,0.0,0.0,0.0,0.0,0.0,0.0,0.0,0.0,0.0,0.0,0.0,0.0,0.0,0.0,0.0,0.0,0.0,0.0,0.0,0.0,0.0,0.0,0.0,0.0,0.0,0.0,0.0,0.0,0.0,0.0,0.0,0.0,0.0,0.0,0.0,0.0,0.0,0.0,0.0,0.0,0.0,0.0,1.3205,1.4996,1.6693,1.8123,1.8887,1.8613,1.7063,1.5909,1.5449,1.4375,0.0,0.0,0.0,0.0,0.0,0.0,0.0,0.0,0.0,0.0,0.0,0.0,0.0,0.0,0.0,0.0,0.0,0.0,0.0,0.0,0.0,0.0,0.0,0.0,0.0,0.0,0.0,0.0,0.0,0.0,0.0,0.0,0.0,0.0,0.0,0.0,0.0,0.0,0.0,0.0,0.0,0.0,0.0,0.0,0.0,0.0,0.0,0.0,0.0,0.0,0.0,0.0,0.0,0.0,0.0,0.0,0.0,0.0,0.0,0.0,0.0,0.0,0.0,0.0,0.0,0.0,0.0,0.0,0.0,0.0,0.0,0.0,0.0,0.0,0.0,0.0,0.0,0.0,0.0,0.0,0.0,0.0,0.0,0.0,0.0,0.0,0.0,0.0,0.0,0.0,0.0,0.0,0.0,0.0,0.0,0.0,0.0,0.0,0.0,0.0,0.0,0.0,1.4194,1.5647,1.6462,1.8018,1.8711,1.8066,1.6476,1.5439,1.5273,1.36,0.0,0.0,0.0,0.0,0.0,0.0,0.0,0.0,0.0,0.0,0.0,0.0,0.0,0.0,0.0,0.0,0.0,0.0,0.0,0.0,0.0,0.0,0.0,0.0,0.0,0.0,0.0,0.0,0.0,0.0,0.0,0.0,0.0,0.0,0.0,0.0,0.0,0.0,0.0,0.0,0.0,0.0,0.0,0.0,0.0,0.0,0.0,0.0,0.0,0.0,0.0,0.0,0.0,0.0,0.0,0.0,0.0,0.0,0.0,0.0,0.0,0.0,0.0,0.0,0.0,0.0,0.0,0.0,0.0,0.0,0.0,0.0,0.0,0.0,0.0,0.0,0.0,0.0,0.0,0.0,0.0,0.0,0.0,0.0,0.0,0.0,0.0,0.0,0.0,0.0,0.0,0.0,0.0,0.0,0.0,0.0,0.0,0.0,0.0,0.0,0.0,0.0,1.4367,1.5976,1.8186,1.8212,1.8066,1.8008,1.5352,1.4004,1.4785,1.2856,0.0,0.0,0.0,0.0,0.0,0.0,0.0,0.0,0.0,0.0,0.0,0.0,0.0,0.0,0.0,0.0,0.0,0.0,0.0,0.0,0.0,0.0,0.0,0.0,0.0,0.0,0.0,0.0,0.0,0.0,0.0,0.0,0.0,0.0,0.0,0.0,0.0,0.0,0.0,0.0,0.0,0.0,0.0,0.0,0.0,0.0,0.0,0.0,0.0,0.0,0.0,0.0,0.0,0.0,0.0,0.0,0.0,0.0,0.0,0.0,0.0,0.0,0.0,0.0,0.0,0.0,0.0,0.0,0.0,0.0,0.0,0.0,0.0,0.0,0.0,0.0,0.0,0.0,0.0,0.0,0.0,0.0,0.0,0.0,0.0,0.0,0.0,0.0,0.0,0.0,0.0,0.0,0.0,0.0,0.0,0.0,0.0,0.0,0.0,0.0,0.0,0.0,1.4617,1.6432,0.0,1.7743,1.791,1.7637,1.5586,1.4434,1.4793,0.0,0.0,0.0,0.0,0.0,0.0,0.0,0.0,0.0,0.0,0.0,0.0,0.0,0.0,0.0,0.0,0.0,0.0,0.0,0.0,0.0,0.0,0.0,0.0,0.0,0.0,0.0,0.0,0.0,0.0,0.0,0.0,0.0,0.0,0.0,0.0,0.0,0.0,0.0,0.0,0.0,0.0,0.0,0.0,0.0,0.0,0.0,0.0,0.0,0.0,0.0,0.0,0.0,0.0,0.0,0.0,0.0,0.0,0.0,0.0,0.0,0.0,0.0,0.0,0.0,0.0,0.0,0.0,0.0,0.0,0.0,0.0,0.0,0.0,0.0,0.0,0.0,0.0,0.0,0.0,0.0,0.0,0.0,0.0,0.0,0.0,0.0,0.0,0.0,0.0,0.0,0.0,0.0,0.0,0.0,0.0,0.0,0.0,0.0,0.0,0.0,0.0,1.2633,1.4975,1.6679,0.0,1.7613,1.7734,1.7063,1.5146,1.4082,1.4355,0.0,0.0,0.0,0.0,0.0,0.0,0.0,0.0,0.0,0.0,0.0,0.0,0.0,0.0,0.0,0.0,0.0,0.0,0.0,0.0,0.0,0.0,0.0,0.0,0.0,0.0,0.0,0.0,0.0,0.0,0.0,0.0,0.0,0.0,0.0,0.0,0.0,0.0,0.0,0.0,0.0,0.0,0.0,0.0,0.0,0.0,0.0,0.0,0.0,0.0,0.0,0.0,0.0,0.0,0.0,0.0,0.0,0.0,0.0,0.0,0.0,0.0,0.0,0.0,0.0,0.0,0.0,0.0,0.0,0.0,0.0,0.0,0.0,0.0,0.0,0.0,0.0,0.0,0.0,0.0,0.0,0.0,0.0,0.0,0.0,0.0,0.0,0.0,0.0,0.0,0.0,0.0,0.0,0.0,0.0,0.0,0.0,0.0,0.0,0.0,0.0,0.0,1.408,1.5528,1.6749,1.7881,1.8008,1.748,1.6202,1.3711,1.2574,0.0,0.0,0.0,0.0,0.0,0.0,0.0,0.0,0.0,0.0,0.0,0.0,0.0,0.0,0.0,0.0,0.0,0.0,0.0,0.0,0.0,0.0,0.0,0.0,0.0,0.0,0.0,0.0,0.0,0.0,0.0,0.0,0.0,0.0,0.0,0.0,0.0,0.0,0.0,0.0,0.0,0.0,0.0,0.0,0.0,0.0,0.0,0.0,0.0,0.0,0.0,0.0,0.0,0.0,0.0,0.0,0.0,0.0,0.0,0.0,0.0,0.0,0.0,0.0,0.0,0.0,0.0,0.0,0.0,0.0,0.0,0.0,0.0,0.0,0.0,0.0,0.0,0.0,0.0,0.0,0.0,0.0,0.0,0.0,0.0,0.0,0.0,0.0,0.0,0.0,0.0,0.0,0.0,0.0,0.0,0.0,0.0,0.0,0.0,0.0,0.0,0.0,0.0,1.4205,1.6222,1.7615,1.7954,1.8008,1.748,1.6202,1.4258,1.3242,1.3496,0.0,0.0,0.0,0.0,0.0,0.0,0.0,0.0,0.0,0.0,0.0,0.0,0.0,0.0,0.0,0.0,0.0,0.0,0.0,0.0,0.0,0.0,0.0,0.0,0.0,0.0,0.0,0.0,0.0,0.0,0.0,0.0,0.0,0.0,0.0,0.0,0.0,0.0,0.0,0.0,0.0,0.0,0.0,0.0,0.0,0.0,0.0,0.0,0.0,0.0,0.0,0.0,0.0,0.0,0.0,0.0,0.0,0.0,0.0,0.0,0.0,0.0,0.0,0.0,0.0,0.0,0.0,0.0,0.0,0.0,0.0,0.0,0.0,0.0,0.0,0.0,0.0,0.0,0.0,0.0,0.0,0.0,0.0,0.0,0.0,0.0,0.0,0.0,0.0,0.0,0.0,0.0,0.0,0.0,0.0,0.0,0.0,0.0,0.0,0.0,0.0,0.0,1.4653,1.6523,1.7812,1.7988,1.7871,1.7227,1.5948,1.4394,1.3359,1.3003,0.0,0.0,0.0,0.0,0.0,0.0,0.0,0.0,0.0,0.0,0.0,0.0,0.0,0.0,0.0,0.0,0.0,0.0,0.0,0.0,0.0,0.0,0.0,0.0,0.0,0.0,0.0,0.0,0.0,0.0,0.0,0.0,0.0,0.0,0.0,0.0,0.0,0.0,0.0,0.0,0.0,0.0,0.0,0.0,0.0,0.0,0.0,0.0,0.0,0.0,0.0,0.0,0.0,0.0,0.0,0.0,0.0,0.0,0.0,0.0,0.0,0.0,0.0,0.0,0.0,0.0,0.0,0.0,0.0,0.0,0.0,0.0,0.0,0.0,0.0,0.0,0.0,0.0,0.0,0.0,0.0,0.0,0.0,0.0,0.0,0.0,0.0,0.0,0.0,0.0,0.0,0.0,0.0,0.0,0.0,0.0,0.0,0.0,0.0,0.0,0.0,0.0,1.5206,1.6562,1.7539,1.7969,1.7637,1.6855,1.5527,1.4238,1.3164,1.232,0.0,0.0,0.0,0.0,0.0,0.0,0.0,0.0,0.0,0.0,0.0,0.0,0.0,0.0,0.0,0.0,0.0,0.0,0.0,0.0,0.0,0.0,0.0,0.0,0.0,0.0,0.0,0.0,0.0,0.0,0.0,0.0,0.0,0.0,0.0,0.0,0.0,0.0,0.0,0.0,0.0,0.0,0.0,0.0,0.0,0.0,0.0,0.0,0.0,0.0,0.0,0.0,0.0,0.0,0.0,0.0,0.0,0.0,0.0,0.0,0.5103,0.5412,0.0,0.0,0.0,0.0,0.0,0.0,0.0,0.0,0.0,0.0,0.0,0.0,0.0,0.0,0.0,0.0,0.0,0.0,0.0,0.0,0.0,0.0,0.0,0.0,0.0,0.0,0.0,0.0,0.0,0.0,0.0,0.0,0.0,0.0,0.0,0.0,0.0,0.0,0.0,0.0,1.5264,1.6562,1.7539,1.7969,1.7637,1.6855,1.5527,1.4238,1.3281,1.2773,1.2398,0.0,0.0,0.0,0.0,0.0,0.0,0.0,0.0,0.0,0.0,0.0,0.0,0.0,0.0,0.0,0.0,0.0,0.0,0.0,0.0,0.0,0.0,0.0,0.0,0.0,0.0,0.0,0.0,0.0,0.0,0.0,0.0,0.0,0.0,0.0,0.0,0.0,0.0,0.0,0.0,0.0,0.0,0.0,0.0,0.0,0.0,0.0,0.0,0.0,0.0,0.0,0.0,0.0,0.0,0.0,0.0,0.0,0.0,0.0,0.5489,0.565,0.0,0.0,0.0,0.0,0.0,0.0,0.0,0.0,0.0,0.0,0.0,0.0,0.0,0.0,0.0,0.0,0.0,0.0,0.0,0.0,0.0,0.0,0.0,0.0,0.0,0.0,0.0,0.0,0.0,0.0,0.0,0.0,0.0,0.0,0.0,0.0,0.0,0.0,0.0,0.0,1.5556,1.6504,1.7305,1.7949,1.7441,1.6699,1.5801,1.4551,1.3535,1.2954,1.2676,0.0,0.0,0.0,0.0,0.0,0.0,0.0,0.0,0.0,0.0,0.0,0.0,0.0,0.0,0.0,0.0,0.0,0.0,0.0,0.0,0.0,0.0,0.0,0.0,0.0,0.0,0.0,0.0,0.0,0.0,0.0,0.0,0.0,0.0,0.0,0.0,0.0,0.0,0.0,0.0,0.0,0.0,0.0,0.0,0.0,0.0,0.0,0.0,0.0,0.0,0.0,0.0,0.0,0.6668,0.6689,0.6743,0.7182,0.7082,0.6538,0.5986,0.597,0.6314,0.6555,0.0,0.0,0.0,0.0,0.0,0.0,0.0,0.0,0.0,0.0,0.0,0.0,0.0,0.0,0.0,0.0,0.0,0.0,0.0,0.0,0.0,0.0,1.6122,1.6863,1.7096,1.6609,1.4707,0.0,0.0,0.0,0.0,0.0,0.0,0.0,0.0,0.0,0.0,0.0,1.5561,1.6247,1.6934,1.7896,1.7213,1.6543,1.6124,1.4883,1.3782,1.3047,1.2954,1.2715,0.0,0.0,0.0,0.0,0.0,0.0,0.0,0.0,0.0,0.0,0.0,0.0,0.0,0.0,0.0,0.0,0.0,0.0,0.0,0.0,0.0,0.0,0.0,0.0,0.0,0.0,0.0,0.0,0.0,0.0,0.0,0.0,-0.0116,0.0,0.0,0.0,0.0,0.0,0.0,0.0,0.0,0.0,0.0,0.0,0.0,0.0,0.0,0.1288,0.3518,0.4021,0.5364,0.7455,0.7828,0.7875,0.7631,0.7705,0.7698,0.759,0.7251,0.0,0.7405,0.7674,0.0,0.0,0.0,0.0,0.0,0.0,0.0,0.0,0.0,0.0,0.0,0.0,0.0,0.0,0.0,0.0,0.0,0.0,0.0,0.0,0.0,0.0,1.8208,1.8325,1.8672,1.8672,1.7637,1.6328,1.5059,1.4114,1.3201,1.2316,0.0,0.0,0.0,0.0,0.0,0.0,1.4476,1.5414,1.6526,1.7847,1.7213,1.6543,1.6124,1.4883,1.3899,1.3457,1.3086,1.2876,1.2793,1.2817,0.0,0.0,0.0,0.0,0.0,0.0,0.0,0.0,0.0,0.0,0.0,0.0,0.0,0.0,0.0,0.0,0.0,0.0,0.0,0.0,0.0,0.0,0.0,0.0,0.0,0.0,0.0,0.0,0.0,-0.068,0.0,0.0,0.0,0.0,0.0,0.0,0.0,0.0,0.0,0.0,0.0,0.0,0.0,0.0,0.0652,0.1542,0.2679,0.4542,0.6056,0.7091,0.8272,0.875,0.856,0.8479,0.8393,0.8431,0.8214,0.8133,0.8123,0.8114,0.9066,1.0519,0.0,0.0,0.0,0.0,1.206,1.2074,1.2449,1.2345,1.2108,1.2452,0.0,0.0,0.0,0.0,0.0,0.0,0.0,1.6861,1.7968,1.8965,1.9844,2.0352,2.0605,2.0644,2.0273,1.9004,1.7402,1.5566,1.4655,1.3785,1.248,1.1559,0.0,0.0,0.0,1.3678,1.5422,1.6466,1.7396,1.8251,1.7779,1.7135,1.6484,1.5254,1.4316,1.386,1.3242,1.2915,1.2915,1.2915,1.2993,0.0,0.0,0.0,0.0,0.0,0.0,0.0,0.0,0.0,0.0,0.0,0.0,0.0,0.0,0.0,0.0,0.0,0.0,0.0,0.0,0.0,0.0,0.0,0.0,0.0,0.0,0.0,0.0,-0.0349,0.0,0.0,0.0,0.0,0.0,0.0,0.0,0.0,0.0,0.0,0.0,0.0,0.0,0.0,0.0854,0.159,0.2071,0.4714,0.6318,0.6832,0.8506,0.933,0.9323,0.9157,0.9033,0.9042,0.8893,0.8757,0.8673,0.839,0.9325,1.0873,1.0909,1.1802,1.3159,1.3347,1.328,1.3226,1.3896,1.3895,1.3573,1.3427,1.3253,1.2945,1.1957,0.0,0.0,0.0,0.0,1.7287,1.9278,2.0118,2.0734,2.1909,2.2207,2.2168,2.207,2.1028,1.9335,1.6815,1.5767,1.48,1.3235,1.1873,0.0,1.1898,0.0,1.3705,1.5752,1.6851,1.7742,1.8523,1.8227,1.7715,1.6921,1.5703,1.4707,1.4133,1.3437,1.3013,1.2915,1.2915,1.2954,1.3047,0.0,0.0,0.0,0.0,0.0,0.0,0.0,0.0,0.0,0.0,0.0,0.0,0.0,0.0,0.0,0.0,0.0,0.0,0.0,0.0,0.0,0.0,0.0,0.0,0.0,0.0,0.0,0.0,0.0,0.0,0.0,0.0,0.0,0.0,0.0,0.0,0.0,0.0,0.0,0.0,0.0,0.0,0.006,0.079,0.2155,0.3888,0.5532,0.707,0.8807,0.9585,0.9585,0.9578,0.9496,0.9354,0.9255,0.918,0.914,0.8698,0.9496,1.1101,1.1136,1.2355,1.4028,1.4041,1.4028,1.4028,1.4068,1.3895,1.3733,1.4589,1.4512,1.3961,1.3573,1.3708,0.0,0.0,1.5412,1.6809,1.8899,1.9727,2.0528,2.2549,2.3042,2.2925,2.2559,2.1532,1.9937,1.7458,1.5756,1.4338,1.313,0.0,1.1747,1.1471,1.197,1.2835,1.4247,1.5268,1.6594,1.8421,1.8227,1.7832,1.7383,1.6133,1.5019,1.4153,1.3685,1.3301,1.2915,1.2915,1.3066,1.3477,1.3086,0.0,0.0,0.0,0.0,0.0,0.0,0.0,0.0,0.0,0.0,0.0,0.0,0.0,0.0,0.0,0.0,0.0,0.0,0.0,0.0,0.0,0.0,0.0,0.0,0.0,0.0,0.0,0.0,0.0,0.0,0.0,0.0,0.0,0.0,0.0,0.0,0.0,0.0,0.0,0.0,0.0,0.0,0.0257,0.0766,0.2522,0.4282,0.5997,0.7592,0.8907,1.0032,0.9836,0.9713,0.9652,0.951,0.9449,0.9453,0.9096,0.9716,1.0837,1.0541,1.1921,1.4107,1.4107,1.468,1.5544,1.5544,1.5418,1.5297,1.5089,1.4606,1.4068,1.3961,1.4116,1.4559,1.5639,1.6375,1.7286,1.9006,1.9577,1.9881,2.0604,2.0764,2.0729,2.0588,2.0007,1.9027,1.7423,1.618,1.5103,1.4445,1.3285,1.2502,1.2559,1.3098,1.4126,1.5745,1.6802,1.7839,1.8938,1.8926,1.8437,1.7461,1.6457,1.5469,1.4609,1.3887,1.332,1.2915,1.2915,1.2974,1.3105,1.2974,1.3223,0.0,0.0,0.0,0.0,0.0,0.0,0.0,0.0,0.0,0.0,0.0,0.0,0.0,0.0,0.0,0.0,0.0,0.0,0.0,0.0,0.0,0.0,0.0,0.0,0.0,0.0,0.0,0.0,0.0,0.0,0.0,0.0,0.0,0.0,0.0,0.0,0.0,0.0,0.0,0.0,0.0,0.0,0.0,0.2307,0.4013,0.5277,0.7341,0.898,1.012,0.9917,0.9822,0.9815,0.972,0.968,0.9659,0.9408,0.9723,1.0257,1.0217,1.1887,1.4251,1.4344,1.5283,1.6406,1.6348,1.6321,1.6214,1.5471,1.499,1.4669,1.4669,1.4803,1.5125,1.6159,1.6586,1.7064,1.8517,1.8902,1.8993,1.9405,1.9497,1.9497,1.9497,1.8953,1.8204,1.7523,1.6623,1.5797,1.5187,1.4117,1.3414,1.3627,1.385,1.4686,1.6589,1.7398,1.8199,1.917,1.9297,1.8769,1.7533,1.6868,1.5987,1.4648,1.418,1.3613,1.2935,1.3052,1.3086,1.3086,1.3086,1.3437,1.4114,0.0,0.0,0.0,0.0,0.0,0.0,0.0,0.0,0.0,0.0,0.0,0.0,0.0,0.0,0.0,0.0,0.0,0.0,0.0,0.0,0.0,0.0,0.0,0.0,0.0,0.0,0.0,0.0,0.0,0.0,0.0,0.0,0.0,0.0,0.0,0.0,0.0,0.0,0.0,0.0,0.0,0.0,0.3218,0.488,0.4926,0.8177,0.9768,0.9829,0.9822,0.9822,0.9822,0.9822,0.9822,0.9808,0.9673,0.953,0.9514,1.0311,1.2202,1.4452,1.4746,1.5614,1.6623,1.6393,1.6348,1.6246,1.5952,1.5811,1.5811,1.5811,1.5811,1.5811,1.5798,1.5798,1.6116,1.7326,1.7638,1.7963,1.9131,1.9405,1.9405,1.9405,1.8457,1.7638,1.7638,1.707,1.6227,1.5214,1.475,1.4549,1.4549,1.4055,0.0,1.6451,1.6884,1.7604,1.9172,1.9336,1.8809,1.7539,1.7455,1.6465,1.427,1.4531,1.4226,1.2974,1.3281,1.3496,1.3516,1.3516,1.373,1.416,0.0,0.0,0.0,0.0,0.0,0.0,0.0,0.0,0.0,0.0,0.0,0.0,0.0,0.0,0.0,0.0,0.0,0.0,0.0,0.0,0.0,0.0,0.0,0.0,0.0,0.0,0.0,0.0,0.0,0.0,0.0,0.0,0.0,0.0,0.0,0.0,0.0,0.0,0.0,0.0,0.0,0.0,0.219,0.3876,0.5094,0.7199,0.8824,0.9923,0.9869,0.9822,0.9822,0.9822,0.9822,0.9815,0.9781,0.968,0.9569,0.9617,1.0651,1.2164,1.2189,1.3562,1.5599,1.6623,1.6767,1.6567,1.6486,1.646,1.646,1.646,1.646,1.642,1.6206,1.6152,1.6195,1.6299,1.6339,1.6433,1.6749,1.6842,1.6842,1.6842,1.656,1.6339,1.6339,1.6154,1.5951,1.5638,1.5351,1.515,1.515,1.5599,1.6317,1.7367,1.8301,1.9225,2.0139,2.0253,1.9687,1.8364,1.8008,1.6914,1.4746,1.4414,1.3997,1.3359,1.3145,1.3203,1.3496,1.3782,1.4427,0.0,0.0,0.0,0.0,0.0,0.0,0.0,0.0,0.0,0.0,0.0,0.0,0.0,0.0,0.0,0.0,0.0,0.0,0.0,0.0,0.0,0.0,0.0,0.0,0.0,0.0,0.0,0.0,0.0,0.0,0.0,0.0,0.0,0.0,0.0,0.0,0.0,0.0,0.0,0.0,0.0,0.0,0.0,0.2462,0.4158,0.5134,0.7493,0.9117,0.9984,0.9896,0.9883,0.9822,0.989,0.9883,0.9822,0.9822,0.9741,0.9591,0.0,0.0,0.0,0.0,1.3054,1.4531,1.5848,1.6138,1.6088,1.6539,1.67,1.67,1.67,1.67,1.6673,1.65,1.6366,1.6281,1.6059,1.5925,1.5784,1.5784,1.5784,1.5784,1.5784,1.5784,1.5784,1.5784,1.5784,0.0,1.5784,1.5591,1.5431,1.5565,1.584,1.6491,1.7803,1.8481,1.9196,2.0198,2.0293,1.9766,1.8442,1.811,0.0,0.0,0.0,1.4445,1.4062,1.3809,0.0,0.0,0.0,1.473,1.5437,1.5246,0.0,0.0,1.5352,1.5547,0.0,0.0,0.0,0.0,0.0,0.0,0.0,0.0,0.0,0.0,0.0,0.0,0.0,0.0,0.0,0.0,0.0,0.0,0.0,0.0,0.0,0.0,0.0,0.0,0.0,0.0,0.0,0.0,0.0,0.0,0.0,0.0,0.0,0.0,0.0,0.0,0.0,0.3424,0.5092,0.5148,0.8443,1.0031,1.0011,1.0011,0.9936,0.9883,0.9957,0.9923,0.9849,0.9849,0.9761,0.9632,0.9618,1.0266,1.1405,1.2758,1.3351,1.3658,1.4718,0.0,0.0,1.6469,1.6807,1.6807,1.6847,1.6834,1.6807,1.6807,1.6593,1.6402,1.6335,1.6099,1.5878,1.5838,1.5899,1.5878,1.5878,1.5899,1.5885,1.5885,1.5845,1.5784,1.5784,1.5618,1.5538,1.5744,1.5621,1.6181,1.8056,1.8261,1.8725,1.9985,2.0098,0.0,1.832,1.8184,1.7402,1.5664,1.5439,1.5254,1.4863,1.4891,1.4883,1.495,1.495,1.4989,1.5,1.5,1.5215,1.5644,1.5968,1.6269,0.0,0.0,0.0,0.0,0.0,0.0,0.0,0.0,0.0,0.0,0.0,0.0,0.0,0.0,0.0,0.0,0.0,0.0,0.0,0.0,0.0,0.0,0.0,0.0,0.0,0.0,0.0,0.0,0.0,0.0,0.0,0.0,0.0,0.0,0.0,0.0,0.0,0.3541,0.5235,0.5161,0.8722,0.0,1.0236,1.0236,1.0222,1.0195,1.0222,1.0148,0.9943,0.9943,0.9856,0.9768,0.9652,0.9686,0.9946,1.1388,1.258,1.3678,1.4911,1.6094,1.7108,1.7369,1.7408,1.7462,1.7662,1.7609,0.0,1.7408,1.7208,1.6924,1.6442,1.6406,1.6473,1.6246,1.6366,1.654,1.654,1.6353,1.6192,1.6192,1.5992,1.5784,1.5784,1.5778,1.5718,1.5771,1.7426,1.8643,1.8665,2.0103,2.1228,2.1483,2.1191,2.0547,1.9629,1.9238,1.8301,1.6551,1.5771,1.5371,1.5293,1.5293,1.5449,1.5831,1.585,1.6026,1.6317,1.6317,1.6582,1.6992,1.6378,1.6144,0.0,0.0,0.0,0.0,0.0,0.0,0.0,0.0,0.0,0.0,0.0,-0.0509,0.0,0.0,0.0,0.0,0.0,0.0,0.0,0.0,0.0,0.0,0.0,0.0,0.0,0.0,0.0,0.0,0.0,0.0,0.0,0.0,0.0,0.0,0.0,0.0,0.0,0.3622,0.5345,0.5304,0.8813,1.0453,1.0385,1.0385,1.0344,1.0283,1.0358,1.0304,1.0161,1.0017,0.9896,0.9815,0.9741,0.9666,0.9651,1.0332,1.0999,1.1862,1.3947,1.5142,1.5975,1.7536,1.8036,1.8036,1.7995,1.7889,1.7782,1.7622,1.7261,1.6901,1.6804,1.6486,1.6299,1.6446,1.6486,1.6526,1.6673,1.6473,1.6321,1.6321,1.6032,1.5784,1.5784,1.5784,1.5784,1.5784,1.7404,1.8637,1.8779,2.0242,2.1366,2.152,2.1327,2.0839,1.998,1.9336,1.832,1.6804,1.6523,1.6309,1.6044,1.6044,1.6172,1.6387,1.6406,1.6504,1.6707,1.6707,1.6804,1.7051,1.7051,1.7031,0.0,0.0,0.0,0.0,0.0,0.0,0.0,0.0,-0.0846,-0.0171,0.0,0.0,0.0,0.0,0.0,0.0,0.0,0.0,0.0,0.0,0.0,0.0,0.0,0.0,0.0,0.0,0.0,0.0,0.0,0.0,0.0,0.0,0.0,0.0,0.0,0.0,0.0,0.3622,0.5429,0.5429,0.887,1.0534,1.0534,1.0534,1.0473,1.0371,1.0453,1.0426,1.031,1.0154,1.0019,0.991,0.9876,0.9863,0.9842,0.9673,0.9783,1.0347,1.2639,1.3818,1.4724,1.7229,1.8255,1.845,1.821,1.8035,1.7942,1.7742,1.7288,1.6901,1.7085,1.662,1.6259,1.662,1.6607,1.6593,1.682,1.6647,1.6482,1.6366,1.6112,1.5899,1.5798,1.5784,1.5784,1.5784,1.6904,1.7903,1.8518,1.9621,2.0429,2.0705,2.0824,2.0583,1.9943,1.9241,1.8344,1.7135,1.7441,1.7441,1.696,1.7038,1.7077,1.7077,1.7155,1.7194,1.7194,1.7194,1.7194,1.7213,1.793,1.8164,-0.6776,-0.6856,-0.6448,-0.4215,-0.3696,-0.3158,0.0,0.0,-0.0126,0.0,0.0,0.0,0.0,0.0,0.0,0.0,0.0,0.0,0.0,0.0,0.0,0.0,0.0,0.0,0.0,0.0,0.0,0.0,0.0,0.0,0.0,0.0,0.0,0.0,0.0,0.0,0.0,0.3622,0.5429,0.5429,0.8961,1.0697,1.0697,1.0697,1.0683,1.0663,1.0548,1.048,1.046,1.031,1.0243,1.0215,1.008,0.9963,0.993,0.9713,1.0428,1.1569,1.1718,1.3581,1.5918,1.6254,1.734,1.8477,1.845,1.8263,1.7982,1.7955,1.7756,1.7368,1.6887,1.7074,1.7275,1.682,1.7074,1.7448,1.7475,1.7313,1.7018,1.67,1.642,1.6139,1.5872,1.5784,1.5784,1.5784,1.6904,1.7716,1.7825,1.8536,1.9051,1.9161,1.9404,1.9669,1.9867,1.9824,1.9358,1.8442,1.8442,1.8266,1.7891,1.8188,1.8383,1.8383,1.8809,1.9004,1.9004,1.9004,1.9004,1.9004,1.9102,1.873,-0.6882,-0.6653,0.0,0.0,-0.3371,-0.2764,-0.1466,-0.0544,0.0,0.0,0.0,0.0,0.0,0.0,0.0,0.0,0.0,0.0,0.0,0.0,0.0,0.0,0.0,0.0,0.0,0.0,0.0,0.0,0.0,0.0,0.0,0.0,0.0,0.0,0.0,0.0,0.0,0.3622,0.5429,0.5429,0.8972,1.0717,1.0717,1.0717,1.0717,1.0717,1.0649,1.0575,1.0487,1.0426,1.0304,1.0141,1.0011,0.993,0.9842,0.9781,1.0088,1.0786,1.1592,1.2736,1.4141,1.5999,1.6951,1.7522,1.845,1.841,1.7995,1.7995,1.7702,1.7367,1.7235,1.7141,1.7048,1.6981,1.7206,1.738,1.738,1.7286,1.7112,1.6767,1.6473,1.6179,1.5885,1.5784,1.5784,1.5784,1.6904,1.7684,1.7684,1.8591,1.9407,1.9912,1.9625,1.9641,2.0255,2.0293,1.9922,1.9062,1.9238,1.9199,1.8769,1.8926,1.9023,1.9023,1.9199,1.9297,1.9297,1.9297,1.9297,1.9297,1.9531,1.9453,-0.66,0.0,0.0,-0.3866,-0.3007,-0.2389,-0.1601,-0.0714,0.0,0.0,0.0,0.0,0.0,0.0,0.0,0.0,0.0,0.0,0.0,0.0,0.0,0.0,0.0,0.0,0.0,0.0,0.0,0.0,0.0,0.0,0.0,0.0,0.0,0.0,0.0,0.0,0.0,0.3094,0.4894,0.5429,0.8507,1.0246,1.0717,1.0717,1.0717,1.0717,1.0677,1.0595,1.0487,1.0453,1.0304,1.0107,1.0004,0.9916,0.9876,0.9836,0.9822,0.9943,1.114,1.1856,1.2569,1.4945,1.5795,1.6218,1.7667,1.7815,1.7469,1.7781,1.7609,1.7353,1.7487,1.7208,1.6981,1.7166,1.7259,1.7326,1.7326,1.7326,1.7206,1.678,1.654,1.6273,1.5851,1.5784,1.5784,1.5784,1.6574,1.7185,1.7185,1.7948,1.8894,2.0105,1.9501,1.9552,2.0663,2.0683,2.0292,1.9512,1.9863,1.9844,1.9316,1.9512,1.959,1.9473,1.957,1.9648,1.9648,1.9648,1.9648,1.9686,1.9941,2.0098,-0.5985,0.0,-0.4148,-0.2498,-0.2121,-0.1849,-0.0379,0.0,0.0,0.0,0.0,0.0,0.0,0.0,0.0,0.0,0.0,0.0,0.0,0.0,0.0,0.0,0.0,0.0,0.0,0.0,0.0,0.0,0.0,0.0,0.0,0.0,0.0,0.0,0.0,0.0,0.0,0.1827,0.3689,0.5429,0.7231,0.8972,1.0717,1.0717,1.0717,1.0711,1.0561,1.0493,1.048,1.0344,1.0283,1.0256,1.0107,0.9984,0.9963,0.9876,0.9822,0.9822,0.9883,1.0899,1.2217,1.2337,1.3327,1.4688,1.5829,1.6077,1.6199,1.7291,1.7582,1.7502,1.7286,1.7407,1.7488,1.7259,1.742,1.7569,1.7569,1.7569,1.7395,1.682,1.67,1.6513,1.5878,1.5784,1.5784,1.5784,1.5832,1.5879,1.5879,1.5879,1.6682,1.8734,1.8534,1.9024,2.0989,2.082,2.0371,1.9922,2.0312,2.0214,1.9316,2.0116,2.037,1.9902,2.0312,2.0566,2.0566,2.0566,2.0566,2.0566,2.0586,2.0586,-0.5267,0.0,-0.2495,-0.1066,-0.0738,-0.0611,-0.0079,0.0,0.0,0.0,0.0,0.0,0.0,0.0,0.0,0.0,0.0,0.0,0.0,0.0,0.0,0.0,0.0,0.0,0.0,0.0,0.0,0.0,0.0,0.0,0.0,0.0,0.0,0.0,0.0,0.0,0.0,0.2974,0.4827,0.5429,0.8374,1.0114,1.0717,1.0717,1.0717,1.0717,1.0663,1.0643,1.0629,1.048,1.0365,1.0263,1.0107,0.9923,0.989,0.9842,0.9822,0.9822,0.9822,1.0179,1.0778,1.1856,1.2447,1.315,1.5612,1.6095,1.6072,1.7473,1.7742,1.7555,1.7514,1.7515,1.7515,1.7273,1.742,1.7528,1.7393,1.7448,1.7462,1.7125,1.6847,1.6647,1.6446,1.6086,1.5784,1.5784,1.5784,1.5784,1.5784,1.5784,1.6391,1.7934,1.7703,1.8017,1.9514,1.9774,1.9743,1.9595,2.0234,2.0468,2.0175,2.0449,2.0527,2.039,2.0527,2.0605,2.0605,2.0605,2.0605,2.0605,2.0605,2.0723,-0.4037,-0.2539,-0.1092,-0.0228,0.0,0.0,0.0,0.0,0.0,0.0,0.0,0.0,0.0,0.0,0.0,0.0,0.0,0.0,0.0,0.0,0.0,0.0,0.0,0.0,0.0,0.0,0.0,0.0,0.0,0.0,0.0,0.0,0.0,0.0,0.0,0.0281,0.0968,0.3269,0.5053,0.6364,0.931,1.0717,1.0717,1.0717,1.0717,1.0717,1.0663,1.0609,1.0548,1.0399,1.0249,1.0107,1.0005,0.9849,0.9822,0.9822,0.9822,0.9822,0.9822,0.9822,0.9943,1.102,1.1204,1.1593,1.4719,1.4969,1.47,1.729,1.746,1.7011,1.7503,1.7582,1.7542,1.7393,1.7448,1.7528,1.7393,1.7501,1.7502,1.7259,1.6914,1.67,1.67,1.6393,1.6112,1.6005,1.5992,1.5952,1.5798,1.5784,1.6292,1.7544,1.7279,1.7522,1.8791,1.9349,1.9608,1.9608,2.051,2.0997,2.082,2.0801,2.0762,2.0605,2.0605,2.0683,2.0801,2.0801,2.0879,2.1075,2.1075,2.1191,-0.2487,-0.1025,0.0,0.0,0.0,0.0,0.0,0.0,0.0,0.0,0.0,0.0,0.0,0.0,0.0,0.0,0.0,0.0,0.0,0.0,0.0,0.0,0.0,0.0,0.0,0.0,0.0,0.0,0.0,0.0,0.0,0.0,0.0,0.0,0.0,0.0853,0.2523,0.2624,0.4487,0.8041,0.9715,1.0585,1.0717,1.0717,1.0717,1.0711,1.0561,1.0419,1.0276,1.0114,0.9903,0.9829,0.9822,0.9822,0.9822,0.9822,0.9822,0.9822,0.9822,0.9822,0.9822,0.9822,0.9727,1.0132,1.315,1.2894,1.2406,1.6673,1.6817,1.5982,1.7278,1.7582,1.7582,1.7582,1.7582,1.7582,1.7582,1.7582,1.7502,1.7273,1.6941,1.674,1.6687,1.6727,1.6633,1.6299,1.6273,1.6179,1.5824,1.5784,1.6244,1.7451,1.7202,1.7417,1.8629,1.948,1.9936,1.9936,2.1191,2.1699,2.1249,2.1229,2.1074,2.0683,2.0664,2.084,2.1229,2.1229,2.1444,2.1894,2.1894,2.1894,-0.2253,-0.1114,0.0,0.0,0.0,0.0,0.0,0.0,0.0,0.0,0.0,0.0,0.0,0.0,0.0,0.0,0.0,0.0,0.0,0.0,0.0,0.0,0.0,0.0,0.0,0.0,0.0,0.0,0.0,0.0,0.0,0.0,0.0,0.0,0.0,0.0214,0.0712,0.2013,0.451,0.8018,0.8478,0.9371,1.0717,1.0717,1.0717,1.0711,1.0561,1.0473,1.0419,1.0092,0.9963,0.9916,0.9863,0.9822,0.9822,0.9822,0.9822,0.9822,0.9822,0.9822,0.9822,0.9822,0.9727,0.9961,1.182,1.1977,1.2179,1.5386,1.5986,1.5982,1.7278,1.7582,1.7582,1.7582,1.7582,1.7582,1.7582,1.7582,1.7555,1.7488,1.7408,1.7154,1.65,1.6927,1.7034,1.6086,1.6313,1.6406,1.5851,1.5784,1.5927,1.6244,1.6176,1.6261,1.6542,1.8124,1.9111,1.9111,2.0879,2.1836,2.1719,2.1719,2.166,2.1543,2.1584,2.1602,2.1719,2.1719,2.1777,2.1894,2.1894,2.2051,-0.136,-0.0671,0.0,0.0,0.0,0.0,0.0,0.0,0.0,0.0,0.0,0.0,0.0,0.0,0.0,0.0,0.0,0.0,0.0,0.0,0.0,0.0,0.0,0.0,0.0,0.0,0.0,0.0,0.0,0.0,0.0,0.0,0.0,0.0,0.0,0.036,0.1144,0.3748,0.6017,0.7995,0.8828,0.9709,1.0717,1.0717,1.0717,1.0717,1.0629,1.0555,1.0473,1.0243,1.0051,0.997,0.9883,0.9822,0.9822,0.9822,0.9822,0.9822,0.9822,0.9822,0.9822,0.9822,0.9768,1.0,1.153,1.1398,1.1336,1.4236,1.5019,1.5356,1.6599,1.7484,1.7943,1.7809,1.7782,1.7756,1.7609,1.7582,1.7542,1.7474,1.7502,1.7382,1.6817,1.7219,1.7315,1.6526,1.658,1.654,1.6086,1.5912,1.5784,1.5784,1.5784,1.5784,1.5784,1.7366,1.8523,1.9048,2.0692,2.1816,2.2168,2.2168,2.207,2.1894,2.1894,2.1973,2.2168,2.2168,2.2246,2.2441,2.2441,2.2559,-0.0336,0.0,0.0,0.0,0.0,0.0,0.0,0.0,0.0,0.0,0.0,0.0,0.0,0.0,0.0,0.0,0.0,0.0,0.0,0.0,0.0,0.0,0.0,0.0,0.0,0.0,0.0,0.0,0.0,0.0,0.0,0.0,0.0,0.0,0.0,0.0869,0.2713,0.5764,0.7533,0.7995,0.957,1.0452,1.0717,1.0717,1.0717,1.0717,1.0697,1.0616,1.048,1.0337,1.0202,1.0004,0.993,0.9883,0.9883,0.9883,0.9869,0.9849,0.9849,0.9836,0.9822,0.9822,0.9808,1.0037,1.1426,1.0884,1.0364,1.3088,1.4023,1.4494,1.575,1.7284,1.8424,1.8115,1.8049,1.7982,1.7769,1.7675,1.7569,1.7367,1.7487,1.7488,1.7246,1.7447,1.7475,1.7192,1.6901,1.666,1.6366,1.6032,1.5784,1.5784,1.5784,1.5784,1.5784,1.7124,1.8365,1.9451,2.0809,2.1838,2.2555,2.2598,2.2422,2.2051,2.2051,2.2227,2.2598,2.2598,2.2773,2.3101,2.3101,2.3101,-0.0087,0.0,0.0,0.0,0.0,0.0,0.0,0.0,0.0,0.0,0.0,0.0,0.0,0.0,0.0,0.0,0.0,0.0,0.0,0.0,0.0,0.0,0.0,0.0,0.0,0.0,0.0,0.0,0.0,0.0,0.0,0.0,0.0,0.0,0.0,0.0869,0.2713,0.3301,0.5118,0.7995,0.8287,0.9238,1.0717,1.0717,1.0717,1.0711,1.0588,1.0514,1.048,1.0337,1.0263,1.0236,1.0209,1.0202,1.0202,1.0202,1.012,0.995,0.995,0.9862,0.9822,0.9822,0.9741,0.9726,1.0084,0.9914,0.9989,1.1711,1.315,1.4426,1.575,1.7284,1.8477,1.8424,1.841,1.8397,1.8343,1.8143,1.7902,1.7849,1.7729,1.7488,1.7246,1.7447,1.7395,1.686,1.6954,1.7018,1.6673,1.6166,1.5784,1.5784,1.5784,1.5784,1.5784,1.7902,1.9268,1.9497,2.1587,2.2824,2.2984,2.2984,2.2945,2.2886,2.2886,2.2906,2.2984,2.2984,2.3023,2.3101,2.3101,2.3101,0.0,0.0,0.0,0.0,0.0,0.0,0.0,0.0,0.0,0.0,0.0,0.0,0.0,0.0,0.0,0.0,0.0,0.0,0.0,0.0,0.0,0.0,0.0,0.0,0.0,0.0,0.0,0.0,0.0,0.0,0.0,0.0,0.0,0.0,0.0,0.0864,0.2713,0.3636,0.544,0.7995,0.8962,0.9842,1.0717,1.0717,1.0717,1.0717,1.0643,1.0609,1.0602,1.0453,1.0392,1.0385,1.031,1.0283,1.0283,1.0283,1.0236,1.0154,1.0017,0.9936,0.9862,0.9849,0.9774,0.9734,0.9802,0.9774,0.9834,1.0546,1.2489,1.4524,1.5177,1.7126,1.8905,1.8758,1.8597,1.849,1.849,1.8384,1.8277,1.8277,1.8156,1.7969,1.7662,1.7729,1.7675,1.7221,1.7206,1.7152,1.7005,1.6553,1.6286,1.6286,1.6152,1.6059,1.6059,1.6975,1.7855,1.8503,2.0223,2.1498,2.212,2.2775,2.3101,2.3101,2.3101,2.3101,2.3101,2.3101,2.3101,2.3101,2.3101,2.3101,0.0,0.0,0.0,0.0,0.0,0.0,0.0,0.0,0.0,0.0,0.0,0.0,0.0,0.0,0.0,0.0,0.0,0.0,0.0,0.0,0.0,0.0,0.0,0.0,0.0,0.0,0.0,0.0,0.0,0.0,0.0,0.0,0.0,0.0,0.0,0.1069,0.3252,0.4707,0.6489,0.8574,1.0031,1.0717,1.0717,1.0717,1.0717,1.0717,1.0717,1.0717,1.0711,1.0588,1.0541,1.0527,1.0419,1.0378,1.0378,1.0378,1.0351,1.0304,1.0154,1.0017,0.9963,0.9869,0.9822,0.9822,0.9822,0.9822,0.9822,0.9822,1.1856,1.4063,1.4063,1.6444,1.8887,1.9021,1.8838,1.8677,1.8677,1.8624,1.8584,1.8584,1.8531,1.8424,1.8129,1.8089,1.7982,1.7729,1.7488,1.7367,1.73,1.7034,1.6887,1.6887,1.658,1.6366,1.6366,1.6326,1.68,1.8116,1.9271,2.0432,2.1658,2.258,2.3101,2.3101,2.3101,2.3101,2.3101,2.3101,2.3101,2.3101,2.3101,2.3101,0.0,0.0,0.0,0.0,0.0,0.0,0.0,0.0,0.0,0.0,0.0,0.0,0.0,0.0,0.0,0.0,0.0,0.0,0.0,0.0,0.0,0.0,0.0,0.0,0.0,0.0,0.0,0.0,0.0,0.0,0.0,0.0,0.0,0.0,0.0,0.1624,0.5149,0.5345,0.7071,1.0472,1.0591,1.0717,1.0717,1.0717,1.0717,1.0717,1.0717,1.0717,1.0717,1.0704,1.0697,1.0697,1.0683,1.0677,1.0677,1.0677,1.0595,1.0453,1.031,1.0168,0.9963,0.9869,0.9822,0.9822,0.9822,0.9822,0.9822,0.9822,1.108,1.2389,1.2389,1.4826,1.756,1.9029,1.9363,1.935,1.935,1.9078,1.8878,1.8878,1.8677,1.8477,1.845,1.845,1.8343,1.7995,1.7929,1.7862,1.7582,1.7515,1.7502,1.7502,1.7007,1.666,1.666,1.7406,1.8404,1.9601,2.0577,2.1658,2.2862,2.3057,2.3101,2.3101,2.3101,2.3101,2.3101,2.3101,2.3101,2.3101,2.3101,2.3101,0.0,0.0,0.0,0.0,0.0,0.0,0.0,0.0,0.0,0.0,0.0,0.0,0.0,0.0,0.0,0.0,0.0,0.0,0.0,0.0,0.0,0.0,0.0,0.0,0.0,0.0,0.0,0.0,0.0,0.0,0.0,0.0,0.0,0.0,0.0,0.1189,0.3766,0.4888,0.6669,0.9105,1.018,1.0717,1.0717,1.0717,1.0717,1.0717,1.0717,1.0717,1.0717,1.0717,1.0717,1.0717,1.0717,1.0717,1.0717,1.0717,1.0683,1.0609,1.046,1.031,1.0181,1.012,0.9971,0.9822,0.9822,0.9822,0.9822,0.9822,1.0959,1.2217,1.2217,1.4589,1.7149,1.7806,1.8706,1.943,1.943,1.9279,1.9185,1.9185,1.9092,1.8958,1.8784,1.8744,1.8651,1.8357,1.8317,1.8263,1.8143,1.813,1.8063,1.7876,1.7328,1.7018,1.7018,1.7136,1.7828,1.9124,2.027,2.145,2.275,2.3499,2.3861,2.3861,2.3861,2.3744,2.3535,2.3535,2.3398,2.3101,2.3101,2.3101,-0.0078,0.0,0.0,0.0,0.0,0.0,0.0,0.0,0.0,0.0,0.0,0.0,0.0,0.0,0.0,0.0,0.0,0.0,0.0,0.0,0.0,0.0,0.0,0.0,0.0,0.0,0.0,0.0,0.0,0.0,0.0,0.0,0.0,0.0,0.0,0.0903,0.2658,0.4515,0.6297,0.803,0.9842,1.0717,1.0717,1.0717,1.0717,1.0717,1.0717,1.0717,1.0717,1.0717,1.0717,1.0717,1.0717,1.0717,1.0717,1.0717,1.0717,1.0697,1.0548,1.0426,1.0337,1.0297,1.0134,0.9958,0.9958,0.9924,0.989,0.989,1.0706,1.1776,1.2195,1.442,1.6589,1.7078,1.8404,1.9492,1.9492,1.9484,1.943,1.943,1.943,1.9305,1.9092,1.9052,1.8958,1.8664,1.8624,1.8584,1.8504,1.849,1.841,1.8142,1.7796,1.7527,1.734,1.7007,1.7574,1.9269,2.0152,2.1336,2.3074,2.3951,2.4414,2.4414,2.4414,2.4277,2.3984,2.3984,2.3828,2.3471,2.3471,2.3471,-0.0283,0.0,0.0,0.0,0.0,0.0,0.0,0.0,0.0,0.0,0.0,0.0,0.0,0.0,0.0,0.0,0.0,0.0,0.0,0.0,0.0,0.0,0.0,0.0,0.0,0.0,0.0,0.0,0.0,0.0,0.0,0.0,0.0,0.0,0.0,0.0899,0.2687,0.4492,0.6297,0.803,0.9842,1.0717,1.0717,1.0717,1.0717,1.0717,1.0717,1.0717,1.0717,1.0717,1.0717,1.0717,1.0717,1.0717,1.0717,1.0717,1.0717,1.0697,1.0548,1.0487,1.0466,1.0324,1.0276,1.0276,1.0276,1.0168,0.9984,0.9984,1.0154,1.0714,1.2264,1.4001,1.568,1.7234,1.8711,1.98,1.98,1.9573,1.943,1.943,1.943,1.943,1.9417,1.9359,1.9265,1.8958,1.8918,1.8811,1.8531,1.849,1.849,1.849,1.8477,1.8237,1.7635,1.7367,1.8289,2.0801,2.0768,2.1717,2.4275,2.4368,2.4414,2.4414,2.4414,2.4414,2.4414,2.4414,2.4414,2.4414,2.4414,2.4414,-0.0978,-0.0573,0.0,0.0,0.0,0.0,0.0,0.0,0.0,0.0,0.0,0.0,0.0,0.0,0.0,0.0,0.0,0.0,0.0,0.0,0.0,0.0,0.0,0.0,0.0,0.0,0.0,0.0,0.0,0.0,0.0,0.0,0.0,0.0,0.0,0.0278,0.0819,0.2632,0.4426,0.6231,0.8035,0.951,1.0717,1.0717,1.0717,1.0717,1.0717,1.0717,1.0717,1.0717,1.0717,1.0717,1.0717,1.0717,1.0717,1.0717,1.0717,1.0711,1.0663,1.0582,1.05,1.0561,1.0446,1.0297,1.0392,1.0324,1.0209,1.0209,1.0243,1.0404,1.0904,1.3143,1.5432,1.5938,1.8106,2.004,1.984,1.9733,1.9599,1.947,1.943,1.943,1.943,1.943,1.9332,1.9239,1.9225,1.9199,1.9162,1.9149,1.9011,1.8811,1.8784,1.8624,1.8237,1.8116,1.9259,2.196,2.1839,2.287,2.5664,2.5469,2.5265,2.5265,2.5265,2.5176,2.4863,2.4863,2.4707,2.4414,2.4414,2.4414,0.0,-0.0499,0.0,0.0,0.0,0.0,0.0,0.0,0.0,0.0,0.0,0.0,0.0,0.0,0.0,0.0,0.0,0.0,0.0,0.0,0.0,0.0,0.0,0.0,0.0,0.0,0.0,0.0,0.0,0.0,0.0,0.0,0.0,0.0,0.0,0.0,0.0,0.1827,0.3622,0.5429,0.7165,0.8972,1.0717,1.0717,1.0717,1.0717,1.0717,1.0717,0.0,1.0717,1.0717,1.0717,1.0717,1.0717,1.0717,1.0717,1.0717,1.0717,1.0717,1.0656,1.0595,1.069,1.0595,1.0466,1.0555,1.0473,1.0371,1.0432,1.0446,1.0446,1.0446,1.2978,1.5499,1.5499,1.8022,2.0347,2.0174,1.996,1.9746,1.9559,1.9533,1.9492,1.9444,1.9452,1.9492,1.9444,1.943,1.943,1.943,1.943,1.9292,1.9118,1.9092,1.9011,1.8838,1.8624,1.9716,2.2536,2.2481,2.3618,2.652,2.6367,2.6161,2.6161,2.6025,2.584,2.5566,2.5566,2.543,2.5156,2.5,2.4875,0.0,0.0,0.0,0.0,0.0,0.0,0.0,0.0,0.0,0.0,0.0,0.0,0.0,0.0,0.0,0.0,0.0,0.0,0.0,0.0,0.0,0.0,0.0,0.0,0.0,0.0,0.0,0.0,0.0,0.0,0.0,0.0,0.0,0.0,0.0,0.0,0.0,0.1692,0.3488,0.5429,0.7031,0.8834,1.0717,1.0717,1.0717,1.0717,1.0717,1.0717,1.0717,1.0717,1.0717,1.0717,1.0717,1.0717,1.0717,1.0717,1.0717,1.0717,1.0717,1.0717,1.0717,1.0717,1.0717,1.0717,1.0717,1.0622,1.0534,1.0677,1.0717,1.0717,1.0717,1.3325,1.5913,1.5913,1.8388,2.0695,2.0681,2.0254,1.9853,1.984,1.9826,1.9746,1.9479,1.9639,1.9706,1.9497,1.9386,1.943,1.943,1.943,1.943,1.943,1.943,1.943,1.9457,1.8878,1.9788,2.2617,2.2745,2.4018,2.6948,2.7031,2.7012,2.7012,2.6641,2.6426,2.6426,2.6426,2.6426,2.6426,2.6016,2.5771,0.0,0.0,0.0,0.0,0.0,0.0,0.0,0.0,0.0,0.0,0.0,0.0,0.0,0.0,0.0,0.0,0.0,0.0,0.0,0.0,0.0,0.0,0.0,0.0,0.0,0.0,0.0,0.0,0.0,0.0,0.0,0.0,0.0,0.0,0.0,0.0,0.0,0.0409,0.2216,0.5429,0.583,0.7636,1.0717,1.0717,1.0717,1.0717,1.0717,1.0717,1.0717,1.0717,1.0717,1.0717,1.0717,1.0717,1.0717,1.0717,1.0717,1.0717,1.0717,1.0717,1.0717,1.0717,1.0717,1.0717,1.0717,1.0697,1.0677,1.0711,1.0717,1.0717,1.0717,1.3325,1.5913,1.5913,1.8529,2.0949,2.0722,2.0561,2.0401,2.0174,2.0134,2.0107,2.004,1.9907,1.9773,1.9706,1.9506,1.943,1.943,1.943,1.943,1.943,1.943,1.9452,1.9679,1.9372,2.043,2.3353,2.3255,2.4418,2.7396,2.7187,2.7012,2.7012,2.6914,2.6875,2.6875,2.6875,2.6875,2.6875,2.6758,2.6719,0.0,0.0,0.0,0.0,0.0,0.0,0.0,0.0,0.0,0.0,0.0,0.0,0.0,0.0,0.0,0.0,0.0,0.0,0.0,0.0,0.0,0.0,0.0,0.0,0.0,0.0,0.0,0.0,0.0,0.0,0.0,0.0,0.0,0.0,0.0,0.0,0.0,0.0,0.1814,0.5429,0.5429,0.7236,1.0717,1.0717,1.0717,1.0717,1.0717,1.0717,1.0717,1.0717,1.0717,1.0717,1.0717,1.0717,1.0717,1.0717,1.0717,1.0717,1.0717,1.0717,1.0717,1.0717,1.0717,1.0717,1.0717,1.0717,1.0717,1.0717,1.0717,1.0717,1.0717,1.3325,1.5913,1.5913,1.8576,2.1069,2.0909,2.0775,2.0628,2.0468,2.0441,2.0388,2.0254,2.0214,2.016,2.0027,1.9867,1.976,1.976,1.976,1.976,1.976,1.9639,1.9679,1.9973,1.9733,2.0524,2.2824,2.3496,2.4755,2.6902,2.7521,2.7715,2.7324,2.7305,2.7305,2.7305,2.7305,2.7305,2.7305,2.7305,2.7207,0.0,0.0,0.0,0.0,0.0,0.0,0.0,0.0,0.0,0.0,0.0,0.0,0.0,0.0,0.0,0.0,0.0,0.0,0.0,0.0,0.0,0.0,0.0,0.0,0.0,0.0,0.0,0.0,0.0,0.0,0.0,0.0,0.0,0.0,0.0,0.0,0.0,0.0,0.168,0.4961,0.5295,0.7102,1.0313,1.0585,1.0717,1.0717,1.0717,1.0717,1.0717,1.0717,1.0717,1.0717,1.0717,1.0717,1.0717,1.0717,1.0717,1.0717,1.0717,1.0717,1.0717,1.0717,1.0717,1.0717,1.0717,1.0717,1.0717,1.0717,1.0717,1.0717,1.0717,1.3325,1.5913,1.5913,1.8576,2.1109,2.1109,2.0909,2.0735,2.0735,2.0735,2.0668,2.0414,2.0535,2.0588,2.0334,2.0207,2.0167,2.0167,2.0167,2.0167,2.0167,2.0013,1.9987,2.0267,2.004,2.0401,2.1701,2.3331,2.4828,2.6189,2.7748,2.8358,2.7871,2.793,2.7943,2.7806,2.7832,2.7832,2.7806,2.7806,2.7559,0.0,0.0,0.0,0.0,0.0,0.0,0.0,0.0,0.0,0.0,0.0,0.0,0.0,0.0,0.0,0.0,0.0,0.0,0.0,0.0,0.0,0.0,0.0,0.0,0.0,0.0,0.0,0.0,0.0,0.0,0.0,0.0,0.0,0.0,0.0,0.0,0.0,0.0,0.1076,0.3155,0.4693,0.6431,0.8435,0.9981,1.0717,1.0717,1.0717,1.0717,1.0717,1.0717,1.0717,1.0717,1.0717,1.0717,1.0717,1.0717,1.0717,1.0717,1.0717,1.0717,1.0717,1.0717,1.0717,1.0717,1.0717,1.0717,1.0717,1.0717,1.0717,1.0717,1.0717,1.3325,1.5913,1.5913,1.8576,2.1109,2.1109,2.1069,2.1042,2.1042,2.1042,2.1029,2.0975,2.0815,2.0655,2.0615,2.0401,2.0167,2.0167,2.0167,2.0167,2.0167,2.0127,2.0281,2.0588,2.0334,2.0328,2.0876,2.2078,2.4055,2.6828,2.7027,2.7566,2.8676,2.9101,2.8926,2.8203,2.8555,2.8535,2.8203,2.8203,2.8164,0.0,0.0,0.0,0.0,0.0,0.0,0.0,0.0,0.0,0.0,0.0,0.0,0.0,0.0,0.0,0.0,0.0,0.0,0.0,0.0,0.0,0.0,0.0,0.0,0.0,0.0,0.0,0.0,0.0,0.0,0.0,0.0,0.0,0.0,0.0,0.0,0.0,0.0948,0.235,0.4158,0.5028,0.6831,0.951,1.0313,1.0717,1.0717,1.0717,1.0717,1.0717,1.0717,1.0717,1.0717,1.0717,1.0717,1.0717,1.0717,1.0717,1.0717,1.0717,1.0717,1.0717,1.0717,1.0717,1.0717,1.0717,1.0717,1.0717,1.0717,1.0717,1.0717,1.0717,1.3325,1.5913,1.5913,1.8576,2.1109,2.1109,2.1109,2.1109,2.1109,2.1109,2.1109,2.1109,2.1002,2.0909,2.0909,2.0788,2.0708,2.0708,2.0708,2.0708,2.0708,2.0561,2.0588,2.0882,2.0641,2.089,2.1935,2.2301,2.4027,2.7329,2.7125,2.766,2.9277,2.9473,2.9375,2.8984,2.918,2.918,2.8984,2.8984,2.8984,0.0,0.0,0.0,0.0,0.0,0.0,0.0,0.0,0.0,0.0,0.0,0.0,0.0,0.0,0.0,0.0,0.0,0.0,0.0,0.0,0.0,0.0,0.0,0.0,0.0,0.0,0.0,0.0,0.0,0.0,0.0,0.0,0.0,0.0,0.0,0.0205,0.0615,0.2026,0.3423,0.476,0.5629,0.7436,1.0047,1.0518,1.0717,1.0717,1.0717,1.0717,1.0717,1.0717,1.0717,1.0717,1.0717,1.0717,1.0717,1.0717,1.0717,1.0717,1.0717,1.0717,1.0717,1.0717,1.0717,1.0717,1.0717,1.0717,1.0717,1.0717,1.0717,1.0717,1.0717,1.3325,1.5913,1.5913,1.8576,2.1109,2.1109,2.1109,2.1109,2.1109,2.1109,2.1109,2.1109,2.1109,2.1109,2.1109,2.1109,2.1109,2.1109,2.1109,2.1109,2.1109,2.0909,2.0869,2.1096,2.0909,2.1321,2.2526,2.2297,2.3501,2.6703,2.6766,2.7495,2.9144,2.9655,2.9785,2.9626,2.9668,2.9668,2.9626,2.9626,2.9512,0.0,0.0,0.0,0.0,0.0,0.0,0.0,0.0,0.0,0.0,0.0,0.0,0.0,0.0,0.0,0.0,0.0,0.0,0.0,0.0,0.0,0.0,0.0,0.0,0.0,0.0,0.0,0.0,0.0,0.0,0.0,0.0,0.0,0.0,0.0,0.0808,0.2489,0.262,0.2752,0.2954,0.6227,0.7964,0.823,0.9915,1.0717,1.0717,1.0717,1.0717,1.0717,1.0717,1.0717,1.0717,1.0717,1.0717,1.0717,1.0717,1.0717,1.0717,1.0717,1.0717,1.0717,1.0717,1.0717,1.0717,1.0717,1.0717,1.0717,1.0717,1.0717,1.0717,1.0717,1.3325,1.5913,1.5913,1.8576,2.1109,2.1109,2.1109,2.1109,2.1109,2.1109,2.1109,2.1109,2.1109,2.1109,2.1109,2.1109,2.1109,2.1109,2.1109,2.1109,2.1109,2.1096,2.1082,2.1109,2.1096,2.1145,2.1258,2.0989,2.174,2.3823,2.5064,2.643,2.7911,2.9793,3.0391,2.9626,2.9961,2.9941,2.9626,2.9626,2.9355,0.0,0.0,0.0,0.0,0.0,0.0,0.0,0.0,0.0,0.0,0.0,0.0,0.0,0.0,0.0,0.0,0.0,0.0,0.0,0.0,0.0,0.0,0.0,0.0,0.0,0.0,0.0,0.0,0.0,0.0,0.0,0.0,0.0,0.0,0.0,0.0874,0.2685,0.3823,0.4894,0.6027,0.736,0.8568,0.9709,1.0386,1.0717,1.0717,1.0717,1.0717,1.0717,1.0717,1.0717,1.0717,1.0717,1.0717,1.0717,1.0717,1.0717,1.0717,1.0717,1.0717,1.0717,1.0717,1.0717,1.0717,1.0717,1.0717,1.0717,1.0717,1.0717,1.0717,1.0717,1.3325,1.5913,1.5913,1.8576,2.1109,2.1109,2.1109,2.1109,2.1109,2.1109,2.1109,2.1109,2.1109,2.1109,2.1109,2.1109,2.1109,2.1109,2.1109,2.1109,2.1109,2.1109,2.1109,2.1109,2.1109,2.1109,2.1109,2.1002,2.1728,2.3512,2.508,2.6568,2.8133,2.9944,3.0723,3.0391,3.0547,3.0547,3.0391,3.0391,3.0293,0.0,0.0,0.0,0.0,0.0,0.0,0.0,0.0,0.0,0.0,0.0,0.0,0.0,0.0,0.0,0.0,0.0,0.0,0.0,0.0,0.0,0.0,0.0,0.0,0.0,0.0,0.0,0.0,0.0,0.0,0.0,0.0,0.0,0.0,0.0542,0.1747,0.3555,0.5295,0.7098,0.8834,0.8834,0.951,1.0717,1.0717,1.0717,1.0717,1.0717,1.0717,1.0717,1.0717,1.0717,1.0717,1.0717,1.0717,1.0717,1.0717,1.0717,1.0717,1.0717,1.0717,1.0717,1.0717,1.0717,1.0717,1.0717,1.0717,1.0717,1.0717,1.0717,1.0717,1.0717,1.3325,1.6043,1.656,1.896,2.1109,2.1109,2.1109,2.1109,2.1109,2.1109,2.1109,2.1109,2.1109,2.1109,2.1109,2.1109,2.1109,2.1109,2.1109,2.1109,2.1109,2.1109,2.1109,2.1109,2.1109,2.1109,2.1109,2.1109,2.1601,2.2779,2.4348,2.5984,2.7632,2.9275,3.0392,3.0898,3.0898,3.0898,3.0898,3.0898,3.082,0.0,0.0,0.0,0.0,0.0,0.0,0.0,0.0,0.0,0.0,0.0,0.0,0.0,0.0,0.0,0.0,0.0,0.0,0.0,0.0,0.0,0.0,0.0,0.0,0.0,0.0,0.0,0.0,0.0,0.0,0.0,0.0,0.0,0.0,0.1759,0.3555,0.5429,0.7165,0.89,1.0717,1.0717,1.0717,1.0717,1.0717,1.0717,1.0717,1.0717,1.0717,1.0717,1.0717,1.0717,1.0717,1.0717,1.0717,1.0717,1.0717,1.0717,1.0717,1.0717,1.0717,1.0717,1.0717,1.0717,1.0717,1.0717,1.0717,1.0717,1.0717,1.0717,1.0717,1.0717,1.3325,1.6366,1.8052,1.9801,2.1109,2.1109,2.1109,2.1109,2.1109,2.1109,2.1109,2.1109,2.1109,2.1109,2.1109,2.1109,2.1109,2.1109,2.1109,2.1109,2.1109,2.1109,2.1109,2.1109,2.1109,2.1109,2.1109,2.1109,2.1109,2.1109,2.2716,2.4363,2.5984,2.7572,2.9216,3.0898,3.0898,3.0898,3.0898,3.0898,3.0644,0.0,0.0,0.0,0.0,0.0,0.0,0.0,0.0,0.0,0.0,0.0,0.0,0.0,0.0,0.0,0.0,0.0,0.0,0.0,0.0,0.0,0.0,0.0,0.0,0.0,0.0,0.0,0.0,0.0,0.0,0.0,0.0,0.0609,0.1893,0.2423,0.4158,0.7231,0.7764,0.89,1.0717,1.0717,1.0717,1.0717,1.0717,1.0717,1.0717,1.0717,1.0717,1.0717,1.0717,1.0717,1.0717,1.0717,1.0717,1.0717,1.0717,1.0717,1.0717,1.0717,1.0717,1.0717,1.0717,1.0717,1.0717,1.0717,1.0717,1.0717,1.0717,1.0717,1.124,1.3709,1.5135,1.6043,1.656,1.896,2.1109,2.1109,2.1109,2.1109,2.1109,2.1283,2.1349,2.1149,2.1283,2.1349,2.1149,2.1109,2.1109,2.1109,2.1109,2.1109,2.1109,2.1109,2.1109,2.1109,2.1109,2.1109,2.1109,2.1109,2.1109,2.1109,2.2716,2.4363,2.5984,2.7572,2.9216,3.0898,3.0898,3.0898,3.0898,3.0898,3.082,0.0,0.0,0.0,0.0,0.0,0.0,0.0,0.0,0.0,0.0,0.0,0.0,0.0,0.0,0.0,0.0,0.0,0.0,0.0,0.0,0.0,0.0,0.0,0.0,0.0,0.0,0.0,0.0,0.0,0.0,0.0,0.0,0.0471,0.1613,0.235,0.4091,0.6965,0.7631,0.89,1.0717,1.0656,1.0629,1.0629,1.069,1.0717,1.0717,1.0717,1.0717,1.0717,1.0717,1.0717,1.0717,1.0717,1.0717,1.0717,1.0717,1.0717,1.0717,1.0717,1.0717,1.0717,1.0717,1.0717,1.0717,1.0717,1.0717,1.0717,1.0717,1.0717,1.1372,1.4166,1.5394,1.6237,1.7667,1.9546,2.1109,2.1109,2.1109,2.1109,2.1109,2.1256,2.1323,2.1136,2.1363,2.1521,2.1149,2.1109,2.1109,2.1109,2.1109,2.1109,2.1109,2.1109,2.1162,2.1269,2.1176,2.1162,2.1283,2.1176,2.1109,2.1109,2.209,2.3373,2.5024,2.6651,2.823,2.9903,3.0587,3.0898,3.0898,3.0898,3.0898,0.0,0.0,0.0,0.0,0.0,0.0,0.0,0.0,0.0,0.0,0.0,0.0,0.0,0.0,0.0,0.0,0.0,0.0,0.0,0.0,0.0,0.0,0.0,0.0,0.0,0.0,0.0,0.0,0.0,0.0,0.0,0.0,0.0067,0.0269,0.1875,0.3544,0.5352,0.7142,0.88,1.0412,1.0476,1.0473,1.048,1.0616,1.0683,1.0704,1.0717,1.0717,1.0717,1.0717,1.0717,1.0717,1.0717,1.0717,1.0717,1.0717,1.0717,1.0717,1.0717,1.0717,1.0717,1.0717,1.0717,1.0717,1.0717,1.0717,1.0717,1.0717,1.0717,1.1108,1.3062,1.4688,1.6754,2.0259,2.1109,2.1109,2.1109,2.1109,2.1109,2.1109,2.1136,2.1149,2.1109,2.1363,2.1521,2.1189,2.1149,2.1149,2.1149,2.1122,2.1109,2.1109,2.1136,2.1256,2.1601,2.1309,2.1269,2.1601,2.1269,2.1109,2.1109,2.1109,2.1915,2.3574,2.5192,2.6772,2.8426,3.0079,3.0898,3.0898,3.0898,3.0898,0.0,0.0,0.0,0.0,0.0,0.0,0.0,0.0,0.0,0.0,0.0,0.0,0.0,0.0,0.0,0.0,0.0,0.0,0.0,0.0,0.0,0.0,0.0,0.0,0.0,0.0,0.0,0.0,0.0,0.0,0.0,0.0,0.0654,0.2047,0.2482,0.3588,0.5405,0.7038,0.8033,0.8425,0.9755,1.0324,1.0324,1.0358,1.0432,1.0548,1.067,1.0717,1.0717,1.0717,1.0717,1.0717,1.0717,1.0717,1.0717,1.0717,1.0717,1.0717,1.0717,1.0717,1.0717,1.0717,1.0717,1.0717,1.0717,1.0717,1.0717,1.0717,1.0717,1.1439,1.4558,1.5589,1.6754,2.0259,2.1109,2.1109,2.1109,2.1109,2.1109,2.1109,2.1296,2.139,2.1149,2.1363,2.1601,2.1534,2.1521,2.1521,2.1521,2.1256,2.1109,2.1109,2.1323,2.1547,2.1614,2.1561,2.1547,2.1614,2.1269,2.1109,2.1109,2.1109,2.1915,2.3574,2.5192,2.6772,2.8426,3.0079,3.0898,3.0898,3.0898,3.0898,0.0,0.0,0.0,0.0,0.0,0.0,0.0,0.0,0.0,0.0,0.0,0.0,0.0,0.0,0.0,0.0,0.0,0.0,0.0,0.0,0.0,0.0,0.0,0.0,0.0,0.0,0.0,0.0,0.0,0.0,0.0,0.0,0.0453,0.1368,0.1423,0.2648,0.526,0.6058,0.7316,0.8991,0.976,1.0134,1.0066,1.0215,1.0358,1.0493,1.0575,1.0649,1.0717,1.0717,1.0717,1.0717,1.0717,1.0717,1.0717,1.0717,1.0717,1.0717,1.0717,1.0717,1.0717,1.0717,1.0717,1.0717,1.0717,1.0717,1.0717,1.0717,1.0717,1.1306,1.397,1.4688,1.5329,1.7988,1.9877,2.1109,2.1109,2.1109,2.1109,2.1109,2.1229,2.1336,2.1323,2.1563,2.1775,2.1641,2.1614,2.1614,2.1614,2.148,2.1376,2.151,2.167,2.1817,2.1951,2.1844,2.1817,2.1951,2.1563,2.1323,2.1323,2.1189,2.1475,2.2404,2.3993,2.5619,2.7254,2.892,3.0157,3.0898,3.0898,3.0898,0.0,0.0,0.0,0.0,0.0,0.0,0.0,0.0,0.0,0.0,0.0,0.0,0.0,0.0,0.0,0.0,0.0,0.0,0.0,0.0,0.0,0.0,0.0,0.0,0.0,0.0,0.0,0.0,0.0,0.0,0.0,0.0,0.0,0.0,0.0,0.1473,0.4606,0.4912,0.6688,0.9816,0.9879,0.9883,0.9829,1.0086,1.0297,1.046,1.048,1.0575,1.0717,1.0717,1.0717,1.0717,1.0717,1.0717,1.0717,1.0717,1.0717,1.0717,1.0717,1.0717,1.0717,1.0717,1.0717,1.0717,1.0717,1.0717,1.0717,1.0717,1.0717,1.1108,1.2865,1.3325,1.3709,1.5459,1.8308,2.0652,2.0652,2.0919,2.1109,2.1109,2.1109,2.1203,2.1561,2.179,2.1924,2.1724,2.1762,2.1762,2.1762,2.1722,2.1724,2.1964,2.2031,2.2164,2.2392,2.2205,2.2164,2.2405,2.1924,2.1695,2.1695,2.139,2.1243,2.1189,2.2808,2.424,2.5558,2.7512,2.9098,3.047,3.0762,3.0898,0.0,0.0,0.0,0.0,0.0,0.0,0.0,0.0,0.0,0.0,0.0,0.0,0.0,0.0,0.0,0.0,0.0,0.0,0.0,0.0,0.0,0.0,0.0,0.0,0.0,0.0,0.0,0.0,0.0,0.0,0.0,0.0,0.0,0.0,0.0,0.0936,0.2841,0.4232,0.5867,0.7777,0.9178,0.9842,0.9822,0.9863,1.0039,1.0317,1.0439,1.0575,1.0717,1.0717,1.0717,1.0717,1.0717,1.0717,1.0717,1.0717,1.0717,1.0717,1.0717,1.0717,1.0717,1.0717,1.0717,1.0717,1.0717,1.0717,1.0717,1.0717,1.0717,1.1108,1.2865,1.3325,1.3709,1.5459,1.7409,1.8832,1.8832,2.0005,2.1109,2.1109,2.1109,2.1203,2.1561,2.179,2.2058,2.2271,2.2298,2.2298,2.2298,2.2084,2.1937,2.1977,2.2205,2.2378,2.2418,2.2378,2.2378,2.2418,2.2111,2.1924,2.1924,2.1884,2.175,2.1561,2.2909,2.3698,2.3931,2.697,2.8545,2.8783,3.0216,3.0898,0.0,0.0,0.0,0.0,0.0,0.0,0.0,0.0,0.0,0.0,0.0,0.0,0.0,0.0,0.0,0.0,0.0,0.0,0.0,0.0,0.0,0.0,0.0,0.0,0.0,0.0,0.0,0.0,0.0,0.0,0.0,0.0,0.0,0.0,0.0928,0.2153,0.374,0.546,0.7118,0.8775,0.9451,0.9822,0.9822,0.9822,0.9992,1.0283,1.0344,1.0507,1.0717,1.0717,1.0717,1.0717,1.0717,1.0717,1.0717,1.0717,1.0717,1.0717,1.0717,1.0717,1.0717,1.0717,1.0717,1.0717,1.0717,1.0717,1.0717,1.0717,1.0717,1.085,1.163,1.1828,1.2025,1.28,1.507,1.7012,1.7012,1.9164,2.1109,2.1109,2.1376,2.159,2.1628,2.2137,2.2405,2.2205,2.2311,2.2418,2.2418,2.2311,2.2298,2.2458,2.2592,2.2672,2.2672,2.2672,2.2672,2.2672,2.2392,2.2231,2.2231,2.2071,2.1924,2.1804,2.2434,2.2998,2.3636,2.6076,2.7643,2.8426,3.0138,3.0898,0.0,0.0,0.0,0.0,0.0,0.0,0.0,0.0,0.0,0.0,0.0,0.0,0.0,0.0,0.0,0.0,0.0,0.0,0.0,0.0,0.0,0.0,0.0,0.0,0.0,0.0,0.0,0.0,0.0,0.0,0.0,0.0,0.0,0.0,0.1593,0.3162,0.4684,0.6854,0.8557,0.9822,0.9822,0.9822,0.9822,0.9822,0.9964,1.0222,1.0263,1.0426,1.0663,1.0704,1.0717,1.0717,1.0717,1.0717,1.0717,1.0717,1.0717,1.0717,1.0717,1.0717,1.0717,1.0717,1.0717,1.0717,1.0717,1.0717,1.0717,1.0717,1.0717,1.0717,1.0717,1.0717,1.0717,1.0717,1.339,1.6108,1.7023,1.934,2.1216,2.1216,2.163,2.1937,2.1804,2.2311,2.2632,2.2258,2.2392,2.2525,2.2525,2.2525,2.2619,2.2846,2.2928,2.2928,2.2928,2.2928,2.2928,2.2928,2.2659,2.2525,2.2525,2.2325,2.2178,2.2098,2.2178,2.2566,2.3199,2.4953,2.6504,2.7953,2.9509,3.0509,0.0,0.0,0.0,0.0,0.0,0.0,0.0,0.0,0.0,0.0,0.0,0.0,0.0,0.0,0.0,0.0,0.0,0.0,0.0,0.0,0.0,0.0,0.0,0.0,0.0,0.0,0.0,0.0,0.0,0.0,0.0,0.0,0.0,0.0,0.1447,0.3007,0.4684,0.7866,0.9566,0.9822,0.9822,0.9822,0.9822,0.9822,0.991,1.0004,1.0215,1.0365,1.0514,1.0663,1.0717,1.0717,1.0717,1.0717,1.0717,1.0717,1.0717,1.0717,1.0717,1.0717,1.0717,1.0717,1.0717,1.0717,1.0717,1.0717,1.0717,1.0717,1.0717,1.0717,1.0717,1.0717,1.0717,1.0717,1.339,1.6818,2.0132,2.1195,2.1601,2.1601,2.1777,2.2071,2.2325,2.2418,2.2525,2.2779,2.2901,2.2846,2.2846,2.2846,2.2914,2.2928,2.2928,2.2928,2.2928,2.2928,2.2928,2.2928,2.2846,2.2846,2.2846,2.2887,2.2686,2.2405,2.2672,2.2593,2.2069,2.3435,2.4968,2.6542,2.791,2.9412,0.0,0.0,0.0,0.0,0.0,0.0,0.0,0.0,0.0,0.0,0.0,0.0,0.0,0.0,0.0,0.0,0.0,0.0,0.0,0.0,0.0,0.0,0.0,0.0,0.0,0.0,0.0,0.0,0.0,0.0,0.0,0.0,0.0,0.0,0.2487,0.5083,0.7685,0.887,0.9537,0.9686,0.9774,0.9822,0.9822,0.9822,0.9849,0.991,1.0066,1.027,1.0507,1.0656,1.0717,1.0717,1.0717,1.0717,1.0717,1.0717,1.0717,1.0717,1.0717,1.0717,1.0717,1.0717,1.0717,1.0717,1.0717,1.0717,1.0717,1.0717,1.0792,1.0779,1.0744,1.086,1.1247,1.2275,1.4298,1.6684,1.8932,2.0554,2.1668,2.179,2.2071,2.2298,2.2405,2.2579,2.2739,2.2846,2.2928,2.2928,2.2928,2.2928,2.2928,2.2928,2.2928,2.2928,2.2928,2.2928,2.2928,2.2928,2.2928,2.2928,2.2928,2.2928,2.2806,2.2712,2.2806,2.2579,2.1991,2.3537,2.4438,2.4905,2.7323,2.8724,0.0,0.0,0.0,0.0,0.0,0.0,0.0,0.0,0.0,0.0,0.0,0.0,0.0,0.0,0.0,0.0,0.0,0.0,0.0,0.0,0.0,0.0,0.0,0.0,0.0,0.0,0.0,0.0,0.0,0.0,0.0,0.0,0.047,0.1458,0.3548,0.6179,0.9381,0.9381,0.9483,0.968,0.9774,0.9822,0.9822,0.9822,0.9822,0.9829,0.9923,1.0161,1.0358,1.0561,1.0643,1.0649,1.0704,1.0717,1.0717,1.0717,1.0717,1.0717,1.0717,1.0717,1.0717,1.0717,1.0717,1.0717,1.0717,1.0717,1.0717,1.0717,1.0725,1.0793,1.0812,1.0975,1.1613,1.3189,1.4965,1.6747,1.8519,2.0356,2.1815,2.1951,2.2298,2.2565,2.2565,2.2726,2.2928,2.2928,2.2928,2.2928,2.2928,2.2928,2.2928,2.2928,2.2928,2.2928,2.2928,2.2928,2.2928,2.2928,2.2928,2.2928,2.2928,2.2928,2.2928,2.2928,2.2928,2.2672,2.2271,2.3276,2.3898,2.4153,2.6153,2.7583,0.0,0.0,0.0,0.0,0.0,0.0,0.0,0.0,0.0,0.0,0.0,0.0,0.0,0.0,0.0,0.0,0.0,0.0,0.0,0.0,0.0,0.0,0.0,0.0,0.0,0.0,0.0,0.0,0.0,0.0,0.0,0.0,0.1399,0.4404,0.4515,0.6102,0.9374,0.9381,0.953,0.9815,0.9822,0.9822,0.9822,0.9822,0.9822,0.9829,0.9916,0.9984,1.0011,1.0371,1.0493,1.0514,1.0663,1.0717,1.0717,1.0717,1.0717,1.0717,1.0717,1.0717,1.0717,1.0717,1.0717,1.0717,1.0717,1.0717,1.0724,1.0724,1.0731,1.0772,1.086,1.107,1.1648,1.3344,1.5168,1.7125,1.9061,2.0831,2.2004,2.2004,2.2472,2.2928,2.2928,2.2928,2.2928,2.2928,2.2928,2.2928,2.2928,2.2928,2.2928,2.2928,2.2928,2.2928,2.2873,2.2928,2.2928,2.2873,2.2928,2.2928,2.2928,2.2928,2.2928,2.2928,2.2928,2.2928,2.2928,2.2565,2.3043,2.4366,2.4351,2.6008,0.0,0.0,0.0,0.0,0.0,0.0,0.0,0.0,0.0,0.0,0.0,0.0,0.0,0.0,0.0,0.0,0.0,0.0,0.0,0.0,0.0,0.0,0.0,0.0,0.0,0.0,0.0,0.0,0.0,0.0,0.0,0.0,0.1359,0.4389,0.4501,0.6003,0.9211,0.9327,0.9476,0.9673,0.9774,0.9822,0.9822,0.9822,0.9822,0.9822,0.9863,0.9883,1.0011,1.0371,1.0555,1.0663,1.0704,1.0717,1.0717,1.0717,1.0717,1.0717,1.0717,1.0717,1.0717,1.0717,1.0717,1.0717,1.0717,1.0717,1.0744,1.0786,1.0962,1.1097,1.1369,1.1382,1.1468,1.1951,1.4484,1.6851,1.7303,2.0026,2.2365,2.2579,2.282,2.2928,2.2928,2.2928,2.2928,2.2928,2.2928,2.2928,2.2928,2.2928,2.2928,2.2928,2.2928,2.2953,2.318,2.2993,2.2953,2.318,2.2993,2.2928,2.2928,2.2928,2.2928,2.2928,2.2928,2.2928,2.2928,2.2565,2.2566,2.3004,2.3949,2.5514,0.0,0.0,0.0,0.0,0.0,0.0,0.0,0.0,0.0,0.0,0.0,0.0,0.0,0.0,0.0,0.0,0.0,0.0,0.0,0.0,0.0,0.0,0.0,0.0,0.0,0.0,0.0,0.0,0.0,0.0,0.0,0.0,0.14,0.4414,0.4526,0.6023,0.915,0.9364,0.9456,0.9612,0.9754,0.9822,0.9822,0.9822,0.9822,0.9822,0.9822,0.9944,1.0161,1.0331,1.0493,1.0629,1.0697,1.0717,1.0717,1.0717,1.0717,1.0717,1.0717,1.0717,1.0717,1.0717,1.0717,1.0717,1.0717,1.0717,1.0751,1.084,1.1097,1.1301,1.1477,1.1504,1.1484,1.1484,1.3709,1.5974,1.6688,1.9244,2.171,2.2523,2.2779,2.2928,2.2928,2.2928,2.2928,2.2928,2.2928,2.2928,2.2928,2.2928,2.2928,2.2928,2.2928,2.2939,2.3113,2.2966,2.2939,2.3126,2.2966,2.2928,2.2928,2.2928,2.2928,2.2928,2.2928,2.2928,2.2928,2.2686,2.2605,2.2592,2.327,2.4479,0.0,0.0,0.0,0.0,0.0,0.0,0.0,0.0,0.0,0.0,0.0,0.0,0.0,0.0,0.0,0.0,0.0,0.0,0.0,0.0,0.0,0.0,0.0,0.0,0.0,0.0,0.0,0.0,0.0,0.0,0.0,0.0168,0.1567,0.4414,0.4637,0.6191,0.915,0.9364,0.9456,0.9612,0.9754,0.9822,0.9822,0.9822,0.9822,0.9822,0.9822,0.9985,1.0256,1.0276,1.0371,1.0527,1.067,1.0717,1.0717,1.0717,1.0717,1.0717,1.0717,1.0717,1.0717,1.0717,1.0717,1.0717,1.0717,1.0731,1.0778,1.088,1.1199,1.1416,1.1416,1.1518,1.1619,1.1619,1.3167,1.5132,1.6826,1.8868,2.082,2.2174,2.2686,2.2928,2.2928,2.2928,2.2928,2.2928,2.2928,2.2928,2.2928,2.2928,2.2928,2.2928,2.2928,2.2873,2.2913,2.2913,2.2913,2.2913,2.3008,2.2995,2.2928,2.2968,2.2899,2.2928,2.2928,2.2928,2.2928,2.2928,2.2928,2.2928,2.2592,2.325,0.0,0.0,0.0,0.0,0.0,0.0,0.0,0.0,0.0,0.0,0.0,0.0,0.0,0.0,0.0,0.0,0.0,0.0,0.0,0.0,0.0,0.0,0.0,0.0,0.0,0.0,0.0,0.0,0.0,0.0,0.0,0.112,0.2626,0.4414,0.5644,0.7203,0.9207,0.9364,0.9456,0.9612,0.9754,0.9822,0.9822,0.9822,0.9822,0.9822,0.9822,0.9924,1.0044,1.0229,1.0439,1.0677,1.0711,1.0717,1.0717,1.0717,1.0717,1.0717,1.0717,1.0717,1.0717,1.0717,1.0717,1.0717,1.0717,1.0806,1.0894,1.1226,1.1436,1.1572,1.1572,1.1599,1.1619,1.1619,1.4156,1.6756,1.7107,1.9912,2.2421,2.2724,2.2887,2.2928,2.2928,2.2928,2.2928,2.2928,2.2928,2.2928,2.2928,2.2928,2.2928,2.2928,2.2928,2.2966,2.322,2.3233,2.3233,2.3233,2.346,2.338,2.2954,2.31,2.3113,2.2928,2.2928,2.2928,2.2928,2.2928,2.2928,2.2928,2.2806,2.297,0.0,0.0,0.0,0.0,0.0,0.0,0.0,0.0,0.0,0.0,0.0,0.0,0.0,0.0,0.0,0.0,0.0,0.0,0.0,0.0,0.0,0.0,0.0,0.0,0.0,0.0,0.0,0.0,0.0,0.0336,0.1064,0.179,0.324,0.5528,0.6311,0.7454,0.9042,0.9266,0.9381,0.9388,0.968,0.9781,0.972,0.9788,0.9822,0.9822,0.9822,0.9849,0.9997,1.0215,1.0412,1.0616,1.069,1.0717,1.0717,1.0717,1.0717,1.0717,1.0717,1.0717,1.0717,1.0717,1.0717,1.0717,1.0717,1.088,1.1104,1.1328,1.1504,1.1619,1.1619,1.1619,1.1619,1.1619,1.3031,1.4937,1.6836,1.8718,2.0617,2.2503,2.2928,2.2928,2.2928,2.2928,2.2928,2.2928,2.2928,2.2928,2.2928,2.2928,2.2928,2.2928,2.2928,2.2993,2.33,2.3327,2.3327,2.3327,2.3607,2.3567,2.3113,2.338,2.3474,2.3313,2.3313,2.3313,2.3313,2.3166,2.3006,2.2928,2.2928,2.2928,0.0,0.0,0.0,0.0,0.0,0.0,0.0,0.0,0.0,0.0,0.0,0.0,0.0,0.0,0.0,0.0,0.0,0.0,0.0,0.0,0.0,0.0,0.0,0.0,0.0,0.0,0.0,0.0,0.0,0.0667,0.2114,0.2503,0.3895,0.6589,0.6977,0.7709,0.8885,0.9232,0.932,0.9262,0.9618,0.9761,0.9652,0.9768,0.9822,0.9822,0.9822,0.9849,0.9997,1.0215,1.0365,1.0507,1.0663,1.0717,1.0717,1.0717,1.0717,1.0717,1.0717,1.0717,1.0717,1.0717,1.0717,1.0724,1.0758,1.0948,1.1261,1.1348,1.1504,1.1619,1.1619,1.1619,1.1619,1.1619,1.19,1.3103,1.6474,1.7458,1.8787,2.2229,2.2928,2.2928,2.2928,2.2928,2.2928,2.2928,2.2928,2.2928,2.2928,2.2928,2.2928,2.2928,2.2928,2.2993,2.33,2.338,2.338,2.3327,2.3714,2.3754,2.334,2.3607,2.3768,2.3768,2.3768,2.3768,2.3768,2.3527,2.3287,2.3102,2.2913,2.2968,0.0,0.0,0.0,0.0,0.0,0.0,0.0,0.0,0.0,0.0,0.0,0.0,0.0,0.0,0.0,0.0,0.0,0.0,0.0,0.0,0.0,0.0,0.0,0.0,0.0,0.0,0.0,0.0,0.0,0.0647,0.2133,0.3499,0.5005,0.6644,0.7986,0.8719,0.8885,0.9232,0.9374,0.9361,0.9673,0.9815,0.9795,0.9815,0.9822,0.9822,0.9822,0.9849,0.9997,1.0215,1.0365,1.0507,1.0663,1.0717,1.0717,1.0717,1.0717,1.0717,1.0717,1.0717,1.0717,1.0717,1.0717,1.0744,1.0813,1.1036,1.1261,1.1348,1.1504,1.1619,1.1619,1.1619,1.1619,1.1619,1.2888,1.4645,1.6756,1.8589,2.0409,2.2516,2.2928,2.2928,2.2928,2.2928,2.2928,2.2928,2.2928,2.2928,2.2928,2.2928,2.2928,2.2928,2.2928,2.2993,2.33,2.3567,2.3607,2.334,2.4088,2.4168,2.3354,2.3607,2.3768,2.3768,2.3768,2.3768,2.3768,2.3741,2.3701,2.3661,2.3182,2.3006,0.0,0.0,0.0,0.0,0.0,0.0,0.0,0.0,0.0,0.0,0.0,0.0,0.0,0.0,0.0,0.0,0.0,0.0,0.0,0.0,0.0,0.0,0.0,0.0,0.0,0.0,0.0,0.0,0.0,0.0988,0.3221,0.4095,0.5519,0.781,0.8556,0.8885,0.8885,0.9144,0.9309,0.9309,0.9551,0.97,0.97,0.9781,0.9822,0.9822,0.9822,0.9856,0.9937,1.0181,1.0317,1.0392,1.0629,1.0717,1.0717,1.0717,1.0717,1.0717,1.0717,1.0717,1.0717,1.0717,1.0717,1.0751,1.0833,1.105,1.1261,1.1348,1.1504,1.1619,1.1619,1.1619,1.1619,1.1619,1.218,1.3309,1.5141,1.6192,1.7378,1.9206,1.9565,1.9982,2.1101,2.216,2.2928,2.2928,2.2928,2.2928,2.2928,2.2928,2.2928,2.2928,2.2928,2.306,2.3541,2.3541,2.3527,2.3581,2.3928,2.4048,2.3848,2.4115,2.4275,2.4275,2.4275,2.4275,2.4275,2.4102,2.4115,2.4249,2.3487,2.3207,0.2565,0.0,0.0,0.0,0.0,0.0,0.0,0.0,0.0,0.0,0.0,0.0,0.0,0.0,0.0,0.0,0.0,0.0638,0.0955,0.0716,0.036,0.0047,0.0,0.0,0.0,0.0,0.0146,0.045,0.0199,0.1354,0.4504,0.4519,0.5736,0.8595,0.8818,0.8844,0.8885,0.9083,0.9207,0.9214,0.9462,0.9612,0.9612,0.9754,0.9822,0.9822,0.9822,0.9869,0.9964,1.0188,1.0331,1.0426,1.0636,1.0717,1.0717,1.0717,1.0717,1.0717,1.0717,1.0717,1.0717,1.0717,1.0717,1.0751,1.0833,1.105,1.1261,1.1348,1.1504,1.1619,1.1619,1.1619,1.1619,1.1619,1.1619,1.2115,1.4014,1.4432,1.5,1.6826,1.7178,1.7669,1.9077,2.0894,2.2297,2.2791,2.2939,2.2953,2.2941,2.3006,2.3086,2.2993,2.306,2.3327,2.3848,2.3621,2.3541,2.3754,2.3768,2.3901,2.4195,2.4476,2.4636,2.4636,2.4636,2.4636,2.4636,2.4422,2.4396,2.4502,2.3701,2.3367,0.0,0.0,0.0,0.3903,0.0,0.0,0.0,0.0,0.392,0.0,0.0,0.0,0.0,0.0,0.0,0.0,0.0,0.0,0.0,0.2471,0.1292,0.0139,0.0,0.0,0.0,0.0,0.049,0.1667,0.0675,0.1744,0.5722,0.483,0.5569,0.8588,0.8716,0.8791,0.8885,0.9083,0.9207,0.9214,0.9462,0.9612,0.9612,0.9754,0.9822,0.9822,0.9822,0.9992,1.0263,1.0276,1.0446,1.0711,1.0717,1.0717,1.0717,1.0717,1.0717,1.0717,1.0717,1.0717,1.0717,1.0717,1.0717,1.0751,1.0833,1.105,1.1261,1.1348,1.1504,1.1619,1.1619,1.1619,1.1619,1.1619,1.1619,1.2115,1.4014,1.4432,1.5,1.6826,1.7178,1.7248,1.7248,1.8938,2.0825,2.2654,2.3113,2.3207,2.2899,2.338,2.3634,2.334,2.3567,2.3861,2.4168,2.3928,2.3754,2.3768,2.3768,2.3901,2.4195,2.4476,2.4636,2.4636,2.4636,2.4636,2.4636,2.4623,2.4476,2.4209,2.3607,2.3487,0.5519,0.5592,0.543,0.4387,0.0,0.0,0.0,0.0,0.0,0.0,0.0,0.0,0.0,0.0,0.0,0.0,0.0,0.0,0.0,0.3247,0.2861,0.2573,0.2442,0.0,0.1281,0.1818,0.2081,0.1719,0.2049,0.3279,0.5596,0.5513,0.6353,0.8494,0.8655,0.8784,0.8885,0.9083,0.9262,0.9364,0.951,0.9659,0.9747,0.9802,0.9822,0.9822,0.9822,0.9876,0.9992,1.0195,1.0337,1.0446,1.0643,1.0717,1.0717,1.0717,1.0717,1.0717,1.0717,1.0717,1.0717,1.0717,1.0785,1.0813,1.0867,1.1118,1.1321,1.1375,1.1504,1.1619,1.1619,1.1619,1.1619,1.1619,1.1619,1.1756,1.2395,1.2538,1.2745,1.3381,1.3523,1.3912,1.5319,1.7186,1.9171,2.1011,2.2621,2.3581,2.3474,2.3647,2.3728,2.3634,2.3714,2.3808,2.3915,2.3647,2.3474,2.3474,2.3661,2.3901,2.4195,2.4476,2.4636,2.4636,2.4636,2.4636,2.4636,2.4636,2.4583,2.4476,2.4088,2.3955,0.7021,0.7113,0.6973,0.5955,0.5705,0.5491,0.496,0.0,0.5704,0.0,0.0,0.0,0.0,0.0,0.0,0.0,0.0,0.0,0.0,0.4669,0.4964,0.5045,0.4184,0.0,0.0,0.3078,0.331,0.2891,0.3238,0.4283,0.6122,0.6059,0.6681,0.8397,0.8554,0.873,0.8885,0.9083,0.9262,0.9357,0.951,0.9659,0.9747,0.9795,0.9822,0.9822,0.9822,0.9849,0.9924,1.0175,1.031,1.0378,1.0622,1.0717,1.0717,1.0717,1.0717,1.0717,1.0717,1.0717,1.0717,1.0717,1.0759,1.0887,1.1009,1.1199,1.1402,1.1457,1.1545,1.1619,1.1619,1.1619,1.1619,1.1619,1.1619,1.1619,1.1619,1.1619,1.1619,1.1619,1.166,1.2084,1.3478,1.5477,1.7711,2.0235,2.2489,2.3888,2.3781,2.3955,2.4035,2.3941,2.4022,2.4035,2.3928,2.3754,2.3594,2.3487,2.3768,2.4008,2.4195,2.4476,2.469,2.4796,2.469,2.469,2.4796,2.469,2.4636,2.4549,2.4342,2.4262]},{"header":{"parameterUnit":"m.s-1","parameterCategory":1,"la1":30.6,"la2":29.2853,"lo1":-89.7004,"lo2":-87.6739,"dy":0.0162,"dx":0.0183,"nx":112,"ny":82,"refTime":"2023-09-20T00:00:00:Z","depth":0,"parameterNumber":3,"parameterNumberName":"V-component_of_WINDS"},"data":[0.0,0.0,0.0,0.0,0.0,0.0,0.0,0.0,0.0,0.0,0.0,0.0,0.0,0.0,0.0,0.0,0.0,0.0,0.0,0.0,0.0,0.0,0.0,0.0,0.0,0.0,0.0,0.0,0.0,0.0,0.0,0.0,0.0,0.0,0.0,0.0,0.0,0.0,0.0,0.0,0.0,0.0,0.0,0.0,0.0,0.0,0.0,0.0,0.0,0.0,0.0,0.0,0.0,0.0,0.0,0.0,0.0,0.0,0.0,0.0,0.0,0.0,0.0,0.0,0.0,0.0,0.0,0.0,0.0,0.0,0.0,0.0,0.0,0.0,0.0,0.0,0.0,0.0,0.0,0.0,0.0,0.0,0.0,0.0,0.0,0.0,0.0,0.0,0.0,0.0,2.4028,2.7427,3.1623,3.3457,3.1698,3.1562,2.9958,2.6015,0.0,0.0,0.0,0.0,0.0,0.0,0.0,0.0,0.0,0.0,0.0,0.0,0.0,0.0,0.0,0.0,0.0,0.0,0.0,0.0,0.0,0.0,0.0,0.0,0.0,0.0,0.0,0.0,0.0,0.0,0.0,0.0,0.0,0.0,0.0,0.0,0.0,0.0,0.0,0.0,0.0,0.0,0.0,0.0,0.0,0.0,0.0,0.0,0.0,0.0,0.0,0.0,0.0,0.0,0.0,0.0,0.0,0.0,0.0,0.0,0.0,0.0,0.0,0.0,0.0,0.0,0.0,0.0,0.0,0.0,0.0,0.0,0.0,0.0,0.0,0.0,0.0,0.0,0.0,0.0,0.0,0.0,0.0,0.0,0.0,0.0,0.0,0.0,0.0,0.0,0.0,0.0,0.0,0.0,0.0,0.0,0.0,0.0,0.0,0.0,0.0,0.0,0.0,0.0,2.6124,3.0153,3.1805,3.2767,3.3051,3.0258,2.7943,2.6623,0.0,0.0,0.0,0.0,0.0,0.0,0.0,0.0,0.0,0.0,0.0,0.0,0.0,0.0,0.0,0.0,0.0,0.0,0.0,0.0,0.0,0.0,0.0,0.0,0.0,0.0,0.0,0.0,0.0,0.0,0.0,0.0,0.0,0.0,0.0,0.0,0.0,0.0,0.0,0.0,0.0,0.0,0.0,0.0,0.0,0.0,0.0,0.0,0.0,0.0,0.0,0.0,0.0,0.0,0.0,0.0,0.0,0.0,0.0,0.0,0.0,0.0,0.0,0.0,0.0,0.0,0.0,0.0,0.0,0.0,0.0,0.0,0.0,0.0,0.0,0.0,0.0,0.0,0.0,0.0,0.0,0.0,0.0,0.0,0.0,0.0,0.0,0.0,0.0,0.0,0.0,0.0,0.0,0.0,0.0,0.0,0.0,0.0,0.0,0.0,0.0,0.0,0.0,2.5098,2.7194,3.0585,3.2114,3.2713,3.2239,2.948,2.7486,2.6759,2.4898,0.0,0.0,0.0,0.0,0.0,0.0,0.0,0.0,0.0,0.0,0.0,0.0,0.0,0.0,0.0,0.0,0.0,0.0,0.0,0.0,0.0,0.0,0.0,0.0,0.0,0.0,0.0,0.0,0.0,0.0,0.0,0.0,0.0,0.0,0.0,0.0,0.0,0.0,0.0,0.0,0.0,0.0,0.0,0.0,0.0,0.0,0.0,0.0,0.0,0.0,0.0,0.0,0.0,0.0,0.0,0.0,0.0,0.0,0.0,0.0,0.0,0.0,0.0,0.0,0.0,0.0,0.0,0.0,0.0,0.0,0.0,0.0,0.0,0.0,0.0,0.0,0.0,0.0,0.0,0.0,0.0,0.0,0.0,0.0,0.0,0.0,0.0,0.0,0.0,0.0,0.0,0.0,0.0,0.0,0.0,0.0,0.0,0.0,0.0,0.0,0.0,0.0,2.7049,2.8084,3.0798,3.2173,3.2408,3.1292,2.8466,2.6674,2.6454,2.3496,0.0,0.0,0.0,0.0,0.0,0.0,0.0,0.0,0.0,0.0,0.0,0.0,0.0,0.0,0.0,0.0,0.0,0.0,0.0,0.0,0.0,0.0,0.0,0.0,0.0,0.0,0.0,0.0,0.0,0.0,0.0,0.0,0.0,0.0,0.0,0.0,0.0,0.0,0.0,0.0,0.0,0.0,0.0,0.0,0.0,0.0,0.0,0.0,0.0,0.0,0.0,0.0,0.0,0.0,0.0,0.0,0.0,0.0,0.0,0.0,0.0,0.0,0.0,0.0,0.0,0.0,0.0,0.0,0.0,0.0,0.0,0.0,0.0,0.0,0.0,0.0,0.0,0.0,0.0,0.0,0.0,0.0,0.0,0.0,0.0,0.0,0.0,0.0,0.0,0.0,0.0,0.0,0.0,0.0,0.0,0.0,0.0,0.0,0.0,0.0,0.0,0.0,2.7971,2.9196,3.1899,3.1704,3.1292,3.119,2.659,2.4255,2.5609,2.2212,0.0,0.0,0.0,0.0,0.0,0.0,0.0,0.0,0.0,0.0,0.0,0.0,0.0,0.0,0.0,0.0,0.0,0.0,0.0,0.0,0.0,0.0,0.0,0.0,0.0,0.0,0.0,0.0,0.0,0.0,0.0,0.0,0.0,0.0,0.0,0.0,0.0,0.0,0.0,0.0,0.0,0.0,0.0,0.0,0.0,0.0,0.0,0.0,0.0,0.0,0.0,0.0,0.0,0.0,0.0,0.0,0.0,0.0,0.0,0.0,0.0,0.0,0.0,0.0,0.0,0.0,0.0,0.0,0.0,0.0,0.0,0.0,0.0,0.0,0.0,0.0,0.0,0.0,0.0,0.0,0.0,0.0,0.0,0.0,0.0,0.0,0.0,0.0,0.0,0.0,0.0,0.0,0.0,0.0,0.0,0.0,0.0,0.0,0.0,0.0,0.0,0.0,2.8457,2.9569,0.0,3.1521,3.1021,3.0548,2.6996,2.5,2.5559,0.0,0.0,0.0,0.0,0.0,0.0,0.0,0.0,0.0,0.0,0.0,0.0,0.0,0.0,0.0,0.0,0.0,0.0,0.0,0.0,0.0,0.0,0.0,0.0,0.0,0.0,0.0,0.0,0.0,0.0,0.0,0.0,0.0,0.0,0.0,0.0,0.0,0.0,0.0,0.0,0.0,0.0,0.0,0.0,0.0,0.0,0.0,0.0,0.0,0.0,0.0,0.0,0.0,0.0,0.0,0.0,0.0,0.0,0.0,0.0,0.0,0.0,0.0,0.0,0.0,0.0,0.0,0.0,0.0,0.0,0.0,0.0,0.0,0.0,0.0,0.0,0.0,0.0,0.0,0.0,0.0,0.0,0.0,0.0,0.0,0.0,0.0,0.0,0.0,0.0,0.0,0.0,0.0,0.0,0.0,0.0,0.0,0.0,0.0,0.0,0.0,0.0,2.764,2.8844,3.0013,0.0,3.137,3.0717,2.948,2.6167,2.4391,2.4864,0.0,0.0,0.0,0.0,0.0,0.0,0.0,0.0,0.0,0.0,0.0,0.0,0.0,0.0,0.0,0.0,0.0,0.0,0.0,0.0,0.0,0.0,0.0,0.0,0.0,0.0,0.0,0.0,0.0,0.0,0.0,0.0,0.0,0.0,0.0,0.0,0.0,0.0,0.0,0.0,0.0,0.0,0.0,0.0,0.0,0.0,0.0,0.0,0.0,0.0,0.0,0.0,0.0,0.0,0.0,0.0,0.0,0.0,0.0,0.0,0.0,0.0,0.0,0.0,0.0,0.0,0.0,0.0,0.0,0.0,0.0,0.0,0.0,0.0,0.0,0.0,0.0,0.0,0.0,0.0,0.0,0.0,0.0,0.0,0.0,0.0,0.0,0.0,0.0,0.0,0.0,0.0,0.0,0.0,0.0,0.0,0.0,0.0,0.0,0.0,0.0,0.0,2.6976,2.9127,3.0688,3.1128,3.119,3.0277,2.7993,2.3748,2.1833,0.0,0.0,0.0,0.0,0.0,0.0,0.0,0.0,0.0,0.0,0.0,0.0,0.0,0.0,0.0,0.0,0.0,0.0,0.0,0.0,0.0,0.0,0.0,0.0,0.0,0.0,0.0,0.0,0.0,0.0,0.0,0.0,0.0,0.0,0.0,0.0,0.0,0.0,0.0,0.0,0.0,0.0,0.0,0.0,0.0,0.0,0.0,0.0,0.0,0.0,0.0,0.0,0.0,0.0,0.0,0.0,0.0,0.0,0.0,0.0,0.0,0.0,0.0,0.0,0.0,0.0,0.0,0.0,0.0,0.0,0.0,0.0,0.0,0.0,0.0,0.0,0.0,0.0,0.0,0.0,0.0,0.0,0.0,0.0,0.0,0.0,0.0,0.0,0.0,0.0,0.0,0.0,0.0,0.0,0.0,0.0,0.0,0.0,0.0,0.0,0.0,0.0,0.0,2.6999,2.9417,3.1055,3.1176,3.119,3.0277,2.7993,2.4695,2.2936,2.3376,0.0,0.0,0.0,0.0,0.0,0.0,0.0,0.0,0.0,0.0,0.0,0.0,0.0,0.0,0.0,0.0,0.0,0.0,0.0,0.0,0.0,0.0,0.0,0.0,0.0,0.0,0.0,0.0,0.0,0.0,0.0,0.0,0.0,0.0,0.0,0.0,0.0,0.0,0.0,0.0,0.0,0.0,0.0,0.0,0.0,0.0,0.0,0.0,0.0,0.0,0.0,0.0,0.0,0.0,0.0,0.0,0.0,0.0,0.0,0.0,0.0,0.0,0.0,0.0,0.0,0.0,0.0,0.0,0.0,0.0,0.0,0.0,0.0,0.0,0.0,0.0,0.0,0.0,0.0,0.0,0.0,0.0,0.0,0.0,0.0,0.0,0.0,0.0,0.0,0.0,0.0,0.0,0.0,0.0,0.0,0.0,0.0,0.0,0.0,0.0,0.0,0.0,2.6847,2.9204,3.0852,3.1157,3.0954,2.9837,2.7553,2.4932,2.3139,2.2578,0.0,0.0,0.0,0.0,0.0,0.0,0.0,0.0,0.0,0.0,0.0,0.0,0.0,0.0,0.0,0.0,0.0,0.0,0.0,0.0,0.0,0.0,0.0,0.0,0.0,0.0,0.0,0.0,0.0,0.0,0.0,0.0,0.0,0.0,0.0,0.0,0.0,0.0,0.0,0.0,0.0,0.0,0.0,0.0,0.0,0.0,0.0,0.0,0.0,0.0,0.0,0.0,0.0,0.0,0.0,0.0,0.0,0.0,0.0,0.0,0.0,0.0,0.0,0.0,0.0,0.0,0.0,0.0,0.0,0.0,0.0,0.0,0.0,0.0,0.0,0.0,0.0,0.0,0.0,0.0,0.0,0.0,0.0,0.0,0.0,0.0,0.0,0.0,0.0,0.0,0.0,0.0,0.0,0.0,0.0,0.0,0.0,0.0,0.0,0.0,0.0,0.0,2.6538,2.8687,3.0378,3.1123,3.0548,2.9194,2.6894,2.4661,2.2801,2.1393,0.0,0.0,0.0,0.0,0.0,0.0,0.0,0.0,0.0,0.0,0.0,0.0,0.0,0.0,0.0,0.0,0.0,0.0,0.0,0.0,0.0,0.0,0.0,0.0,0.0,0.0,0.0,0.0,0.0,0.0,0.0,0.0,0.0,0.0,0.0,0.0,0.0,0.0,0.0,0.0,0.0,0.0,0.0,0.0,0.0,0.0,0.0,0.0,0.0,0.0,0.0,0.0,0.0,0.0,0.0,0.0,0.0,0.0,0.0,0.0,2.551,2.5327,0.0,0.0,0.0,0.0,0.0,0.0,0.0,0.0,0.0,0.0,0.0,0.0,0.0,0.0,0.0,0.0,0.0,0.0,0.0,0.0,0.0,0.0,0.0,0.0,0.0,0.0,0.0,0.0,0.0,0.0,0.0,0.0,0.0,0.0,0.0,0.0,0.0,0.0,0.0,0.0,2.6505,2.8687,3.0378,3.1123,3.0548,2.9194,2.6894,2.4661,2.3004,2.2124,2.1529,0.0,0.0,0.0,0.0,0.0,0.0,0.0,0.0,0.0,0.0,0.0,0.0,0.0,0.0,0.0,0.0,0.0,0.0,0.0,0.0,0.0,0.0,0.0,0.0,0.0,0.0,0.0,0.0,0.0,0.0,0.0,0.0,0.0,0.0,0.0,0.0,0.0,0.0,0.0,0.0,0.0,0.0,0.0,0.0,0.0,0.0,0.0,0.0,0.0,0.0,0.0,0.0,0.0,0.0,0.0,0.0,0.0,0.0,0.0,2.8738,2.7312,0.0,0.0,0.0,0.0,0.0,0.0,0.0,0.0,0.0,0.0,0.0,0.0,0.0,0.0,0.0,0.0,0.0,0.0,0.0,0.0,0.0,0.0,0.0,0.0,0.0,0.0,0.0,0.0,0.0,0.0,0.0,0.0,0.0,0.0,0.0,0.0,0.0,0.0,0.0,0.0,2.7013,2.8586,2.9973,3.1089,3.0209,2.8924,2.7368,2.5203,2.3444,2.2381,2.1955,0.0,0.0,0.0,0.0,0.0,0.0,0.0,0.0,0.0,0.0,0.0,0.0,0.0,0.0,0.0,0.0,0.0,0.0,0.0,0.0,0.0,0.0,0.0,0.0,0.0,0.0,0.0,0.0,0.0,0.0,0.0,0.0,0.0,0.0,0.0,0.0,0.0,0.0,0.0,0.0,0.0,0.0,0.0,0.0,0.0,0.0,0.0,0.0,0.0,0.0,0.0,0.0,0.0,3.7577,3.7692,3.8,3.7164,3.6865,3.6846,3.3731,3.1072,2.8928,2.9115,0.0,0.0,0.0,0.0,0.0,0.0,0.0,0.0,0.0,0.0,0.0,0.0,0.0,0.0,0.0,0.0,0.0,0.0,0.0,0.0,0.0,0.0,2.7994,2.9281,2.9687,2.884,2.5473,0.0,0.0,0.0,0.0,0.0,0.0,0.0,0.0,0.0,0.0,0.0,2.7505,2.8643,2.978,3.1075,2.989,2.8653,2.7858,2.5778,2.3932,2.2598,2.2381,2.2023,0.0,0.0,0.0,0.0,0.0,0.0,0.0,0.0,0.0,0.0,0.0,0.0,0.0,0.0,0.0,0.0,0.0,0.0,0.0,0.0,0.0,0.0,0.0,0.0,0.0,0.0,0.0,0.0,0.0,0.0,0.0,0.0,2.6484,2.6484,0.0,0.0,0.0,0.0,0.0,0.0,0.0,0.0,0.0,0.0,0.0,0.0,0.0,3.8064,3.8747,4.176,4.2908,4.2277,4.4393,4.4662,4.3278,4.3145,4.3107,4.3047,4.1123,0.0,3.3928,3.1661,0.0,0.0,0.0,0.0,0.0,0.0,0.0,0.0,0.0,0.0,0.0,0.0,0.0,0.0,0.0,0.0,0.0,0.0,0.0,0.0,0.0,0.0,3.1616,3.1819,3.2341,3.2341,3.0548,2.8281,2.6082,2.4508,2.4124,2.4106,0.0,0.0,0.0,0.0,0.0,0.0,2.7297,2.9143,3.0675,3.1147,2.989,2.8653,2.7858,2.5778,2.4135,2.3308,2.2665,2.2245,2.2158,2.2144,0.0,0.0,0.0,0.0,0.0,0.0,0.0,0.0,0.0,0.0,0.0,0.0,0.0,0.0,0.0,0.0,0.0,0.0,0.0,0.0,0.0,0.0,0.0,0.0,0.0,0.0,0.0,0.0,0.0,2.7101,2.8476,2.6484,2.9101,3.0195,0.0,0.0,0.0,0.0,0.0,0.0,0.0,0.0,0.0,4.1016,4.269,4.4153,4.5429,4.7714,4.8884,4.8903,4.943,4.9308,4.8548,4.8086,4.7903,4.7817,4.6586,4.4696,4.2035,3.7371,3.5057,3.4404,0.0,0.0,0.0,0.0,3.3023,3.306,3.4087,3.3917,3.338,3.4211,0.0,0.0,0.0,0.0,0.0,0.0,0.0,3.0893,3.1438,3.2848,3.437,3.525,3.569,3.5757,3.5115,3.2916,3.0142,2.6962,2.6713,2.6909,2.6462,2.5811,0.0,0.0,0.0,2.8358,2.9625,3.0486,3.1223,3.1772,3.0871,2.9754,2.8552,2.642,2.4797,2.4068,2.2936,2.2313,2.2313,2.2313,2.2448,0.0,0.0,0.0,0.0,0.0,0.0,0.0,0.0,0.0,0.0,0.0,0.0,0.0,0.0,0.0,0.0,0.0,0.0,0.0,0.0,0.0,0.0,0.0,0.0,0.0,0.0,0.0,0.0,2.9099,3.0742,2.7734,3.1601,3.3281,0.0,0.0,0.0,0.0,0.0,0.0,4.2617,4.3476,4.4883,4.7226,4.8899,5.0248,5.1286,5.2562,5.3377,5.3708,5.2954,5.2577,5.2538,5.1933,5.1558,5.1279,5.0433,4.9663,4.8567,4.2181,3.8657,3.7153,3.6245,3.5923,3.6032,3.667,3.6486,3.6215,3.805,3.8175,3.7419,3.6765,3.6288,3.5445,3.2852,0.0,0.0,0.0,0.0,3.4112,3.5048,3.5832,3.6741,3.8139,3.8464,3.8396,3.8227,3.6978,3.4525,3.0026,2.9575,2.9766,2.9126,2.8314,0.0,2.9823,0.0,2.9813,3.1167,3.1609,3.1925,3.2246,3.165,3.0683,2.9382,2.7199,2.5473,2.4541,2.3274,2.2482,2.2313,2.2313,2.2381,2.2598,0.0,0.0,0.0,0.0,0.0,0.0,0.0,0.0,0.0,0.0,0.0,0.0,0.0,0.0,0.0,0.0,0.0,0.0,0.0,0.0,0.0,0.0,0.0,0.0,0.0,0.0,0.0,0.0,0.0,3.207,3.7148,0.0,0.0,0.0,0.0,3.9453,4.1094,4.3555,4.7109,4.957,5.1719,5.3476,5.5234,5.5736,5.484,5.5606,5.5545,5.4622,5.4449,5.4357,5.4357,5.4318,5.3857,5.3049,5.2154,5.1731,5.1182,4.4231,4.1546,4.1429,3.8052,3.7469,3.8542,3.8579,3.8542,3.8542,3.8652,3.8175,3.786,4.0084,3.9738,3.8358,3.7419,3.5826,0.0,0.0,3.5766,3.6254,3.7192,3.7997,3.8812,3.9753,4.0011,3.9808,3.9073,3.9247,3.8196,3.3717,3.1951,3.1371,3.1895,0.0,3.2056,3.1408,3.2557,3.2688,3.0466,3.2101,3.3192,3.2394,3.165,3.0886,3.0108,2.7943,2.6015,2.4575,2.3763,2.3038,2.2313,2.2313,2.2632,2.3342,2.2665,0.0,0.0,0.0,0.0,0.0,0.0,0.0,0.0,0.0,0.0,0.0,0.0,0.0,0.0,0.0,0.0,0.0,0.0,0.0,0.0,0.0,0.0,0.0,0.0,0.0,0.0,0.0,0.0,3.8828,4.3633,0.0,4.1719,4.2891,4.4414,4.5586,4.7226,4.9726,5.3203,5.4258,5.5547,5.7305,5.8437,5.8866,5.851,5.9243,5.9377,5.8914,5.7666,5.7043,5.6896,5.578,5.5088,5.4741,5.3933,5.3587,5.3269,4.9682,4.7493,4.6247,4.3908,4.2987,4.2937,4.2937,4.2786,4.2563,4.2563,4.2359,4.2029,4.1315,3.9994,3.8652,3.8358,3.8135,3.8052,3.8466,3.9049,3.9637,4.0185,4.0475,4.0762,4.1101,4.1196,4.1126,4.0847,4.0569,4.0002,3.8679,3.688,3.5473,3.5198,3.4608,3.4234,3.4504,3.4345,3.4104,3.3862,3.4353,3.4268,3.3134,3.278,3.1935,3.0243,2.8432,2.6793,2.5304,2.4052,2.3071,2.2313,2.2313,2.2415,2.2699,2.2415,2.2902,0.0,0.0,0.0,0.0,0.0,0.0,0.0,0.0,0.0,0.0,0.0,0.0,0.0,0.0,0.0,0.0,0.0,0.0,0.0,0.0,0.0,0.0,0.0,0.0,0.0,0.0,4.4609,4.4609,4.8945,5.0664,4.7461,4.875,5.0234,5.1406,5.2539,5.4531,5.7695,5.789,5.8555,6.0,6.0547,6.0586,6.0,6.0386,6.0218,5.9571,5.8211,5.7506,5.7396,5.6242,5.5703,5.5665,5.5126,5.4895,5.478,5.3356,5.183,5.0133,4.8067,4.6593,4.5721,4.6019,4.5675,4.5076,4.4764,4.4691,4.4397,4.2506,4.1185,4.0304,4.0304,4.0671,4.1136,4.1286,4.1706,4.2103,4.2083,4.2083,4.2041,4.1853,4.181,4.181,4.181,4.1588,4.1495,4.1787,4.0131,3.8612,3.831,3.7384,3.6853,3.7441,3.6316,3.5564,3.5882,3.5671,3.4961,3.3541,3.3423,3.251,3.0292,2.9142,2.7621,2.5372,2.456,2.3579,2.2347,2.255,2.2665,2.2665,2.2665,2.3274,2.4508,0.0,0.0,0.0,0.0,0.0,0.0,0.0,0.0,0.0,0.0,0.0,0.0,0.0,0.0,0.0,0.0,0.0,0.0,0.0,0.0,0.0,0.0,0.0,4.0469,4.5351,4.918,4.9258,5.3008,5.457,5.1992,5.3281,5.4961,5.668,5.6758,5.7851,6.0351,6.0469,6.082,6.168,6.1719,6.0937,5.9297,5.8936,5.7959,5.6308,5.5968,5.5752,5.5742,5.5703,5.5703,5.5703,5.5703,5.5703,5.5626,5.4857,5.4049,5.2941,5.0122,4.8045,4.6722,4.749,4.7006,4.5828,4.5039,4.4764,4.4635,4.3828,4.3588,4.3588,4.3588,4.3588,4.3588,4.3551,4.3551,4.3393,4.2882,4.2713,4.2577,4.1979,4.1853,4.1853,4.1853,4.2322,4.2713,4.2713,4.1467,4.0545,4.1103,4.0524,3.9974,3.9974,3.8615,0.0,3.6203,3.6003,3.5308,3.363,3.3491,3.2577,3.0378,3.0156,2.8518,2.4778,2.5169,2.4578,2.2415,2.3004,2.3376,2.341,2.341,2.3782,2.4526,0.0,0.0,0.0,0.0,0.0,0.0,0.0,0.0,0.0,0.0,0.0,0.0,0.0,0.0,0.0,0.0,0.0,0.0,0.0,0.0,0.0,0.0,4.8555,4.7539,5.1484,5.5156,5.7031,5.9961,6.1289,5.9922,6.0234,6.0703,6.1211,6.0664,6.0898,6.2226,6.168,6.1445,6.168,6.1719,6.1484,6.1015,6.082,6.0149,5.896,5.811,5.7333,5.6637,5.5972,5.5703,5.5703,5.5703,5.5703,5.5665,5.5472,5.4895,5.3923,5.189,5.065,4.9946,4.9578,4.8491,4.7134,4.6617,4.6067,4.5516,4.5296,4.5223,4.5223,4.5223,4.5223,4.5112,4.4525,4.4378,4.4196,4.345,4.3268,4.3232,4.3069,4.3032,4.3032,4.3032,4.3142,4.3268,4.3268,4.292,4.2662,4.282,4.2176,4.1625,4.1625,4.0372,3.9031,3.7889,3.7316,3.654,3.5147,3.4991,3.41,3.1887,3.119,2.9296,2.5541,2.4966,2.4305,2.3139,2.2767,2.2868,2.3376,2.3932,2.437,0.0,0.0,0.0,0.0,0.0,0.0,0.0,0.0,0.0,0.0,0.0,0.0,0.0,0.0,0.0,0.0,0.0,0.0,0.0,0.0,0.0,0.0,5.3164,5.6172,5.7539,5.832,5.957,6.1758,6.3398,6.4101,6.3594,6.3555,6.3555,6.3555,6.2734,6.2461,6.2969,6.2187,6.1719,6.1719,6.1719,6.1523,6.1172,6.0966,6.0404,5.9427,5.8388,5.7564,5.6983,5.6483,5.6049,5.5703,5.6088,5.6049,5.5703,5.5703,5.5241,5.4395,0.0,0.0,0.0,0.0,4.9802,4.8861,4.771,4.7035,4.6557,4.6066,4.5883,4.5883,4.5883,4.5883,4.581,4.5333,4.4966,4.4581,4.4121,4.3754,4.3515,4.3515,4.3515,4.3515,4.3515,4.3515,4.3515,4.3515,4.3515,0.0,4.3515,4.2837,4.2396,4.2763,4.1535,4.0185,3.9064,3.8315,3.7172,3.5338,3.5148,3.4235,3.2022,3.1447,0.0,0.0,0.0,2.5083,2.4357,2.3917,0.0,0.0,0.0,2.5007,2.5129,2.5882,0.0,0.0,2.659,2.6928,0.0,0.0,0.0,0.0,0.0,0.0,0.0,0.0,0.0,0.0,0.0,0.0,0.0,0.0,0.0,0.0,6.0117,6.3711,6.7773,6.5,6.3125,6.457,6.4844,6.4844,6.4765,6.4648,6.4648,6.4726,6.375,6.3164,6.3164,6.2305,0.0,0.0,0.0,6.1328,6.0547,6.0293,5.9705,5.8838,5.7785,5.7253,5.7137,5.7137,5.6714,5.6049,5.683,5.6637,5.5857,5.5857,5.5357,5.4626,5.4549,5.3755,5.2526,5.1409,5.0935,5.053,4.852,0.0,0.0,4.6506,4.6177,4.6177,4.6287,4.625,4.6177,4.6177,4.559,4.4911,4.4728,4.4232,4.3772,4.3662,4.3681,4.3772,4.3772,4.3681,4.3644,4.3644,4.3534,4.3515,4.3515,4.291,4.269,4.3404,4.2201,4.0816,3.985,3.8938,3.7455,3.5145,3.481,0.0,3.1732,3.1495,3.0142,2.7131,2.6809,2.642,2.5744,2.5728,2.5778,2.5829,2.5829,2.5897,2.5981,2.5981,2.6353,2.7097,2.7587,2.818,0.0,0.0,0.0,0.0,0.0,0.0,0.0,0.0,0.0,0.0,0.0,0.0,0.0,0.0,0.0,6.0976,6.4101,6.668,6.8945,6.8476,6.7812,6.7461,6.8086,6.8203,6.75,6.6797,6.668,6.7383,6.5351,6.4062,6.4062,6.3203,6.2422,6.1719,6.1719,6.1601,6.1445,6.1187,6.0594,5.9738,5.9244,0.0,5.805,5.805,5.7973,5.7819,5.7973,5.755,5.6753,5.6753,5.6252,5.5395,5.4741,5.3902,5.302,5.245,5.1654,5.0606,4.9155,4.8451,4.8144,4.7884,4.7829,4.7976,4.8692,4.8379,0.0,4.7829,4.7278,4.6342,4.5021,4.5076,4.5259,4.4635,4.4966,4.5443,4.5443,4.4929,4.4488,4.4488,4.3938,4.3515,4.3515,4.3351,4.3331,4.3478,4.2462,4.1385,4.0603,3.9033,3.7808,3.7303,3.6705,3.5678,3.3998,3.3322,3.1698,2.8739,2.7385,2.6623,2.6488,2.6488,2.6759,2.735,2.7384,2.7689,2.8333,2.8333,2.8721,2.9431,2.8297,2.7891,0.0,0.0,0.0,0.0,0.0,0.0,0.0,0.0,0.0,0.0,0.0,5.1833,0.0,0.0,6.3164,6.7461,6.9258,7.0547,7.1875,7.164,7.0703,6.8984,6.918,6.9101,6.8281,6.7812,6.7539,6.7539,6.5937,6.4765,6.4336,6.3476,6.2617,6.1719,6.1719,6.1719,6.1719,6.1417,6.1095,6.0628,5.9862,5.9281,5.8896,5.8896,5.8665,5.8319,5.8742,5.8434,5.7627,5.7176,5.6483,5.5665,5.5241,5.4818,5.4385,5.3782,5.3171,5.2425,5.0938,5.031,5.0093,4.9692,4.9554,4.9554,4.961,4.9317,4.8857,4.8416,4.7425,4.6434,4.6012,4.5296,4.4782,4.5186,4.5296,4.5406,4.581,4.5259,4.4691,4.4691,4.4048,4.3515,4.3515,4.3515,4.3515,4.3515,4.2808,4.1859,4.0851,3.9621,3.8446,3.7462,3.7032,3.6186,3.4607,3.3491,3.1732,2.9179,2.8619,2.8247,2.7859,2.7859,2.801,2.8383,2.8416,2.8586,2.901,2.901,2.9179,2.9533,2.9533,2.9499,0.0,0.0,0.0,0.0,0.0,0.0,0.0,0.0,4.8469,5.2187,5.539,5.8867,6.3203,6.6133,6.9023,7.25,7.3203,7.3476,7.4023,7.3359,7.1953,6.9687,6.957,6.9258,6.8281,6.8203,6.789,6.7226,6.6172,6.5234,6.4336,6.3476,6.2617,6.1719,6.1719,6.1719,6.1719,6.1417,6.1283,6.1283,6.0249,5.9742,5.9742,5.9742,5.9396,5.8819,5.9281,5.9127,5.8473,5.7588,5.6819,5.6203,5.6011,5.5934,5.5818,5.4857,5.444,5.4177,5.2645,5.2024,5.1775,5.112,5.0845,5.0692,5.0031,4.9721,4.9463,4.8746,4.7498,4.6434,4.6782,4.5663,4.4672,4.5663,4.5626,4.559,4.6214,4.5736,4.5131,4.4966,4.4268,4.3681,4.3551,4.3515,4.3515,4.3515,4.305,4.2305,4.1227,4.0453,3.9349,3.774,3.7183,3.6288,3.4629,3.341,3.1853,2.9754,3.0209,3.0209,2.945,2.9585,2.9653,2.9653,2.9788,2.9856,2.9856,2.9856,2.9856,2.989,3.1055,3.1461,3.843,3.913,4.1296,4.6999,4.6964,4.8178,0.0,0.0,5.7656,6.1836,6.4258,6.6015,6.7383,6.9726,7.1601,7.207,7.2773,7.3047,7.2383,7.1523,7.0625,6.9609,7.0117,6.9922,6.8359,6.8203,6.8164,6.8047,6.6523,6.5234,6.4336,6.3476,6.2617,6.1719,6.1719,6.1719,6.1719,6.1417,6.1283,6.1283,6.0867,6.0666,6.0666,6.0666,6.0589,6.0473,5.9819,5.9435,5.9319,5.8473,5.8088,5.7934,5.7165,5.6868,5.6676,5.5088,5.4281,5.3849,5.2857,5.2046,5.1462,5.1356,5.1082,5.0765,5.0692,5.0178,4.9574,4.95,4.8783,4.7719,4.6397,4.6911,4.7462,4.6214,4.6911,4.7939,4.8012,4.7406,4.6599,4.5883,4.5112,4.4342,4.3608,4.3515,4.3515,4.3515,4.305,4.2638,4.2508,4.139,4.0509,4.0285,3.8601,3.6702,3.4672,3.4336,3.3613,3.2022,3.2022,3.1718,3.0987,3.1582,3.1921,3.1921,3.2577,3.2916,3.2916,3.2916,3.2916,3.2916,3.3085,3.2442,4.4391,4.5532,0.0,0.0,5.3214,5.626,6.1076,6.2302,6.3164,6.5976,6.8711,7.0898,7.1758,7.3633,7.5039,0.0,7.4492,7.3945,7.3555,7.1445,6.9453,6.8125,6.7851,6.7461,6.6758,6.7148,6.7226,6.6719,6.6484,6.5976,6.5117,6.4726,6.3867,6.25,6.2461,6.2226,6.1719,6.1417,6.1283,6.1283,6.0945,6.0781,6.0781,6.0781,6.0781,6.0781,6.0396,5.9973,5.9473,5.9127,5.8434,5.7511,5.7137,5.6676,5.6175,5.5472,5.51,5.4848,5.4244,5.3826,5.3474,5.2948,5.2364,5.1804,5.1564,5.0582,4.961,4.961,4.8636,4.7553,4.7352,4.7095,4.6838,4.6654,4.7113,4.759,4.759,4.7333,4.6856,4.6067,4.5259,4.4452,4.3644,4.3515,4.3515,4.3515,4.305,4.2693,4.2693,4.1879,4.1033,4.0267,3.862,3.6939,3.526,3.5148,3.4506,3.3017,3.3322,3.3254,3.251,3.278,3.2949,3.2949,3.3254,3.3423,3.3423,3.3423,3.3423,3.3423,3.3829,3.3694,4.8498,0.0,0.0,5.4433,5.8595,6.2532,6.3808,6.5426,6.7344,6.9805,7.1719,7.3281,7.4414,7.5234,7.5781,7.5781,7.4922,7.414,7.3906,7.1094,6.8437,6.6758,6.5156,6.418,6.418,6.539,6.6015,6.5625,6.5976,6.6015,6.5625,6.5351,6.4648,6.3398,6.3125,6.2695,6.207,6.1602,6.1328,6.1283,6.1011,6.0823,6.0781,6.0781,6.0781,6.0781,6.055,6.0089,5.9473,5.9281,5.8434,5.7319,5.7099,5.6599,5.6011,5.578,5.5703,5.5682,5.5375,5.5186,5.4988,5.435,5.3539,5.2636,5.2044,5.0836,4.9674,4.9355,4.8379,4.7516,4.7883,4.7278,4.6654,4.7003,4.7259,4.7443,4.7443,4.7443,4.7113,4.6104,4.5443,4.4709,4.3698,4.3515,4.3515,4.3515,4.3178,4.2939,4.2939,4.2541,4.17,4.0215,3.8901,3.7559,3.6062,3.5735,3.5059,3.3795,3.4404,3.437,3.3457,3.3795,3.3931,3.3728,3.3897,3.4032,3.4032,3.4032,3.4032,3.4011,3.4539,3.481,4.964,0.0,5.5823,6.0222,6.2698,6.5169,6.9452,6.9844,7.0508,7.4765,7.3711,7.2578,7.4297,7.3242,7.2148,7.2148,7.2812,7.3047,7.2187,6.9844,6.7578,6.5859,6.2617,6.0547,0.0,6.289,6.4726,6.5547,6.4844,6.4726,6.5547,6.4805,6.4336,6.4258,6.3437,6.3008,6.2969,6.2004,6.1413,6.1283,6.1097,6.0945,6.0781,6.0781,6.0781,6.0742,5.9896,5.9511,5.9435,5.8665,5.8319,5.8165,5.7319,5.6983,5.6868,5.6011,5.5703,5.5703,5.5692,5.5423,5.5107,5.508,5.4206,5.2962,5.1775,5.0798,4.9856,4.866,4.8306,4.8086,4.7333,4.7663,4.8049,4.7259,4.77,4.8269,4.8269,4.8269,4.7792,4.6214,4.5883,4.5369,4.3772,4.3515,4.3515,4.3515,4.3497,4.348,4.348,4.348,4.2759,4.0872,3.9975,3.8789,3.691,3.6062,3.5284,3.4506,3.5182,3.4923,3.3457,3.4754,3.5194,3.4472,3.5182,3.5532,3.5532,3.5532,3.5532,3.5532,3.5566,3.5566,5.408,0.0,6.1785,6.5147,6.7652,7.0036,7.2695,7.3047,7.2773,7.25,7.1328,7.0,6.8828,6.8633,6.8984,7.0078,7.1484,7.2344,7.2031,7.0742,6.8594,6.5156,6.3711,0.0,0.0,0.0,0.0,6.4648,6.5547,6.6133,6.6445,6.6719,6.6367,6.5195,6.4336,6.3594,6.3008,6.1921,6.1334,6.1283,6.103,6.0845,6.0781,6.0781,6.0781,6.0781,6.0473,6.0358,6.0281,5.9435,5.8781,5.8204,5.7319,5.6637,5.6088,5.5818,5.5703,5.5703,5.5703,5.5599,5.5446,5.5186,5.4455,5.3485,5.2493,5.1243,5.002,4.9341,4.8746,4.8233,4.7957,4.8122,4.8122,4.7296,4.77,4.8159,4.7626,4.7939,4.7976,4.6892,4.6287,4.5736,4.5186,4.4195,4.3515,4.3515,4.3515,4.3515,4.3515,4.3515,4.3122,4.2122,4.1329,4.0467,3.9462,3.7884,3.684,3.6565,3.5946,3.5363,3.4856,3.5329,3.5464,3.5228,3.5464,3.56,3.56,3.56,3.56,3.56,3.56,3.5893,5.865,6.2878,6.671,6.9726,7.1953,7.3672,7.4805,7.4101,7.2578,7.0273,6.8164,6.6015,6.3711,6.3242,6.3984,6.6289,6.7851,6.9414,7.1289,7.0,6.8203,6.6328,6.4765,6.3281,0.0,0.0,0.0,6.4219,6.5625,6.6719,6.7344,6.7617,6.7344,6.6562,6.539,6.4335,6.3391,6.2375,6.1629,6.1193,6.0933,6.0781,6.0781,6.0781,6.0781,6.0781,6.0473,6.0165,5.9819,5.8973,5.8127,5.7319,5.6742,5.6214,5.5703,5.5703,5.5703,5.5703,5.5703,5.5703,5.5682,5.5399,5.4764,5.3964,5.3075,5.1989,5.0847,4.9861,4.9304,4.8882,4.8418,4.8306,4.8196,4.7626,4.7939,4.8159,4.7626,4.792,4.8086,4.7259,4.6471,4.5883,4.5883,4.5039,4.4268,4.3975,4.3938,4.3828,4.3551,4.3515,4.3286,4.2751,4.1973,4.1279,4.076,3.9021,3.797,3.797,3.7,3.6276,3.6062,3.6028,3.587,3.56,3.56,3.5735,3.6028,3.6028,3.6163,3.6411,3.6411,3.6705,6.331,6.7101,7.0664,7.3984,7.539,7.5937,7.5781,7.3047,7.0,6.8164,6.4297,6.0703,0.0,0.0,5.7578,6.1015,6.2578,6.5078,7.0078,6.8086,6.6953,0.0,0.0,0.0,0.0,0.0,0.0,6.4492,6.5273,6.6445,6.8125,6.7461,6.7383,6.8125,6.6484,6.5151,6.4208,6.3266,6.2221,6.1074,6.091,6.0804,6.0781,6.0781,6.0781,6.0742,5.9896,5.9088,5.828,5.7357,5.6522,5.5742,5.5703,5.5703,5.5703,5.5703,5.5703,5.5703,5.5703,5.5703,5.5703,5.5703,5.5164,5.4337,5.3485,5.2945,5.2178,5.0194,4.9898,4.9926,4.8623,4.8306,4.8306,4.8306,4.8306,4.8306,4.8306,4.8306,4.8086,4.7296,4.6544,4.5993,4.5847,4.5957,4.57,4.4782,4.4709,4.4452,4.3625,4.3515,4.3303,4.2789,4.2047,4.1408,4.0877,3.961,3.8812,3.8812,3.823,3.7584,3.6897,3.6863,3.6502,3.5735,3.5701,3.6096,3.6863,3.6863,3.7235,3.7922,3.7922,3.7922,6.883,7.2921,7.6406,7.7265,7.7187,7.6367,7.4414,7.0781,6.6836,6.3164,5.8437,5.4297,0.0,0.0,0.0,5.9258,6.4297,0.0,7.1289,7.2617,0.0,7.0586,0.0,6.9062,6.7383,6.7734,0.0,0.0,6.7422,6.7734,6.8164,6.8594,6.8359,6.7265,6.6172,6.5468,6.523,6.3601,6.2533,6.1944,6.1291,6.0884,6.0781,6.0781,6.0781,6.0742,5.9896,5.9396,5.9088,5.7599,5.6868,5.6599,5.5934,5.5703,5.5703,5.5703,5.5703,5.5703,5.5703,5.5703,5.5703,5.5703,5.5164,5.4408,5.3875,5.32,5.2232,5.0522,5.013,4.9926,4.8623,4.8306,4.8306,4.8306,4.8306,4.8306,4.8306,4.8306,4.8233,4.8049,4.7829,4.7131,4.5333,4.6507,4.6801,4.4195,4.4819,4.5076,4.3698,4.3515,4.3463,4.3303,4.312,4.2921,4.2814,4.1189,4.0179,4.0179,3.8757,3.7821,3.7618,3.7618,3.7516,3.7313,3.729,3.7415,3.7618,3.7618,3.7719,3.7922,3.7922,3.8193,7.3308,7.6833,7.9492,7.9101,7.8125,7.6133,7.1992,6.7734,6.2851,5.664,5.2734,0.0,4.6133,4.832,0.0,0.0,0.0,0.0,7.0234,7.2109,7.3047,0.0,7.2734,0.0,7.0586,7.0859,7.0781,0.0,6.918,6.8906,6.9297,6.9062,6.8633,6.8008,6.6797,6.5975,6.5537,6.3561,6.2484,6.2301,6.136,6.0871,6.0781,6.0781,6.0781,6.0781,6.0281,5.9858,5.9396,5.8088,5.7368,5.6907,5.6049,5.5703,5.5703,5.5703,5.5703,5.5703,5.5703,5.5703,5.5703,5.5703,5.5395,5.4957,5.4537,5.4205,5.3619,5.1992,5.1528,5.1224,4.9971,4.9544,4.9297,4.893,4.8857,4.8783,4.8379,4.8306,4.8196,4.7846,4.8086,4.7755,4.6049,4.7149,4.7572,4.5406,4.5553,4.5443,4.4195,4.3718,4.3515,4.3515,4.3515,4.3515,4.3515,4.2317,4.1482,4.12,3.9961,3.8955,3.8396,3.8396,3.8227,3.7922,3.7922,3.8058,3.8396,3.8396,3.8531,3.887,3.887,3.9073,7.6991,7.9414,8.0937,7.9961,7.8164,7.5117,6.9062,6.3945,5.8203,5.0078,0.0,4.543,4.1719,4.3906,4.75,5.1133,0.0,6.1015,6.8515,6.9765,7.1406,7.543,7.4687,7.3789,7.3672,7.3555,7.3125,7.2226,7.0703,7.0078,7.0664,6.9219,6.8594,6.9062,6.7656,6.64,6.5412,6.3489,6.2477,6.2301,6.1288,6.0827,6.0781,6.0781,6.0781,6.0781,6.0666,6.0204,5.9435,5.8627,5.7857,5.7099,5.6319,5.6049,5.6049,5.6049,5.5972,5.5857,5.5857,5.578,5.5703,5.5703,5.5626,5.5506,5.5237,5.5346,5.5247,5.3742,5.3263,5.2934,5.1717,5.1101,5.0618,4.9941,4.9757,4.9574,4.882,4.8563,4.8269,4.7553,4.7883,4.8049,4.7223,4.7773,4.8012,4.7076,4.6434,4.5773,4.4966,4.4048,4.3515,4.3515,4.3515,4.3515,4.3515,4.2921,4.2362,4.1832,4.1173,4.0326,3.9165,3.914,3.8836,3.8193,3.8193,3.8497,3.914,3.914,3.9445,4.0113,4.0113,4.0113,7.9844,8.1172,8.1679,8.0117,7.6797,7.2383,6.6367,5.9414,0.0,0.0,4.332,4.1016,4.0273,4.3516,4.7891,5.2773,0.0,0.0,0.0,0.0,7.3437,0.0,0.0,0.0,0.0,7.4805,0.0,0.0,7.2148,7.1328,7.0742,6.9726,6.8633,6.7383,6.7031,6.64,6.5412,6.4329,6.327,6.2301,6.1396,6.0905,6.0781,6.0781,6.0781,6.0742,6.005,5.9627,5.9435,5.8627,5.8204,5.805,5.7896,5.7857,5.7857,5.7857,5.7396,5.6791,5.6791,5.6291,5.5703,5.5703,5.5241,5.4808,5.5418,5.5171,5.4562,5.3938,5.3485,5.2912,5.1717,5.1101,5.0765,5.0618,5.0582,5.0545,5.0398,4.9848,4.9353,4.9206,4.871,4.8049,4.7223,4.7773,4.7792,4.6324,4.6581,4.6599,4.581,4.4415,4.3515,4.3515,4.3515,4.3515,4.3515,4.256,4.1916,4.181,4.0814,4.0136,3.991,3.991,3.9842,3.974,3.974,3.9774,3.991,3.991,3.9977,4.0113,4.0113,4.0113,8.1094,8.164,8.1211,7.9492,7.4844,6.8828,6.1875,0.0,0.0,0.0,4.0039,3.8945,3.8047,4.1367,0.0,4.8789,0.0,0.0,0.0,0.0,0.0,0.0,0.0,0.0,0.0,7.6211,7.5586,7.4726,7.3867,7.2578,7.0781,6.9492,6.8203,6.6953,6.6445,6.5971,6.5412,6.4037,6.2968,6.2301,6.1341,6.085,6.0781,6.0781,6.0781,6.0781,6.0358,6.0165,6.0127,5.9281,5.8934,5.8896,5.8473,5.8319,5.8319,5.8319,5.805,5.7588,5.7176,5.6714,5.6291,5.5857,5.5434,5.5203,5.5588,5.5434,5.5066,5.4894,5.4365,5.3736,5.3149,5.2512,5.194,5.1536,5.1096,5.0802,5.0802,5.0508,5.0215,5.0215,4.9884,4.937,4.8526,4.871,4.8563,4.7315,4.7113,4.6966,4.6562,4.548,4.4745,4.4745,4.4378,4.4121,4.4121,4.3232,4.258,4.2302,4.1464,4.0861,4.0528,4.0254,4.0113,4.0113,4.0113,4.0113,4.0113,4.0113,4.0113,4.0113,4.0113,4.0113,8.1133,8.1367,8.0547,7.8672,7.289,6.5664,5.8047,5.1367,0.0,0.0,3.7695,3.7695,3.6484,3.918,4.2383,0.0,4.7734,0.0,0.0,0.0,0.0,0.0,0.0,0.0,0.0,7.7031,0.0,7.5703,7.4453,7.2773,7.0547,6.918,6.789,6.664,6.5976,6.5343,6.4762,6.3341,6.2398,6.1988,6.1175,6.0781,6.0781,6.0781,6.0781,6.0781,6.0781,6.0781,6.0742,6.005,5.9781,5.9704,5.9088,5.8858,5.8858,5.8858,5.8704,5.8434,5.7588,5.7176,5.6868,5.5972,5.5703,5.5703,5.5703,5.5703,5.5703,5.5703,5.5186,5.4625,5.4625,5.3997,5.315,5.2438,5.1756,5.1316,5.1316,5.1169,5.1059,5.1059,5.0912,5.0618,4.9978,4.9867,4.9574,4.871,4.8049,4.7553,4.7369,4.6801,4.6397,4.6397,4.5553,4.4966,4.4966,4.4106,4.3342,4.2809,4.2044,4.1318,4.0733,4.0319,4.0113,4.0113,4.0113,4.0113,4.0113,4.0113,4.0113,4.0113,4.0113,4.0113,7.9687,8.0469,8.039,7.793,7.1523,6.4023,5.6992,0.0,0.0,3.8242,3.6719,3.6445,3.707,3.8164,4.0547,4.5391,0.0,5.0859,0.0,0.0,0.0,0.0,0.0,0.0,0.0,7.6484,7.5664,7.4805,7.2461,7.0625,6.9648,6.9414,6.8203,6.5781,6.5625,6.4706,6.2797,6.2663,6.2059,6.0943,6.0843,6.0781,6.0781,6.0781,6.0781,6.0781,6.0781,6.0781,6.0781,6.0704,6.0666,6.0666,6.0589,6.055,6.055,6.055,6.0089,5.9281,5.8473,5.7665,5.6868,5.5972,5.5703,5.5703,5.5703,5.5703,5.5703,5.5703,5.5387,5.5029,5.5029,5.4382,5.3644,5.3182,5.302,5.2983,5.2983,5.2417,5.1867,5.1867,5.1316,5.0765,5.0692,5.0692,5.0398,4.961,4.9427,4.9077,4.8306,4.8122,4.8086,4.8086,4.6728,4.5773,4.5773,4.4615,4.362,4.301,4.1726,4.0733,4.0204,4.0138,4.0113,4.0113,4.0113,4.0113,4.0113,4.0113,4.0113,4.0113,4.0113,4.0113,7.6328,7.7656,7.7422,7.5351,6.8594,6.0781,5.4414,0.0,4.1133,3.7305,3.625,3.6094,3.6445,3.7226,3.9023,4.2656,4.3086,0.0,5.457,0.0,0.0,0.0,0.0,0.0,0.0,0.0,7.7617,7.6289,7.4219,7.2226,7.0312,6.9258,6.7734,6.5664,6.5078,6.4129,6.2699,6.2112,6.1514,6.0925,6.0834,6.0781,6.0781,6.0781,6.0781,6.0781,6.0781,6.0781,6.0781,6.0781,6.0781,6.0781,6.0781,6.0781,6.0781,6.0781,6.0589,6.0165,5.9319,5.8473,5.7742,5.7396,5.6549,5.5703,5.5703,5.5703,5.5703,5.5703,5.5411,5.5107,5.5107,5.4446,5.3777,5.3604,5.338,5.3203,5.3203,5.2968,5.2711,5.2711,5.2454,5.2087,5.161,5.1499,5.1242,5.0435,5.0325,5.0178,4.9848,4.9811,4.9627,4.9114,4.7609,4.6599,4.6599,4.5681,4.4827,4.4247,4.3346,4.2556,4.2009,4.1639,4.1433,4.1433,4.1433,4.123,4.0764,4.0764,4.0527,4.0113,4.0113,4.0113,7.1484,7.3594,7.3906,7.1914,6.5508,5.8086,0.0,0.0,4.0195,3.6719,3.6016,3.6016,3.6016,3.6484,3.7773,4.0391,4.0508,4.3008,5.0859,0.0,0.0,0.0,0.0,7.2031,0.0,7.8359,7.8476,7.7305,7.5351,7.3281,7.1211,6.9492,6.7539,6.5273,6.4609,6.3704,6.2443,6.1671,6.12,6.0997,6.085,6.0781,6.0781,6.0781,6.0781,6.0781,6.0781,6.0781,6.0781,6.0781,6.0781,6.0781,6.0781,6.0781,6.0781,6.0781,6.0781,6.0666,5.9819,5.9127,5.8627,5.8396,5.7473,5.6472,5.6472,5.628,5.6088,5.6088,5.6057,5.6002,5.5872,5.5259,5.4688,5.4578,5.4021,5.3555,5.3555,5.335,5.3203,5.3203,5.3203,5.3041,5.2454,5.2344,5.2087,5.1279,5.1169,5.1059,5.0839,5.0802,5.0582,5.0014,4.8893,4.7993,4.748,4.6728,4.5932,4.512,4.4476,4.3746,4.2943,4.255,4.2286,4.2286,4.2286,4.2049,4.1542,4.1542,4.1271,4.0756,4.0756,4.0756,6.496,6.8164,7.0156,6.7617,6.2422,5.6367,0.0,4.4922,4.0195,3.6719,3.6016,3.6016,3.6016,3.6016,3.6875,3.9492,4.0625,4.3281,4.9375,0.0,0.0,0.0,0.0,6.7344,7.164,7.5195,7.7226,7.7187,7.4805,7.293,7.2031,7.039,6.789,6.4414,6.4297,6.3392,6.1543,6.1359,6.12,6.0997,6.085,6.0781,6.0781,6.0781,6.0781,6.0781,6.0781,6.0781,6.0781,6.0781,6.0781,6.0781,6.0781,6.0781,6.0781,6.0781,6.0781,6.0666,5.9819,5.9473,5.9358,5.855,5.828,5.828,5.828,5.7665,5.6983,5.6983,5.7588,5.8162,5.7695,5.7218,5.6781,5.637,5.532,5.4399,5.4399,5.3775,5.3203,5.3203,5.3203,5.3203,5.3167,5.3188,5.2931,5.2087,5.1977,5.1683,5.0912,5.0802,5.0802,5.0802,5.0765,5.0105,4.8453,4.7553,4.6577,4.5382,4.4536,4.3558,4.2366,4.2313,4.2286,4.2286,4.2286,4.2286,4.2286,4.2286,4.2286,4.2286,4.2286,4.2286,5.6007,5.8395,5.9687,5.7695,5.4453,5.0469,4.5586,4.2305,3.9492,3.6601,3.6016,3.6016,3.6016,3.6016,3.7226,4.1016,4.1836,4.3711,0.0,0.0,0.0,0.0,7.0781,7.664,0.0,0.0,7.8437,7.7305,7.5312,7.3555,7.207,7.0351,6.8398,6.6133,6.4922,6.3749,6.2534,6.1819,6.1364,6.1207,6.1036,6.0902,6.0781,6.0781,6.0781,6.0781,6.0781,6.0781,6.0781,6.0781,6.0781,6.0781,6.0781,6.0781,6.0781,6.0781,6.0781,6.0742,6.0473,6.0012,5.955,5.9896,5.9242,5.8396,5.8934,5.855,5.7896,5.7896,5.8088,5.8258,5.8127,5.7501,5.6849,5.675,5.5931,5.506,5.4509,5.4216,5.3849,5.3314,5.3203,5.3203,5.3203,5.3203,5.3115,5.2858,5.2821,5.2747,5.247,5.2433,5.2234,5.1683,5.161,5.1169,5.0105,4.9774,4.905,4.7772,4.6968,4.5995,4.4677,4.4113,4.387,4.387,4.387,4.3606,4.3064,4.3064,4.2794,4.2286,4.2286,4.2286,0.0,5.0779,5.2148,5.1055,4.8828,0.0,0.0,4.0625,3.8672,3.6055,3.5781,3.5898,3.5586,3.5781,3.7109,4.043,4.1523,4.3359,0.0,0.0,0.0,6.3476,0.0,0.0,0.0,7.8789,7.8672,7.7305,7.5586,7.3828,7.2109,7.0351,6.8789,6.7422,6.539,6.3867,6.3008,6.2004,6.1417,6.1283,6.1105,6.0945,6.0781,6.0781,6.0781,6.0781,6.0781,6.0781,0.0,6.0781,6.0781,6.0781,6.0781,6.0781,6.0781,6.0781,6.0781,6.0781,6.0781,6.0435,6.0089,6.0627,6.0089,5.9358,5.9858,5.9396,5.8819,5.9165,5.9242,5.9242,5.9242,5.8539,5.7842,5.7842,5.6942,5.5904,5.5427,5.484,5.4252,5.3739,5.3665,5.3555,5.324,5.3445,5.3555,5.324,5.3203,5.3203,5.3203,5.3203,5.3004,5.2527,5.2454,5.2234,5.1756,5.1169,5.0213,4.8884,4.8349,4.7499,4.6167,4.5669,4.5427,4.5427,4.519,4.4756,4.4282,4.4282,4.4045,4.3572,4.3301,4.3193,0.0,4.4726,0.0,0.0,0.0,0.0,4.1094,3.9531,0.0,3.5273,3.543,3.5781,3.5117,3.5586,3.6758,3.8711,4.0391,4.2695,0.0,5.1367,0.0,0.0,6.9336,0.0,7.332,7.6445,7.8008,7.7109,7.5469,7.375,7.1992,7.0312,6.9023,6.8242,6.5664,6.3906,6.3086,6.2047,6.1424,6.1283,6.112,6.0925,6.0781,6.0781,6.0781,6.0781,6.0781,6.0781,6.0781,6.0781,6.0781,6.0781,6.0781,6.0781,6.0781,6.0781,6.0781,6.0781,6.0781,6.0781,6.0781,6.0781,6.0781,6.0781,6.0781,6.0242,5.9742,6.055,6.0781,6.0781,6.0781,6.0103,5.9389,5.9389,5.8097,5.6859,5.6822,5.5647,5.4546,5.4509,5.4473,5.4252,5.3518,5.3959,5.4142,5.3387,5.3261,5.3203,5.3203,5.3203,5.3203,5.3203,5.3203,5.3203,5.3277,5.1867,5.0395,4.9061,4.8916,4.8304,4.6912,4.6819,4.6786,4.6786,4.6143,4.5771,4.5771,4.5771,4.5771,4.5771,4.506,4.475,3.4531,0.0,3.7578,3.6914,3.6797,3.6719,0.0,3.6445,3.6445,3.582,0.0,3.6328,3.7461,3.7305,3.8437,4.2773,4.3828,4.5547,4.9648,0.0,0.0,6.8672,7.3789,7.6289,7.4453,7.625,7.6875,7.5312,7.4219,7.2851,7.1094,7.0039,6.9062,6.8242,6.5664,6.4219,6.3984,6.2459,6.1522,6.1283,6.1246,6.1087,6.0781,6.0781,6.0781,6.0781,6.0781,6.0781,6.0781,6.0781,6.0781,6.0781,6.0781,6.0781,6.0781,6.0781,6.0781,6.0781,6.0781,6.0781,6.0781,6.0781,6.0781,6.0781,6.0781,6.0666,6.055,6.0742,6.0781,6.0781,6.0781,6.0103,5.9389,5.9389,5.8544,5.7556,5.6932,5.6492,5.6051,5.5427,5.5317,5.5244,5.506,5.4693,5.4326,5.4142,5.3592,5.3203,5.3203,5.3203,5.3203,5.3203,5.3203,5.3445,5.4069,5.3225,5.2031,5.0657,5.0014,4.9108,4.7691,4.709,4.6786,4.6786,4.6616,4.6549,4.6549,4.6549,4.6549,4.6549,4.6346,4.6278,3.1484,3.3125,3.4766,3.5117,3.4922,3.4922,3.5703,0.0,0.0,0.0,0.0,0.0,0.0,3.7695,3.918,4.3164,4.4805,0.0,0.0,0.0,6.6133,7.0742,7.414,7.6015,0.0,7.6289,7.6055,7.4687,7.3437,7.1953,7.0195,6.9336,6.8515,6.7617,6.5469,6.4297,6.4297,6.2578,6.1575,6.1283,6.1283,6.1136,6.0781,6.0781,6.0781,6.0781,6.0781,6.0781,6.0781,6.0781,6.0781,6.0781,6.0781,6.0781,6.0781,6.0781,6.0781,6.0781,6.0781,6.0781,6.0781,6.0781,6.0781,6.0781,6.0781,6.0781,6.0781,6.0781,6.0781,6.0781,6.0781,6.0103,5.9389,5.9389,5.8693,5.7886,5.7446,5.7079,5.6675,5.6235,5.6161,5.6014,5.5647,5.5537,5.539,5.5023,5.4583,5.4289,5.4289,5.4289,5.4289,5.4289,5.3959,5.4069,5.4876,5.4216,5.3294,5.218,5.1408,5.0336,4.891,4.8519,4.8003,4.7327,4.7293,4.7293,4.7293,4.7293,4.7293,4.7293,4.7293,4.7124,3.1016,3.3164,3.5312,3.6289,3.5586,3.5117,3.6719,0.0,0.0,0.0,0.0,0.0,0.0,3.8398,0.0,0.0,0.0,0.0,5.9219,6.2578,6.6172,7.1562,7.3203,0.0,7.6445,7.6055,7.5351,7.4453,7.2773,7.1094,6.9492,6.8515,6.7617,6.6719,6.5,6.4101,6.4101,6.25,6.1579,6.1323,6.1295,6.1151,6.0811,6.0804,6.0781,6.0781,6.0781,6.0781,6.0781,6.0781,6.0781,6.0781,6.0781,6.0781,6.0781,6.0781,6.0781,6.0781,6.0781,6.0781,6.0781,6.0781,6.0781,6.0781,6.0781,6.0781,6.0781,6.0781,6.0781,6.0781,6.0781,6.0103,5.9389,5.9389,5.8693,5.7997,5.7997,5.7446,5.6969,5.6969,5.6969,5.6785,5.6088,5.6418,5.6565,5.5868,5.5706,5.5596,5.5596,5.5596,5.5596,5.5596,5.4987,5.4913,5.5684,5.506,5.4385,5.388,5.3024,5.1907,5.0443,5.0317,4.9616,4.8274,4.8376,4.8277,4.8041,4.8206,4.8206,4.8041,4.8041,4.7733,3.2578,3.4922,3.6289,3.3633,3.3867,3.4961,3.5976,0.0,0.0,0.0,0.0,0.0,0.0,4.2851,4.5117,0.0,0.0,5.9219,0.0,0.0,7.039,7.2812,0.0,7.5898,7.4062,7.4453,7.4453,7.3555,7.1875,7.0469,6.9453,6.793,6.6719,6.582,6.4101,6.3203,6.3203,6.2187,6.1631,6.1481,6.1344,6.1186,6.0982,6.0867,6.0781,6.0781,6.0781,6.0781,6.0781,6.0781,6.0781,6.0781,6.0781,6.0781,6.0781,6.0781,6.0781,6.0781,6.0781,6.0781,6.0781,6.0781,6.0781,6.0781,6.0781,6.0781,6.0781,6.0781,6.0781,6.0781,6.0781,6.0103,5.9389,5.9389,5.8693,5.7997,5.7997,5.7886,5.7813,5.7813,5.7813,5.7776,5.7629,5.7189,5.6748,5.6638,5.6051,5.5596,5.5596,5.5596,5.5596,5.5596,5.5486,5.5721,5.6565,5.5868,5.5662,5.6209,5.4991,5.3557,5.2091,5.1371,5.0639,4.9794,5.0405,5.0101,4.8849,4.9458,4.9424,4.8849,4.8849,4.8781,3.1719,3.3945,3.5625,3.4531,3.625,3.8203,3.8125,3.8125,0.0,0.0,0.0,0.0,0.0,0.0,4.8867,5.4219,0.0,6.2578,6.6367,6.832,7.0312,0.0,7.4375,7.5,7.4726,7.4648,7.4023,7.2695,7.1015,6.9687,6.8789,6.7148,6.6015,6.5625,6.3906,6.3008,6.3008,6.2063,6.1517,6.1383,6.1318,6.1143,6.0902,6.0811,6.0781,6.0781,6.0781,6.0781,6.0781,6.0781,6.0781,6.0781,6.0781,6.0781,6.0781,6.0781,6.0781,6.0781,6.0781,6.0781,6.0781,6.0781,6.0781,6.0781,6.0781,6.0781,6.0781,6.0781,6.0781,6.0781,6.0781,6.0103,5.9389,5.9389,5.8693,5.7997,5.7997,5.7997,5.7997,5.7997,5.7997,5.7997,5.7997,5.7703,5.7446,5.7446,5.7116,5.6895,5.6895,5.6895,5.6895,5.6895,5.6492,5.6565,5.7373,5.6712,5.6246,5.6224,5.5196,5.4125,5.3063,5.2245,5.1477,5.071,5.1048,5.0879,5.0202,5.0541,5.0541,5.0202,5.0202,5.0202,3.1211,3.3203,3.5156,3.582,0.0,4.043,4.0976,4.0937,0.0,0.0,0.0,0.0,0.0,4.8516,0.0,5.9101,6.2578,6.5351,6.7773,6.9023,7.0742,7.3555,7.3711,7.414,7.5469,7.4805,7.3555,7.1836,7.0312,6.9101,6.8242,6.6367,6.5312,6.5312,6.3594,6.2695,6.2653,6.1881,6.1467,6.1339,6.1265,6.1112,6.0856,6.0816,6.0781,6.0781,6.0781,6.0781,6.0781,6.0781,6.0781,6.0781,6.0781,6.0781,6.0781,6.0781,6.0781,6.0781,6.0781,6.0781,6.0781,6.0781,6.0781,6.0781,6.0781,6.0781,6.0781,6.0781,6.0781,6.0781,6.0781,6.0103,5.9389,5.9389,5.8693,5.7997,5.7997,5.7997,5.7997,5.7997,5.7997,5.7997,5.7997,5.7997,5.7997,5.7997,5.7997,5.7997,5.7997,5.7997,5.7997,5.7997,5.7446,5.7336,5.796,5.7446,5.6836,5.6284,5.5535,5.4866,5.4297,5.3393,5.2537,5.1775,5.1754,5.1589,5.1185,5.1386,5.1386,5.1185,5.1185,5.1116,3.2773,3.4531,3.5937,3.5976,3.6797,3.8828,4.3555,4.4023,0.0,4.8711,0.0,0.0,0.0,5.4375,5.8437,6.2148,6.6289,6.9648,7.1406,0.0,7.4531,7.5586,7.5,7.457,7.4687,7.3906,7.2656,7.0937,7.0,6.9101,6.8242,6.5781,6.4375,6.4375,6.2695,6.1713,6.1629,6.1546,6.1501,6.1491,6.1168,6.1006,6.097,6.0877,6.0781,6.0781,6.0781,6.0781,6.0781,6.0781,6.0781,6.0781,6.0781,6.0781,6.0781,6.0781,6.0781,6.0781,6.0781,6.0781,6.0781,6.0781,6.0781,6.0781,6.0781,6.0781,6.0781,6.0781,6.0781,6.0781,6.0781,6.0103,5.9389,5.9389,5.8693,5.7997,5.7997,5.7997,5.7997,5.7997,5.7997,5.7997,5.7997,5.7997,5.7997,5.7997,5.7997,5.7997,5.7997,5.7997,5.7997,5.7997,5.796,5.7923,5.7997,5.796,5.79,5.7817,5.7084,5.6635,5.6639,5.5158,5.4039,5.3333,5.3336,5.2638,5.1185,5.1894,5.186,5.1185,5.1185,5.0845,3.168,3.3867,3.625,3.7344,3.8672,0.0,0.0,4.7226,5.0078,5.2812,5.5156,0.0,0.0,0.0,6.0,6.3984,6.6914,6.9648,7.2422,7.3398,7.3906,7.4258,7.3984,7.3594,7.3047,7.2187,7.1172,6.9961,6.8633,6.75,6.664,6.4609,6.3476,6.3476,6.2344,6.1634,6.1504,6.1404,6.1328,6.1188,6.1042,6.0963,6.0871,6.0839,6.0781,6.0781,6.0781,6.0781,6.0781,6.0781,6.0781,6.0781,6.0781,6.0781,6.0781,6.0781,6.0781,6.0781,6.0781,6.0781,6.0781,6.0781,6.0781,6.0781,6.0781,6.0781,6.0781,6.0781,6.0781,6.0781,6.0781,6.0103,5.9389,5.9389,5.8693,5.7997,5.7997,5.7997,5.7997,5.7997,5.7997,5.7997,5.7997,5.7997,5.7997,5.7997,5.7997,5.7997,5.7997,5.7997,5.7997,5.7997,5.7997,5.7997,5.7997,5.7997,5.7997,5.7997,5.7703,5.735,5.6938,5.5837,5.4928,5.4187,5.3744,5.3213,5.2638,5.2909,5.2909,5.2638,5.2638,5.2469,3.1562,3.3594,3.6016,3.7734,0.0,0.0,4.6641,5.0156,5.3672,5.7031,5.8945,6.0078,6.0351,0.0,0.0,0.0,6.75,6.9805,7.2148,7.2734,7.2695,7.2148,7.1836,7.1445,7.0859,7.0,6.914,6.8281,6.7148,6.6094,6.5234,6.3789,6.3008,6.3008,6.2107,6.1577,6.1421,6.1295,6.1112,6.0925,6.0925,6.0902,6.0781,6.0781,6.0781,6.0781,6.0781,6.0781,6.0781,6.0781,6.0781,6.0781,6.0781,6.0781,6.0781,6.0781,6.0781,6.0781,6.0781,6.0781,6.0781,6.0781,6.0781,6.0781,6.0781,6.0781,6.0781,6.0781,6.0781,6.0781,6.0781,6.0103,5.9354,5.9212,5.857,5.7997,5.7997,5.7997,5.7997,5.7997,5.7997,5.7997,5.7997,5.7997,5.7997,5.7997,5.7997,5.7997,5.7997,5.7997,5.7997,5.7997,5.7997,5.7997,5.7997,5.7997,5.7997,5.7997,5.7997,5.7774,5.7277,5.6501,5.5724,5.4969,5.42,5.3717,5.3518,5.3518,5.3518,5.3518,5.3518,5.3382,3.2969,3.4062,3.5156,3.6914,0.0,0.0,5.1562,5.2773,5.4726,6.164,6.2344,6.1992,6.2851,6.2305,0.0,6.5195,6.8437,7.0664,7.0703,7.1406,7.1328,6.957,6.8672,6.8164,6.8164,6.7383,6.6523,6.5664,6.5586,6.5195,6.4336,6.3476,6.3008,6.3008,6.2006,6.1421,6.1283,6.1105,6.0916,6.0781,6.0781,6.0781,6.0781,6.0781,6.0781,6.0781,6.0781,6.0781,6.0781,6.0781,6.0781,6.0781,6.0781,6.0781,6.0781,6.0781,6.0781,6.0781,6.0781,6.0781,6.0781,6.0781,6.0781,6.0781,6.0781,6.0781,6.0781,6.0781,6.0781,6.0781,6.0781,6.0103,5.9266,5.8815,5.8332,5.7997,5.7997,5.7997,5.7997,5.7997,5.7997,5.7997,5.7997,5.7997,5.7997,5.7997,5.7997,5.7997,5.7997,5.7997,5.7997,5.7997,5.7997,5.7997,5.7997,5.7997,5.7997,5.7997,5.7997,5.7997,5.7997,5.7302,5.6536,5.5724,5.4999,5.4232,5.3518,5.3518,5.3518,5.3518,5.3518,5.3078,3.3437,3.5391,0.0,4.1055,0.0,0.0,0.0,5.7265,0.0,0.0,6.5976,6.5234,6.4883,6.4609,0.0,6.5469,6.6953,6.8476,6.9687,6.9531,6.8906,6.7773,6.6875,6.6367,6.6367,6.5586,6.5234,6.5586,6.4453,6.3672,6.3398,6.2578,6.2028,6.1963,6.1671,6.1383,6.1097,6.1031,6.0916,6.0781,6.0781,6.0781,6.0781,6.0781,6.0781,6.0781,6.0781,6.0781,6.0781,6.0781,6.0781,6.0781,6.0781,6.0781,6.0781,6.0781,6.0781,6.0781,6.0781,6.0781,6.0781,6.0781,6.0781,6.0781,6.0781,6.0781,6.0781,6.0781,6.0781,6.0647,5.9977,5.9592,5.9354,5.9212,5.857,5.7997,5.7997,5.7997,5.7997,5.7997,5.8474,5.8657,5.8107,5.8474,5.8657,5.8107,5.7997,5.7997,5.7997,5.7997,5.7997,5.7997,5.7997,5.7997,5.7997,5.7997,5.7997,5.7997,5.7997,5.7997,5.7997,5.7302,5.6536,5.5724,5.4999,5.4232,5.3518,5.3518,5.3518,5.3518,5.3518,5.3382,3.5039,3.6992,0.0,4.4141,4.8516,5.3398,5.9765,0.0,0.0,0.0,6.7969,6.6836,6.668,6.5781,0.0,6.6015,6.6836,6.7656,6.8359,6.8008,6.7226,6.6015,6.5117,6.457,6.457,6.3789,6.3476,6.4023,6.3086,6.2461,6.2461,6.1992,6.1678,6.158,6.1517,6.1387,6.1128,6.1048,6.0916,6.0781,6.0435,6.0281,6.0281,6.0627,6.0781,6.0781,6.0781,6.0781,6.0781,6.0781,6.0781,6.0781,6.0781,6.0781,6.0781,6.0781,6.0781,6.0781,6.0781,6.0781,6.0781,6.0781,6.0781,6.0781,6.0781,6.0781,6.0781,6.0781,6.0781,6.0622,5.987,5.9526,5.9302,5.8932,5.8418,5.7997,5.7997,5.7997,5.7997,5.7997,5.84,5.8584,5.807,5.8694,5.8927,5.8107,5.7997,5.7997,5.7997,5.7997,5.7997,5.7997,5.7997,5.8143,5.8437,5.818,5.8143,5.8474,5.818,5.7997,5.7997,5.7546,5.6953,5.6204,5.5408,5.4665,5.3946,5.3651,5.3518,5.3518,5.3518,5.3518,3.7305,3.8828,4.0508,4.6562,5.1641,0.0,6.332,6.7305,6.9805,7.0351,0.0,6.7422,6.8086,6.6172,6.5039,6.6523,6.7383,6.7578,6.6758,6.6601,6.5976,6.4375,6.3398,6.289,6.289,6.2148,6.1719,6.1719,6.164,6.1562,6.1562,6.1523,6.1484,6.1562,6.1377,6.1226,6.1172,6.0911,6.0693,6.0596,5.9792,5.9396,5.9435,6.0204,6.0589,6.0704,6.0781,6.0781,6.0781,6.0781,6.0781,6.0781,6.0781,6.0781,6.0781,6.0781,6.0781,6.0781,6.0781,6.0781,6.0781,6.0781,6.0781,6.0781,6.0781,6.0781,6.0781,6.0781,6.0781,6.0671,6.0161,5.9744,5.9158,5.8216,5.7997,5.7997,5.7997,5.7997,5.7997,5.7997,5.807,5.8107,5.7997,5.8694,5.8927,5.8217,5.8107,5.8107,5.8107,5.8033,5.7997,5.7997,5.807,5.84,5.9148,5.8547,5.8437,5.9148,5.8437,5.7997,5.7997,5.7997,5.7655,5.6912,5.6087,5.535,5.4606,5.3848,5.3518,5.3518,5.3518,5.3518,3.8125,4.0547,0.0,0.0,5.793,6.4883,6.7734,6.9961,7.0937,6.9101,6.9336,6.9531,6.8398,6.7187,6.625,6.5937,6.5469,6.5078,6.4883,6.4258,6.3711,6.332,6.25,6.1992,6.1992,6.1797,6.1719,6.1719,6.1055,6.0664,6.0664,6.0078,5.9996,6.0512,5.9831,5.9736,6.0266,5.9468,5.9026,5.9011,5.8687,5.855,5.855,5.8742,5.9165,5.9819,6.0512,6.0781,6.0781,6.0781,6.0781,6.0781,6.0781,6.0781,6.0781,6.0781,6.0781,6.0781,6.0781,6.0781,6.0781,6.0781,6.0781,6.0781,6.0781,6.0781,6.0781,6.0781,6.0781,6.061,5.9776,5.9475,5.9158,5.8216,5.7997,5.7997,5.7997,5.7997,5.7997,5.7997,5.851,5.8767,5.8107,5.8694,5.9148,5.8964,5.8927,5.8927,5.8927,5.84,5.7997,5.7997,5.8584,5.9001,5.9184,5.9038,5.9001,5.9184,5.8437,5.7997,5.7997,5.7997,5.7655,5.6912,5.6087,5.535,5.4606,5.3848,5.3518,5.3518,5.3518,5.3518,3.8633,0.0,0.0,5.4375,0.0,6.6836,6.9023,7.0156,7.039,6.9101,6.9492,6.957,6.789,6.6875,6.5976,6.5117,6.4609,6.414,6.375,6.3281,6.2851,6.2422,6.1992,6.1719,6.1719,6.1328,6.1094,6.1094,6.0312,5.9844,5.9844,5.9414,5.9373,5.9711,5.928,5.9159,5.9377,5.8869,5.8529,5.8414,5.7934,5.7473,5.7088,5.7934,5.8742,5.9511,5.9973,6.0396,6.0781,6.0781,6.0781,6.0781,6.0781,6.0781,6.0781,6.0781,6.0781,6.0781,6.0781,6.0781,6.0781,6.0781,6.0781,6.0781,6.0781,6.0781,6.0781,6.0781,6.0781,6.0634,5.9916,5.9744,5.9543,5.8835,5.8348,5.7997,5.7997,5.7997,5.7997,5.7997,5.8327,5.8621,5.8584,5.9245,5.9625,5.9258,5.9184,5.9184,5.9184,5.8817,5.8731,5.9098,5.9538,5.9942,6.0309,6.0015,5.9942,6.0309,5.9245,5.8584,5.8584,5.8217,5.7821,5.7425,5.6695,5.5893,5.5114,5.4391,5.3849,5.3518,5.3518,5.3518,3.8828,0.0,4.8359,5.7656,6.2812,0.0,6.8515,6.9219,6.9336,6.9101,6.9023,6.8515,6.6953,6.5859,6.4922,6.418,6.3945,6.3594,6.289,6.2773,6.25,6.1797,6.1719,6.164,6.1484,6.082,6.0351,6.0195,5.9453,5.8984,5.8984,5.8828,5.8828,5.8984,5.8828,5.8692,5.853,5.8348,5.8132,5.7884,5.7121,5.6406,5.5742,5.7203,5.8396,5.9319,5.9435,5.9973,6.0781,6.0781,6.0781,6.0781,6.0781,6.0781,6.0781,6.0781,6.0781,6.0781,6.0781,6.0781,6.0781,6.0781,6.0781,6.0781,6.0781,6.0781,6.0781,6.0781,6.0781,6.0671,6.0203,6.0103,5.9977,5.9509,5.8736,5.8119,5.8119,5.8065,5.7997,5.7997,5.7997,5.8253,5.9038,5.9869,6.0236,5.9685,5.9588,5.9588,5.9588,5.9478,5.9685,6.0346,6.0529,6.0896,6.152,6.1006,6.0896,6.1557,6.0236,5.9404,5.9404,5.8767,5.8364,5.8217,5.735,5.6589,5.592,5.5029,5.4296,5.3718,5.3551,5.3518,3.8242,0.0,5.1797,0.0,6.1953,6.5898,0.0,0.0,6.8984,0.0,6.7226,6.6914,6.5937,6.4453,6.332,6.3203,6.2539,6.1992,6.1875,6.1875,6.1836,6.1719,6.1719,6.1406,6.0664,6.0469,6.0117,5.9414,5.8555,5.8086,5.8086,5.7344,5.7305,5.8047,5.7344,5.7219,5.7821,5.6952,5.6414,5.6222,5.5971,5.5818,5.5703,5.5934,5.6934,5.8511,5.9204,5.9973,6.0781,6.0781,6.0781,6.0781,6.0781,6.0781,6.0781,6.0781,6.0781,6.0781,6.0781,6.0781,6.0781,6.0781,6.0781,6.0781,6.0781,6.0781,6.0781,6.0781,6.0781,6.0671,6.0203,6.0103,5.9977,5.9509,5.9009,5.8611,5.8611,5.8304,5.7997,5.7997,5.7997,5.8253,5.9038,5.9869,6.0603,6.119,6.1263,6.1263,6.1263,6.0676,6.0272,6.0382,6.1006,6.1484,6.1594,6.1484,6.1484,6.1594,6.075,6.0236,6.0236,6.0126,5.9758,5.9038,5.7604,5.6861,5.6721,5.5297,5.4544,5.4419,5.3816,5.3518,4.1172,4.5312,4.9922,0.0,5.9609,6.2617,6.4922,6.6015,6.6484,6.6211,6.539,6.4609,6.4219,6.3515,6.2851,6.2344,6.1953,6.1719,6.1719,6.1719,6.1523,6.1015,6.0976,6.0625,5.9805,5.9297,5.8867,5.8515,5.7656,5.7187,5.7187,5.6797,5.6797,5.7148,5.6711,5.6365,5.6125,5.6063,5.5955,5.5798,5.5728,5.5703,5.5703,5.5703,5.6665,5.8319,5.8665,5.9588,6.0781,6.0781,6.0781,6.0781,6.0781,6.0781,6.0781,6.0781,6.0781,6.0781,6.0781,6.0781,6.0781,6.0781,6.0781,6.0781,6.0781,6.0781,6.0781,6.0781,6.0781,6.0757,6.0533,6.0495,6.0456,6.0217,5.9609,5.9084,5.9084,5.8545,5.7997,5.7997,5.8731,5.9318,5.9221,6.0615,6.1557,6.1006,6.13,6.1594,6.1594,6.13,6.1263,6.1704,6.2071,6.2291,6.2291,6.2291,6.2291,6.2291,6.152,6.108,6.108,6.0639,6.0236,5.9905,5.9213,5.8199,5.6887,5.6241,5.5444,5.4606,5.3815,5.3518,0.0,0.0,4.6758,5.2812,5.6094,5.8789,0.0,0.0,6.3906,0.0,6.3906,6.2851,6.2422,6.2539,6.2461,6.1797,6.1523,6.1367,6.1367,6.1172,6.082,6.0156,6.0117,5.9765,5.8945,5.8281,5.7812,5.7578,5.6953,5.6484,5.6289,5.6484,5.6484,5.6289,5.6149,5.5691,5.4918,5.5319,5.5595,5.5703,5.5703,5.5703,5.5703,5.5703,5.6511,5.7973,5.8204,5.9127,6.0473,6.0704,6.0781,6.0781,6.0781,6.0781,6.0781,6.0781,6.0781,6.0781,6.0781,6.0781,6.0781,6.0781,6.0781,6.0781,6.0781,6.0781,6.0781,6.0781,6.0781,6.0781,6.0781,6.0781,6.0781,6.0781,6.0089,5.9337,5.9121,5.8651,5.829,5.829,5.9428,6.0272,5.9905,6.13,6.2181,6.1153,6.152,6.1887,6.1887,6.1887,6.2144,6.2768,6.278,6.278,6.278,6.278,6.278,6.278,6.2254,6.1887,6.1887,6.1337,6.0933,6.0713,6.0933,5.9956,5.7782,5.7388,5.6516,5.5157,5.4207,5.3651,0.0,4.0742,0.0,4.7148,5.1172,0.0,0.0,0.0,6.207,6.2969,6.3047,6.25,6.0859,6.1211,6.1758,6.1719,6.1015,6.0469,6.0469,5.9805,5.9297,5.9258,5.9258,5.8906,5.8047,5.793,5.7578,5.6719,5.664,5.625,5.539,5.6133,5.6211,5.539,5.5254,5.5074,5.4918,5.4671,5.4955,5.5703,5.5703,5.5703,5.5703,5.5703,5.6203,5.7099,5.7934,5.8781,5.9627,6.0473,6.0781,6.0781,6.0781,6.0781,6.0781,6.0781,6.0781,6.0781,6.0781,6.0781,6.0781,6.0781,6.0781,6.0781,6.0781,6.0781,6.0781,6.0781,6.0781,6.0781,6.0781,6.0781,6.0781,6.0781,6.0089,5.9139,5.826,5.863,5.9148,5.9148,5.9832,6.0639,6.1337,6.1594,6.1887,6.2585,6.2707,6.2768,6.2768,6.2768,6.2743,6.278,6.278,6.278,6.278,6.278,6.278,6.278,6.2768,6.2768,6.2768,6.267,6.2328,6.1557,6.2291,6.1863,6.0224,5.874,5.7594,5.6757,5.5223,5.4171,0.0,0.0,0.0,4.5078,4.8359,5.1328,5.3672,5.6406,5.8515,5.8828,5.9765,6.0351,5.9726,6.0312,6.0703,6.0195,5.9844,5.9648,5.9648,5.9375,5.8984,5.8437,5.8359,5.8008,5.7148,5.707,5.6953,5.6601,5.6094,5.5625,5.5312,5.5078,5.4805,5.4492,5.424,5.4019,5.3829,5.3726,5.4087,5.4934,5.5434,5.5703,5.5703,5.5703,5.5857,5.6203,5.7088,5.8242,5.9588,6.0435,6.0781,6.0781,6.0781,6.0781,6.0781,6.0781,6.0781,6.0781,6.0781,6.0781,6.0781,6.0781,6.0781,6.0781,6.0781,6.0781,6.0781,6.0781,6.1204,6.1524,6.0935,6.1589,6.2194,6.1362,6.0722,5.9907,5.8702,5.8858,5.9331,5.9869,6.0639,6.1263,6.1557,6.2034,6.2475,6.2768,6.278,6.278,6.278,6.278,6.278,6.278,6.278,6.278,6.278,6.278,6.278,6.278,6.278,6.278,6.278,6.278,6.2658,6.2401,6.2658,6.2034,6.0419,5.9372,5.8457,5.7621,5.5559,5.4451,3.8555,0.0,0.0,0.0,0.0,4.7734,5.0039,5.2578,5.4765,5.5937,5.7305,5.8437,5.8711,5.9219,5.9492,5.9258,5.8945,5.875,5.875,5.8515,5.8125,5.7539,5.7226,5.6797,5.6211,5.5898,5.5742,5.5742,5.5195,5.4726,5.4453,5.4141,5.3826,5.3457,5.3241,5.3197,5.3203,5.3203,5.378,5.4895,5.5434,5.5703,5.5703,5.5703,5.5703,5.5742,5.6637,5.7627,5.8742,5.9896,6.0358,6.0396,6.0704,6.0781,6.0781,6.0781,6.0781,6.0781,6.0781,6.0781,6.0781,6.0781,6.0781,6.0781,6.0781,6.0781,6.0781,6.0781,6.1216,6.1601,6.132,6.2243,6.3041,6.2051,6.1446,6.0903,6.0102,5.9753,5.9735,6.0309,6.1263,6.1998,6.1998,6.2438,6.278,6.278,6.278,6.278,6.278,6.278,6.278,6.278,6.278,6.278,6.278,6.278,6.278,6.278,6.278,6.278,6.278,6.278,6.278,6.278,6.278,6.2291,6.119,6.0438,5.9522,5.849,5.6894,5.5779,0.0,0.0,0.0,0.0,0.0,0.0,4.793,0.0,5.1016,5.4375,5.582,5.6719,5.7539,5.7734,5.8047,5.8867,5.8359,5.7851,5.7812,5.7109,5.6562,5.6562,5.5781,5.5273,5.5273,5.4492,5.3984,5.3984,5.3984,5.3594,5.2734,5.3476,5.3419,5.2315,5.2266,5.2537,5.3164,5.3203,5.4049,5.5665,5.5703,5.5703,5.5703,5.5703,5.5703,5.5742,5.6599,5.6983,5.7137,5.8819,5.9511,5.9627,6.0473,6.0781,6.0781,6.0781,6.0781,6.0781,6.0781,6.0781,6.0781,6.0781,6.0781,6.0781,6.0781,6.0781,6.0819,6.0819,6.0858,6.1089,6.1985,6.2781,6.3233,6.2777,6.2281,6.2015,6.2346,6.1365,6.0456,6.0456,6.1741,6.278,6.278,6.278,6.278,6.278,6.278,6.278,6.278,6.278,6.278,6.278,6.278,6.278,6.2842,6.278,6.278,6.2842,6.278,6.278,6.278,6.278,6.278,6.278,6.278,6.278,6.278,6.1998,6.082,5.9374,5.9338,5.8075,3.8828,0.0,0.0,0.0,0.0,0.0,4.3984,0.0,4.7812,4.9414,5.1406,5.2891,5.3164,5.4219,5.4961,5.457,5.5898,5.6758,5.6094,5.582,5.5664,5.5664,5.4883,5.4375,5.4375,5.4141,5.3984,5.3984,5.3437,5.2969,5.2695,5.2344,5.1896,5.1454,5.1444,5.1684,5.2241,5.2895,5.3741,5.4857,5.5434,5.5703,5.5703,5.5703,5.5703,5.5703,5.5934,5.6406,5.7137,5.8819,5.9858,6.0473,6.0704,6.0781,6.0781,6.0781,6.0781,6.0781,6.0781,6.0781,6.0781,6.0781,6.0781,6.0781,6.0781,6.0781,6.0935,6.1562,6.2166,6.2935,6.4474,6.4551,6.4218,6.409,6.3366,6.2616,6.2128,6.1633,6.1447,6.2034,6.2487,6.278,6.278,6.278,6.278,6.278,6.278,6.278,6.278,6.278,6.278,6.278,6.278,6.3062,6.3686,6.3172,6.3062,6.3686,6.3172,6.278,6.278,6.278,6.278,6.278,6.278,6.278,6.278,6.1998,6.1373,6.0918,5.9838,5.8677,0.0,0.0,0.0,0.0,0.0,0.0,4.1914,4.3086,4.4414,4.5273,4.6914,4.8398,4.9141,5.0391,5.1172,5.0664,5.2461,5.4101,5.4687,5.4765,5.4765,5.4765,5.3984,5.3476,5.3476,5.3125,5.3086,5.3437,5.2656,5.2148,5.2148,5.168,5.1309,5.1099,5.1089,5.1367,5.1895,5.2769,5.3626,5.4511,5.5318,5.5703,5.5703,5.5703,5.5703,5.5703,5.5703,5.6395,5.7627,5.8588,5.9511,6.0281,6.0666,6.0781,6.0781,6.0781,6.0781,6.0781,6.0781,6.0781,6.0781,6.0781,6.0781,6.0781,6.0781,6.0781,6.0973,6.187,6.2935,6.4089,6.5089,6.5243,6.5128,6.5128,6.4496,6.3772,6.3104,6.2699,6.2385,6.2304,6.2585,6.278,6.278,6.278,6.278,6.278,6.278,6.278,6.278,6.278,6.278,6.278,6.278,6.3025,6.3503,6.3099,6.3025,6.3539,6.3099,6.278,6.278,6.278,6.278,6.278,6.278,6.278,6.278,6.2328,6.2108,6.2071,6.0817,5.9835,0.0,0.0,0.0,0.0,0.0,0.0,4.125,4.1328,4.1641,4.2266,4.3086,4.418,4.5742,4.6797,4.7422,4.7344,4.8789,5.0781,5.3359,5.3711,5.375,5.3828,5.3086,5.2578,5.2578,5.1836,5.1719,5.25,5.1836,5.1406,5.1406,5.1406,5.1304,5.1099,5.1079,5.1347,5.1895,5.2769,5.3626,5.4511,5.5318,5.5703,5.5703,5.5703,5.5703,5.5703,5.5703,5.6626,5.8165,5.828,5.8819,5.9704,6.0512,6.0781,6.0781,6.0781,6.0781,6.0781,6.0781,6.0781,6.0781,6.0781,6.0781,6.0781,6.0781,6.0858,6.1127,6.2101,6.3512,6.4743,6.4743,6.532,6.5897,6.5897,6.5446,6.49,6.4481,6.3954,6.314,6.1973,6.2328,6.278,6.278,6.278,6.278,6.278,6.278,6.278,6.278,6.278,6.278,6.278,6.278,6.2842,6.2952,6.2952,6.2952,6.2952,6.3,6.2964,6.278,6.289,6.2915,6.278,6.278,6.278,6.278,6.278,6.278,6.278,6.2071,6.1368,0.0,0.0,0.0,0.0,0.0,0.0,4.168,4.2226,4.3047,4.25,4.3086,4.3789,4.4141,4.5508,4.6328,4.5625,4.6953,4.8984,5.1562,5.1914,5.2187,5.2851,5.2187,5.1641,5.1641,5.1484,5.1484,5.1641,5.1484,5.1406,5.1406,5.1316,5.1183,5.1099,5.1017,5.1254,5.1885,5.2769,5.3626,5.4511,5.5318,5.5703,5.5703,5.5703,5.5703,5.5703,5.5703,5.628,5.733,5.8011,5.9204,6.055,6.0742,6.0781,6.0781,6.0781,6.0781,6.0781,6.0781,6.0781,6.0781,6.0781,6.0781,6.0781,6.0781,6.1281,6.2178,6.3666,6.4859,6.5628,6.5628,6.5782,6.5897,6.5897,6.5199,6.45,6.4407,6.3637,6.288,6.2646,6.267,6.278,6.278,6.278,6.278,6.278,6.278,6.278,6.278,6.278,6.278,6.278,6.278,6.3099,6.3796,6.3833,6.3833,6.3833,6.4457,6.4237,6.2853,6.3466,6.3503,6.278,6.278,6.278,6.278,6.278,6.278,6.278,6.2658,6.2473,0.0,0.0,0.0,4.3711,0.0,0.0,0.0,4.1797,4.1797,4.1797,4.1445,4.1406,4.2305,4.2812,4.3242,4.3633,4.4453,4.6055,4.9062,4.9883,5.0312,5.0742,5.043,5.0156,5.0156,5.0547,5.0976,5.1367,5.1406,5.1366,5.1317,5.1258,5.1147,5.099,5.0939,5.1021,5.1279,5.2549,5.3203,5.3241,5.4895,5.5472,5.5126,5.5511,5.5703,5.5703,5.5703,5.6214,5.706,5.7934,5.905,6.0204,6.0627,6.0781,6.0781,6.0781,6.0781,6.0781,6.0781,6.0781,6.0781,6.0781,6.0781,6.0781,6.0781,6.1704,6.2974,6.4243,6.5243,6.5897,6.5897,6.5897,6.5897,6.5897,6.5513,6.5025,6.4519,6.3958,6.3453,6.2892,6.278,6.278,6.278,6.278,6.278,6.278,6.278,6.278,6.278,6.278,6.278,6.278,6.278,6.3172,6.4016,6.409,6.409,6.409,6.4861,6.4751,6.3503,6.4237,6.4494,6.4053,6.4053,6.4053,6.4053,6.3649,6.3209,6.278,6.278,6.278,0.0,0.0,0.0,0.0,0.0,4.3164,0.0,0.0,0.0,4.1133,4.0078,3.9531,4.0937,4.0625,4.0547,4.1719,4.2344,4.3516,4.6016,4.7383,4.8359,4.8828,4.8476,4.8359,4.8867,4.9531,5.0234,5.0859,5.0937,5.0933,5.0972,5.0954,5.0906,5.0903,5.0852,5.0825,5.0712,5.2356,5.2856,5.2192,5.4549,5.5357,5.4741,5.5395,5.5703,5.5703,5.5703,5.6214,5.706,5.7934,5.8781,5.9588,6.0473,6.0781,6.0781,6.0781,6.0781,6.0781,6.0781,6.0781,6.0781,6.0781,6.0781,6.0819,6.1012,6.2089,6.3462,6.4359,6.5243,6.5897,6.5897,6.5897,6.5897,6.5897,6.5808,6.5499,6.4572,6.4313,6.3937,6.299,6.278,6.278,6.278,6.278,6.278,6.278,6.278,6.278,6.278,6.278,6.278,6.278,6.278,6.3172,6.4016,6.4237,6.4237,6.409,6.5154,6.5264,6.4127,6.4861,6.5301,6.5301,6.5301,6.5301,6.5301,6.464,6.398,6.3257,6.2952,6.289,0.0,0.0,0.0,0.0,4.543,0.0,0.0,0.0,4.2851,4.1484,0.0,4.0976,0.0,0.0,0.0,4.0273,4.207,4.3164,4.207,4.3945,4.6289,4.8633,4.6836,4.6367,4.8672,4.8984,4.9101,4.918,4.918,4.9449,5.0111,5.0034,5.0259,5.0896,5.0782,5.0741,5.0712,5.2356,5.3164,5.3087,5.4857,5.5665,5.5549,5.5665,5.5703,5.5703,5.5703,5.6214,5.706,5.7934,5.8781,5.9588,6.0473,6.0781,6.0781,6.0781,6.0781,6.0781,6.0781,6.0781,6.0781,6.0781,6.0781,6.0935,6.1716,6.2589,6.3462,6.4359,6.5243,6.5897,6.5897,6.5897,6.5897,6.5897,6.5542,6.5051,6.45,6.4036,6.352,6.2929,6.278,6.278,6.278,6.278,6.278,6.278,6.278,6.278,6.278,6.278,6.278,6.278,6.278,6.3172,6.4016,6.4751,6.4861,6.4127,6.6182,6.6402,6.4163,6.4861,6.5301,6.5301,6.5301,6.5301,6.5301,6.5228,6.5118,6.5007,6.3477,6.3209,0.0,0.0,0.0,0.0,0.0,0.0,4.3828,0.0,4.2891,0.0,0.0,0.0,0.0,0.0,0.0,0.0,4.1875,4.2187,4.1914,4.1992,4.3008,4.5586,4.4922,4.4883,4.6484,4.6172,4.6289,4.7305,4.7383,4.7685,4.833,4.9283,4.9891,5.0019,5.0451,5.0712,5.0712,5.1856,5.2462,5.2462,5.4164,5.5011,5.5011,5.5472,5.5703,5.5703,5.5703,5.5895,5.6357,5.7742,5.8511,5.8934,6.0281,6.0781,6.0781,6.0781,6.0781,6.0781,6.0781,6.0781,6.0781,6.0781,6.0781,6.0973,6.1831,6.2666,6.3462,6.4359,6.5243,6.5897,6.5897,6.5897,6.5897,6.5897,6.5717,6.5417,6.4938,6.4643,6.4294,6.3813,6.3745,6.3615,6.3294,6.3014,6.278,6.278,6.278,6.278,6.278,6.278,6.278,6.278,6.278,6.3356,6.4677,6.4677,6.464,6.4787,6.5742,6.6072,6.5521,6.6256,6.6696,6.6696,6.6696,6.6696,6.6696,6.6219,6.6256,6.6623,6.453,6.3759,4.6061,0.0,0.0,0.0,0.0,0.0,0.0,0.0,0.0,0.0,0.0,0.0,0.0,0.0,0.0,0.0,0.0,4.1792,4.1669,4.1009,4.1248,4.3125,4.3789,4.4219,4.4609,4.4297,4.457,4.5818,4.5703,4.5957,4.6776,4.803,4.8923,4.9375,5.001,5.0481,5.0712,5.151,5.1885,5.1923,5.3664,5.4511,5.4511,5.5318,5.5703,5.5703,5.5703,5.5972,5.6511,5.778,5.8588,5.9127,6.0319,6.0781,6.0781,6.0781,6.0781,6.0781,6.0781,6.0781,6.0781,6.0781,6.0781,6.0973,6.1831,6.2666,6.3462,6.4359,6.5243,6.5897,6.5897,6.5897,6.5897,6.5897,6.5897,6.5768,6.523,6.5099,6.4971,6.4481,6.4389,6.4255,6.3892,6.3363,6.2965,6.283,6.3025,6.3062,6.2817,6.3209,6.3429,6.3172,6.3356,6.409,6.5521,6.4897,6.4677,6.5264,6.5301,6.5668,6.6476,6.7247,6.7687,6.7687,6.7687,6.7687,6.7687,6.71,6.7026,6.732,6.5118,6.42,0.0,0.0,0.0,4.5183,0.0,0.0,0.0,0.0,4.5378,0.0,0.0,0.0,0.0,0.0,0.0,0.0,0.0,0.0,0.0,4.1137,4.2285,4.2422,4.3945,4.4648,4.3828,4.4492,4.4958,4.493,4.4213,4.438,4.5776,4.5958,4.7054,4.9336,4.9433,4.9856,5.0712,5.151,5.1885,5.1923,5.3664,5.4511,5.4511,5.5318,5.5703,5.5703,5.5703,5.6665,5.8204,5.828,5.9242,6.0742,6.0781,6.0781,6.0781,6.0781,6.0781,6.0781,6.0781,6.0781,6.0781,6.0781,6.0781,6.0973,6.1831,6.2666,6.3462,6.4359,6.5243,6.5897,6.5897,6.5897,6.5897,6.5897,6.5897,6.5768,6.523,6.5099,6.4971,6.4481,6.4389,6.437,6.437,6.3934,6.3385,6.288,6.3503,6.3759,6.2915,6.4237,6.4934,6.4127,6.4751,6.5558,6.6402,6.5742,6.5264,6.5301,6.5301,6.5668,6.6476,6.7247,6.7687,6.7687,6.7687,6.7687,6.7687,6.765,6.7247,6.6512,6.4861,6.453,4.6628,4.7248,4.766,4.663,0.0,0.0,0.0,0.0,0.0,0.0,0.0,0.0,0.0,0.0,0.0,0.0,0.0,0.0,0.0,4.0142,4.0916,4.207,4.2195,0.0,4.1933,4.164,4.1432,4.1449,4.1707,4.2256,4.3233,4.4897,4.6679,4.848,4.9086,4.9817,5.0712,5.151,5.2192,5.2769,5.3933,5.478,5.528,5.5588,5.5703,5.5703,5.5703,5.6011,5.6665,5.7819,5.8627,5.9242,6.0358,6.0781,6.0781,6.0781,6.0781,6.0781,6.0781,6.0781,6.0781,6.0781,6.1166,6.1716,6.2024,6.3051,6.4205,6.4512,6.5243,6.5897,6.5897,6.5897,6.5897,6.5897,6.5897,6.5833,6.5676,6.5649,6.5569,6.5403,6.5374,6.5452,6.5699,6.5275,6.472,6.4188,6.4549,6.4787,6.4494,6.4971,6.5191,6.4934,6.5154,6.5411,6.5705,6.4971,6.4494,6.4494,6.5007,6.5668,6.6476,6.7247,6.7687,6.7687,6.7687,6.7687,6.7687,6.7687,6.754,6.7247,6.6182,6.5815,4.6978,4.7596,4.8091,4.7637,4.7313,4.6828,4.5747,0.0,4.6881,0.0,0.0,0.0,0.0,0.0,0.0,0.0,0.0,0.0,0.0,4.0198,4.0793,4.1845,4.1548,0.0,0.0,4.0822,4.0372,4.0091,4.0574,4.1184,4.1899,4.3802,4.5725,4.7625,4.8509,4.951,5.0712,5.151,5.2192,5.2731,5.3933,5.478,5.528,5.5549,5.5703,5.5703,5.5703,5.5857,5.628,5.7703,5.8473,5.8858,6.0242,6.0781,6.0781,6.0781,6.0781,6.0781,6.0781,6.0781,6.0781,6.0781,6.1408,6.2139,6.2435,6.3512,6.4666,6.4974,6.5474,6.5897,6.5897,6.5897,6.5897,6.5897,6.5897,6.5897,6.5897,6.5897,6.5897,6.5897,6.6128,6.6409,6.6619,6.6705,6.6389,6.5418,6.5546,6.5632,6.5338,6.5815,6.6035,6.5778,6.5999,6.6035,6.5742,6.5264,6.4824,6.453,6.5301,6.5962,6.6476,6.7247,6.7834,6.8128,6.7834,6.7834,6.8128,6.7834,6.7687,6.7677,6.688,6.6659]}]]